GFSSE_250_rhum_000.txt.gz
RH
35 43 43 90 100 100 57 44 49 53 46 50 48 48 44 38 29 24 42 35 27 32 30 27 23 17 15 15 13 12 11 12 14 13 12 12 14 14 12 11 11 11 12
37 52 70 100 100 100 83 47 43 51 48 43 45 47 49 41 49 41 40 39 34 28 23 19 16 15 15 14 14 14 14 16 15 14 15 15 14 13 11 11 11 11 11
36 55 100 100 95 79 72 49 45 45 48 43 53 56 48 56 51 45 41 36 29 24 20 16 17 17 16 16 16 16 16 16 17 17 16 15 14 11 12 12 12 11 12
42 54 100 100 91 100 89 45 42 60 61 48 64 74 72 62 53 39 31 26 23 22 20 20 18 16 16 16 17 16 17 19 19 16 18 16 15 14 14 13 12 12 14
51 60 96 92 100 98 86 45 36 71 67 68 79 73 49 45 37 35 32 27 26 24 22 19 17 17 17 17 17 19 20 20 17 21 19 18 16 17 16 16 16 16 16
49 76 100 100 100 96 42 38 67 100 100 94 84 67 44 48 37 31 30 29 25 22 20 18 19 16 17 18 18 20 20 19 22 21 20 20 21 19 19 20 20 22 21
66 98 100 100 65 48 89 65 80 100 100 88 66 46 43 36 34 31 29 23 21 20 20 18 18 18 18 19 21 21 20 21 23 25 25 27 28 30 32 28 30 26 39
88 100 100 100 72 97 95 91 94 88 91 65 52 47 38 37 31 29 24 23 22 21 18 19 17 17 18 22 22 24 27 27 28 27 27 33 38 57 41 36 41 33 64
97 100 100 91 100 100 88 99 87 80 71 66 57 47 32 30 28 24 25 24 22 20 17 15 18 22 24 24 26 30 35 35 34 33 38 42 54 67 62 61 49 47 96
93 100 100 94 82 100 71 66 82 79 79 70 48 35 32 29 30 28 23 22 21 15 18 22 26 23 24 27 31 38 46 46 40 45 52 56 62 58 55 77 59 58 100
83 93 100 100 99 95 68 98 93 84 59 44 35 36 38 33 30 25 22 20 18 24 26 29 27 26 29 39 46 41 44 50 55 62 60 66 54 48 66 94 68 76 100
94 100 100 81 71 81 90 92 84 57 42 40 40 41 39 26 25 20 19 24 30 30 30 31 33 34 36 42 50 42 46 51 62 72 68 63 63 73 100 100 70 85 100
67 91 97 100 100 90 88 80 54 53 53 50 52 33 24 27 21 22 26 32 32 33 38 42 40 44 56 66 86 86 73 69 84 97 99 94 78 50 94 89 82 94 100
100 100 88 75 80 80 68 62 70 67 54 41 26 24 28 23 26 32 38 39 41 40 42 48 55 54 51 59 53 57 41 51 70 99 100 100 100 84 81 86 88 81 71
88 82 84 84 71 69 73 76 69 44 26 24 26 26 25 30 36 41 42 40 38 45 45 52 67 81 82 83 88 92 83 85 100 100 91 86 99 100 97 99 95 77 91
93 90 74 95 99 100 84 63 39 22 32 30 26 27 33 38 39 43 44 43 44 44 48 58 74 84 98 100 97 87 98 100 100 98 66 78 78 85 87 88 88 100 100
81 95 100 100 90 61 42 29 28 33 30 26 28 32 35 43 43 43 43 43 49 54 55 64 72 97 100 62 53 63 78 87 64 64 64 81 96 100 100 100 100 100 100
100 100 99 73 43 35 29 47 42 31 28 34 37 41 43 42 43 44 46 49 52 57 67 78 82 69 66 70 69 64 70 62 63 66 76 83 86 83 87 94 97 88 80
100 93 58 38 36 45 51 37 32 29 32 34 37 41 41 41 43 53 64 60 62 68 58 54 60 66 69 72 75 72 70 75 68 72 59 65 52 41 41 55 62 62 69
64 41 33 39 46 38 33 30 32 35 36 38 39 40 38 37 51 56 51 50 56 58 58 80 79 80 84 80 69 68 57 74 79 53 61 54 40 36 44 55 55 65 73
28 33 45 46 32 36 50 56 61 55 58 55 49 47 49 49 46 40 50 57 52 57 78 99 100 100 96 66 62 68 64 57 58 54 48 48 55 53 57 69 83 84 82
34 46 44 39 47 57 63 69 72 65 43 35 36 40 40 41 48 59 59 65 70 74 79 64 57 64 77 75 69 64 55 79 57 58 60 66 65 72 82 82 81 76 78
49 47 46 50 52 61 68 67 65 54 53 46 44 44 44 50 66 67 59 55 54 44 48 47 47 49 61 74 76 56 54 64 66 80 75 89 96 98 88 86 78 85 79
41 48 47 49 55 59 62 63 56 60 53 52 58 64 62 69 70 57 47 39 43 43 44 48 44 39 41 44 66 58 61 64 61 56 80 98 100 99 94 96 95 97 75
35 39 49 55 60 58 52 47 47 48 47 47 51 64 61 68 56 56 64 67 65 53 52 44 35 36 55 44 52 54 49 56 66 72 91 100 98 97 98 96 100 97 96
51 56 52 50 45 44 46 59 67 64 62 64 61 60 58 67 74 74 66 60 56 47 54 51 45 64 66 53 51 50 45 57 80 96 98 100 91 92 95 100 99 100 92

GFSSE_250_rhum_003.txt.gz
RH
11 11 17 34 39 57 55 46 54 82 69 66 61 61 57 54 54 50 43 36 27 29 22 24 26 22 25 18 15 14 14 14 15 14 14 14 13 14 14 13 11 10 11
11 11 14 37 49 99 95 100 75 59 60 77 67 59 53 54 53 56 42 40 28 27 26 27 25 28 24 18 15 15 15 15 14 14 15 16 15 15 14 13 13 12 10
12 12 16 47 56 88 100 100 100 74 61 63 67 70 62 59 52 46 47 41 37 38 32 28 24 20 18 18 17 16 16 15 15 16 17 16 17 17 17 17 15 13 14
13 14 23 62 64 96 100 100 100 74 64 64 77 54 60 60 59 60 50 51 46 34 27 24 20 18 19 19 18 16 16 17 18 18 18 20 20 20 19 17 19 17 17
14 15 32 68 81 100 100 91 73 94 58 53 57 58 66 60 63 57 47 42 39 29 24 20 19 21 20 19 18 16 17 20 22 21 24 23 23 22 21 23 23 24 19
16 16 36 70 99 100 83 86 100 96 60 65 82 71 74 78 71 61 38 34 38 27 21 21 22 20 19 18 16 18 23 24 24 24 25 24 23 24 27 24 29 34 31
17 20 50 71 99 100 87 100 78 70 53 80 100 100 100 96 64 44 38 34 30 23 21 24 22 20 19 18 18 22 22 27 26 26 27 25 26 26 34 38 39 41 56
18 30 63 69 83 59 100 87 50 78 66 70 100 98 86 66 48 40 32 27 24 22 23 22 21 17 17 20 22 21 25 29 30 28 30 34 40 44 52 59 51 39 62
22 50 65 74 98 100 100 49 94 92 100 98 78 80 71 63 51 37 25 24 24 24 22 22 16 20 24 25 21 27 34 38 34 30 34 42 48 54 66 64 59 50 80
32 56 64 84 100 100 99 79 100 100 80 72 77 70 64 61 42 30 28 30 26 23 22 19 24 24 26 27 29 35 37 39 33 31 28 35 51 91 87 100 100 82 68
49 51 75 89 100 100 80 96 100 100 70 76 76 67 55 39 33 36 33 26 25 19 26 27 26 29 32 36 35 34 36 39 46 46 40 39 61 87 97 97 80 82 82
49 55 67 100 100 100 100 100 100 100 69 76 73 53 46 43 47 43 25 27 20 23 28 31 34 35 38 41 48 55 60 65 69 71 61 69 94 100 100 84 68 87 93
54 53 61 93 100 100 94 100 79 71 84 78 57 64 56 51 39 22 27 22 26 31 38 38 39 40 46 59 65 70 68 70 64 60 74 99 100 98 78 85 73 65 68
54 51 61 82 100 100 99 91 83 78 68 65 72 56 42 26 25 30 24 32 38 41 38 39 40 40 37 41 47 58 84 93 81 82 83 71 70 67 62 59 60 69 62
54 60 90 98 92 70 68 73 72 68 75 80 55 30 23 30 29 28 35 39 40 41 41 39 39 40 43 54 65 71 90 75 77 81 80 83 71 70 78 76 78 63 72
70 93 89 82 74 81 82 94 98 96 68 43 22 30 34 28 27 35 41 43 44 42 40 42 47 52 59 62 63 74 90 87 91 79 70 76 80 82 78 72 64 70 59
91 73 78 74 88 91 100 100 80 49 35 27 26 33 27 29 36 43 43 42 40 39 48 54 45 60 65 61 71 75 75 87 99 98 100 83 67 65 60 56 50 56 67
78 88 82 80 100 100 100 68 38 33 37 37 34 29 32 36 39 43 41 36 35 42 53 45 47 45 48 57 64 82 92 98 94 80 70 60 56 57 74 57 44 78 66
84 73 88 100 100 90 63 36 41 44 37 36 32 33 34 36 38 40 38 34 36 49 42 43 48 46 61 56 52 65 54 47 40 38 41 48 62 72 67 55 59 79 70
99 100 100 100 92 57 35 41 47 35 36 41 42 43 45 46 41 42 45 46 43 39 47 60 60 57 52 40 40 40 36 38 37 38 51 51 64 73 64 68 63 79 89
93 95 85 64 48 34 41 42 42 52 60 68 73 59 46 40 36 37 37 37 43 50 71 73 60 46 45 44 43 49 49 42 43 49 61 73 72 59 67 70 80 95 99
71 64 39 29 30 41 43 48 54 61 59 62 58 50 40 34 34 37 40 48 63 76 88 74 70 68 70 67 59 46 34 47 52 66 57 61 57 66 67 69 91 93 79
57 43 36 32 42 45 46 46 51 64 66 56 50 41 37 37 40 44 51 68 64 62 62 59 49 38 39 49 41 37 36 42 46 53 52 40 51 59 71 87 94 78 79
37 34 37 43 42 41 48 56 61 60 58 50 46 43 41 42 43 51 60 59 57 52 45 34 38 41 41 42 47 53 51 51 46 56 50 45 51 63 82 95 99 84 78
46 46 43 39 44 46 47 54 55 52 50 45 38 37 38 37 62 70 58 57 64 56 62 58 50 50 48 48 46 52 48 51 54 49 44 41 48 65 81 89 87 80 78
45 47 48 47 46 50 54 52 50 46 44 43 41 38 47 74 62 42 51 68 54 54 71 91 97 89 74 61 68 65 60 52 57 64 48 35 43 61 67 68 75 72 92

GFSSE_250_rhum_006.txt.gz
RH
14 13 12 13 14 14 19 31 31 33 41 66 68 70 76 69 78 75 67 62 57 51 44 39 33 27 19 18 19 21 20 19 18 18 17 16 15 15 14 14 14 13 13
12 11 11 11 12 16 23 33 37 38 52 64 79 88 75 65 62 65 61 49 47 44 38 34 30 25 22 20 21 21 20 20 18 18 17 16 16 16 15 15 14 13 14
10 11 11 11 12 18 40 68 52 99 95 65 75 74 86 76 78 71 60 52 46 38 36 33 30 28 25 22 22 21 22 20 20 19 17 18 18 17 16 15 16 15 15
10 11 11 12 12 25 61 83 96 100 100 94 84 73 68 90 87 78 73 58 54 36 37 36 30 31 24 22 22 22 20 20 19 17 18 20 20 18 18 18 18 18 20
9 9 11 13 13 28 64 91 86 100 100 99 80 73 54 64 71 77 63 64 44 43 32 30 29 30 25 24 22 21 19 19 17 17 20 22 20 21 20 22 21 24 37
8 7 11 14 15 44 76 91 86 100 100 82 84 75 48 68 82 82 57 48 45 42 36 28 32 30 24 23 20 19 19 18 18 21 23 21 23 22 22 20 23 62 67
9 10 14 16 22 61 82 96 100 100 97 100 98 75 59 100 100 81 71 61 60 45 36 31 29 27 24 22 20 17 18 20 20 23 26 27 23 22 23 25 42 79 62
10 14 17 19 37 77 84 100 100 100 100 79 67 56 73 93 97 94 84 77 57 40 33 29 29 24 23 18 16 18 22 22 23 26 26 27 25 34 35 35 41 59 62
12 16 17 21 55 83 93 100 100 100 100 70 79 100 98 85 70 74 62 52 47 40 32 30 24 21 18 18 22 25 26 26 27 27 32 38 47 58 55 42 49 67 92
13 16 22 37 66 85 87 100 86 100 92 88 72 78 67 58 57 52 49 53 38 38 35 25 19 18 21 27 28 29 26 33 44 59 66 68 73 51 40 37 55 80 67
15 19 30 50 77 85 86 100 100 100 82 97 100 94 65 65 70 62 51 42 47 40 24 21 20 25 26 29 31 32 39 49 54 53 48 58 58 49 51 66 83 79 76
16 22 40 69 86 91 94 100 100 100 100 100 92 86 73 78 73 55 54 48 39 23 24 22 25 30 32 32 36 37 37 38 45 49 52 61 69 74 89 82 86 78 67
18 24 50 72 80 88 93 100 100 100 99 71 66 79 82 71 62 54 44 36 22 29 23 29 33 32 33 35 37 40 45 45 44 46 57 78 80 71 84 78 72 68 74
22 35 45 73 83 97 100 100 100 90 68 73 91 79 69 60 55 45 27 24 30 28 33 33 34 37 36 42 43 37 42 45 53 66 79 81 78 87 87 74 70 58 53
24 38 70 74 75 79 96 100 94 74 66 64 69 69 67 58 45 21 29 28 28 33 34 37 39 41 41 46 43 42 48 59 76 80 85 90 87 85 53 43 38 47 54
23 42 61 76 80 74 68 67 71 74 87 100 96 84 51 39 27 36 30 29 32 37 42 42 40 36 39 47 48 50 56 58 54 52 50 59 54 49 41 41 48 60 89
35 54 49 62 93 75 78 80 89 98 100 100 72 41 34 34 40 32 31 32 39 43 42 41 37 33 38 45 41 49 63 63 56 55 45 41 47 51 51 50 58 84 100
37 42 70 67 55 67 91 93 99 100 100 69 38 40 39 41 33 33 35 37 38 40 40 36 33 36 43 42 55 64 66 54 54 55 58 61 54 39 44 48 53 68 87
42 51 54 68 74 88 98 100 100 100 73 39 43 45 42 40 43 44 43 40 39 39 42 44 42 38 44 49 67 79 72 65 52 46 42 41 40 39 45 55 63 46 54
37 46 57 63 68 91 100 100 100 88 40 41 45 38 45 52 56 62 60 53 50 52 50 46 42 51 58 72 82 73 53 38 39 44 41 40 40 42 44 46 65 61 44
57 64 72 89 100 100 100 82 88 40 40 46 41 50 60 64 74 77 70 60 39 34 38 41 48 54 66 62 56 44 36 46 48 51 48 44 48 59 64 68 61 64 59
90 90 94 99 97 89 84 50 32 38 43 51 57 60 61 60 55 48 44 40 35 37 39 45 49 60 67 64 52 44 48 59 70 76 79 78 73 75 75 75 68 63 76
98 93 87 84 82 70 52 38 33 39 46 47 50 52 55 56 51 45 41 38 38 40 43 43 60 68 58 65 69 54 58 66 76 99 90 84 85 88 82 76 75 81 93
100 100 95 84 69 50 43 41 43 50 41 42 44 44 48 51 48 42 41 38 36 36 40 56 65 46 50 63 68 66 68 70 74 85 100 92 82 83 79 76 84 87 99
100 86 53 40 39 38 38 50 57 55 50 45 42 47 49 50 50 48 48 44 42 44 60 76 58 58 70 72 86 91 92 95 100 77 70 79 69 56 54 71 70 87 100
47 43 46 49 48 48 49 47 46 47 52 59 64 63 60 55 52 47 47 48 52 82 82 60 62 79 96 99 100 100 100 100 100 99 60 56 58 75 73 67 60 85 97

GFSSE_250_rhum_009.txt.gz
RH
19 18 16 14 14 12 13 13 16 16 19 27 26 58 30 29 46 42 75 77 72 62 54 55 47 41 39 35 30 25 22 22 19 22 20 19 19 18 17 16 15 15 15
20 19 16 14 12 12 13 15 15 18 22 29 32 51 76 64 55 42 56 48 64 55 52 46 39 37 33 32 27 29 28 24 23 22 20 19 18 17 17 16 17 16 15
22 17 14 11 10 11 12 14 14 15 26 37 39 48 50 56 51 76 69 67 62 56 50 42 35 36 34 28 30 31 29 26 23 20 20 19 17 18 17 19 18 20 19
22 16 12 10 10 11 12 14 14 23 36 50 72 94 76 69 70 66 71 69 66 65 56 44 32 34 36 33 30 28 31 24 22 20 20 18 18 18 21 20 22 20 20
23 16 11 9 9 11 12 13 15 43 97 94 99 100 100 91 64 62 65 81 76 55 44 39 38 44 38 32 31 32 26 22 21 20 19 19 20 21 22 24 21 26 25
23 14 10 9 8 9 13 13 21 73 100 100 100 100 100 92 67 58 63 89 83 69 47 42 51 42 38 33 28 25 23 21 19 17 18 21 22 24 26 27 27 35 37
21 13 10 10 9 10 13 16 38 96 100 100 100 100 99 97 82 71 64 81 86 74 69 72 56 47 40 32 27 23 21 18 16 19 24 24 27 28 31 35 36 40 42
18 13 11 11 10 12 15 27 61 98 99 86 100 100 100 80 70 70 71 91 86 78 76 60 49 41 38 30 24 20 18 18 24 27 29 27 32 35 34 35 40 45 42
15 12 12 12 13 15 17 45 89 100 100 100 100 100 98 72 60 76 77 71 61 59 58 51 43 35 32 25 19 18 20 26 28 29 27 29 31 36 36 38 42 44 44
14 13 12 14 16 20 29 67 96 100 100 100 100 100 92 68 58 90 69 55 66 60 49 44 37 36 25 21 19 26 26 29 28 29 30 32 35 30 31 37 53 66 67
15 13 14 16 19 24 51 80 97 99 100 100 100 100 98 92 98 96 76 64 65 56 48 42 39 26 24 21 25 28 29 30 32 35 37 36 36 38 40 51 63 65 61
17 12 15 17 25 40 66 88 90 100 100 100 99 98 87 74 70 67 68 63 54 50 42 36 24 26 24 28 32 32 34 36 39 33 32 34 36 40 47 65 73 58 50
18 11 16 19 29 51 72 83 90 80 92 100 100 100 92 58 52 70 71 55 51 48 31 24 30 27 29 34 35 37 36 39 42 40 33 34 39 50 54 58 51 43 54
17 9 16 20 32 59 74 90 82 83 94 100 96 90 73 65 65 66 72 67 53 26 32 30 28 29 36 38 38 34 36 43 51 48 41 51 61 58 55 54 51 54 43
13 9 14 26 42 66 76 78 83 94 100 100 90 70 65 63 77 81 71 50 32 35 31 27 30 35 39 42 40 37 36 43 54 50 54 64 67 60 50 44 44 43 42
8 11 16 24 34 50 64 82 83 92 96 82 72 63 88 100 98 71 46 33 38 32 31 32 33 39 42 42 39 37 42 46 50 50 58 70 75 62 41 40 44 44 42
9 12 18 25 30 41 50 56 56 65 77 66 69 100 100 100 70 38 35 40 38 33 36 35 36 39 40 41 40 38 38 40 43 50 57 86 69 46 38 46 54 60 62
9 13 16 26 35 33 37 48 63 63 58 65 88 100 100 80 38 55 43 40 35 35 36 35 36 37 39 39 37 35 36 43 52 67 81 73 49 38 48 57 72 77 82
11 14 16 23 29 39 54 55 61 74 83 85 89 96 100 53 44 56 45 41 41 44 44 42 44 44 46 36 31 34 41 45 47 55 65 57 47 50 56 70 88 89 96
15 16 20 24 28 38 56 74 82 86 92 100 88 97 83 43 44 51 47 44 44 59 60 58 58 62 56 43 37 41 41 42 51 60 61 56 60 61 62 70 80 96 100
27 18 28 35 42 50 65 77 91 100 100 89 89 90 50 40 45 45 48 58 66 69 66 57 51 46 49 40 35 37 40 41 56 63 50 57 69 75 83 91 94 98 100
44 47 52 61 70 77 90 94 94 93 92 91 60 37 34 39 42 45 56 61 60 61 61 52 41 37 35 34 34 34 38 52 83 68 57 72 79 85 98 100 93 100 100
69 83 94 99 100 100 97 94 94 92 82 60 47 33 33 40 44 45 48 50 50 47 49 44 42 40 38 43 46 42 44 69 89 83 70 79 89 89 87 98 100 100 100
54 74 85 89 95 98 95 85 80 76 64 43 35 35 39 47 45 42 43 42 46 45 46 50 56 63 74 64 68 70 68 65 60 53 62 77 99 100 100 100 100 100 100
60 81 97 95 100 100 97 90 63 47 44 46 48 51 50 45 43 46 50 52 52 54 57 64 68 61 56 58 69 71 62 60 67 67 70 76 79 87 100 100 100 100 97
41 54 73 96 99 81 49 52 60 68 71 73 82 86 86 86 86 84 79 77 85 88 79 72 68 69 69 65 62 65 68 69 73 68 58 54 60 92 100 100 100 96 99

GFSSE_250_rhum_012.txt.gz
RH
22 22 23 22 22 19 16 15 14 14 14 16 16 16 20 23 23 24 27 30 32 69 54 68 78 74 62 47 40 36 28 31 30 28 27 26 22 21 19 18 17 16 16
22 24 26 25 23 19 15 14 13 13 14 15 18 19 18 25 38 58 60 49 36 32 53 66 52 53 47 38 36 29 32 32 32 26 23 25 23 20 19 17 17 17 19
31 23 22 24 24 20 15 11 10 12 14 16 18 20 24 27 36 40 53 56 39 42 56 55 49 33 42 46 34 32 34 30 27 22 24 25 21 20 18 18 18 20 22
32 28 20 20 22 20 14 10 9 11 14 15 18 20 37 43 41 56 63 69 63 54 57 70 57 52 46 44 36 35 35 31 29 29 24 23 21 19 18 20 22 23 24
39 25 18 20 21 18 13 10 9 10 14 16 20 27 47 54 86 98 99 83 59 55 58 62 58 50 45 42 37 34 38 39 32 27 23 20 17 18 21 23 24 26 27
36 25 20 22 20 18 12 10 10 11 15 20 38 44 100 100 100 100 100 93 76 66 57 58 58 55 43 42 40 44 48 33 29 24 21 17 20 24 25 27 29 30 26
36 27 22 22 23 17 11 10 11 12 17 26 49 100 100 100 100 100 100 93 72 72 60 59 57 54 48 54 52 41 35 28 24 20 18 23 27 29 29 29 27 30 28
38 36 29 28 24 15 11 11 12 14 24 40 93 100 100 100 100 100 98 78 58 50 51 51 49 51 52 50 40 36 30 23 18 19 24 28 30 30 30 31 33 25 30
44 43 36 30 24 14 12 12 14 17 36 63 98 100 80 97 100 100 74 58 50 58 68 57 50 50 50 47 40 33 25 20 23 28 30 31 32 34 36 36 25 30 39
45 47 39 30 21 14 12 13 16 20 47 78 99 100 100 100 100 96 83 80 71 63 60 58 59 52 46 42 36 27 24 27 29 32 30 32 36 38 31 27 35 37 43
41 44 35 30 17 14 12 14 18 28 63 96 100 98 100 94 100 100 90 66 70 57 61 67 50 47 42 32 27 24 25 30 32 32 36 40 45 38 36 28 34 39 43
45 43 34 29 16 14 13 16 23 37 59 93 100 100 100 100 89 83 92 86 54 60 69 55 55 53 29 27 30 26 29 35 36 37 35 37 39 38 30 30 36 45 55
51 42 36 20 17 13 14 20 29 60 80 99 98 98 100 100 100 98 84 71 55 60 61 58 58 40 26 26 28 28 33 36 41 37 34 33 31 34 31 32 44 56 61
48 45 32 19 16 11 14 21 36 66 80 83 85 96 100 99 98 76 71 62 60 74 63 56 41 27 28 26 26 30 36 40 39 39 37 36 35 34 35 42 50 59 61
47 43 22 20 13 11 16 27 43 61 78 77 76 76 100 97 86 73 69 81 89 76 62 36 27 32 29 29 31 34 36 40 41 42 40 37 37 37 42 48 58 65 60
50 32 19 22 10 10 16 28 45 61 74 76 100 97 100 91 71 82 99 95 84 62 39 33 35 32 32 33 33 34 36 37 39 41 41 40 37 40 45 46 57 63 72
48 20 23 21 10 12 18 26 38 62 78 77 76 83 92 75 72 90 100 82 71 49 37 38 38 34 33 33 34 36 38 41 46 44 38 40 39 40 46 52 70 73 76
25 18 26 18 9 13 17 26 40 49 60 65 60 64 78 71 71 92 93 74 76 44 46 43 36 35 37 38 42 46 50 48 47 48 48 41 44 46 45 43 62 71 61
20 24 25 18 10 15 16 23 32 41 53 55 68 70 69 66 80 67 69 77 72 42 44 43 36 38 48 50 47 50 50 48 44 44 44 42 42 38 42 46 57 69 66
18 24 27 20 15 18 17 20 26 43 60 66 66 72 77 74 71 75 84 85 48 40 42 43 39 49 57 53 49 63 54 52 47 44 39 36 36 37 40 49 68 78 89
18 22 30 28 22 25 27 28 40 48 60 71 73 88 96 88 82 78 58 41 32 36 41 42 42 53 57 54 55 55 50 49 45 43 36 37 37 43 49 59 67 68 70
17 22 31 34 38 39 44 48 57 72 85 93 92 91 84 72 69 58 48 38 33 38 43 46 46 49 51 51 40 37 38 44 58 59 65 63 63 67 71 72 70 74 75
19 22 35 44 54 66 70 70 74 79 89 90 78 74 76 71 61 46 39 37 40 49 54 50 44 41 42 45 46 40 40 46 54 76 87 92 96 99 98 94 95 93 90
21 22 25 38 58 66 77 84 94 100 96 81 71 58 45 40 40 42 48 55 56 55 55 61 64 60 55 49 61 72 62 59 60 57 76 80 85 95 100 97 96 100 99
21 22 25 35 55 64 65 74 89 88 77 67 47 48 49 49 51 54 56 58 64 67 63 59 58 64 74 76 74 73 79 78 76 65 57 69 63 63 71 77 81 72 72
22 27 31 31 34 51 63 78 86 80 58 55 63 65 71 74 82 92 91 80 74 77 85 90 95 95 96 98 99 97 85 76 75 72 59 49 44 53 56 63 69 84 88

GFSSE_250_rhum_015.txt.gz
RH
24 23 21 20 20 23 25 27 27 22 17 15 15 15 15 16 18 18 18 21 23 25 29 23 30 30 42 51 41 65 60 39 35 30 29 30 31 28 23 26 23 21 20
33 33 30 29 26 24 18 20 25 22 18 13 12 13 15 17 20 20 20 22 46 32 27 27 25 26 27 22 26 31 30 39 38 30 33 31 30 27 26 24 23 21 18
33 32 31 33 30 23 19 17 18 19 16 12 11 12 15 19 26 24 29 36 55 43 41 49 37 48 48 53 53 58 38 45 36 32 31 32 28 28 26 24 20 18 19
35 33 32 32 33 28 24 18 17 17 15 11 10 12 15 21 28 26 29 44 42 61 56 58 55 44 41 40 54 46 45 42 38 35 32 34 32 28 24 18 16 20 24
38 37 33 34 32 28 21 18 18 17 15 11 10 12 17 24 32 27 45 50 80 100 97 85 63 63 54 46 46 38 38 40 50 39 38 37 30 25 18 19 23 26 27
36 36 36 34 33 28 21 22 24 20 15 11 11 13 20 34 35 40 95 100 100 100 100 81 67 55 57 58 50 46 51 64 56 40 36 30 25 18 20 25 29 30 30
30 32 39 39 36 31 28 30 28 22 14 11 11 15 23 35 44 94 100 100 100 100 100 78 61 47 47 49 45 48 53 53 46 37 31 22 18 20 26 31 31 32 32
27 27 31 36 33 33 29 30 29 21 13 12 13 17 30 59 100 100 100 100 100 100 94 60 47 45 55 54 54 54 51 49 42 34 23 20 26 30 33 33 35 37 33
22 24 30 32 29 33 29 26 29 18 13 12 16 19 49 76 100 100 100 100 100 100 77 62 61 53 51 57 53 51 46 40 37 28 22 29 31 33 34 36 38 37 26
24 24 30 29 28 30 27 31 28 14 14 15 17 25 71 100 100 100 77 78 81 97 94 61 54 48 46 57 49 48 43 33 30 27 26 31 33 35 38 40 46 37 30
26 24 24 25 26 30 34 34 21 15 15 18 21 49 66 100 100 100 100 100 100 100 82 73 69 54 52 56 46 51 33 26 26 25 27 34 36 37 37 36 37 38 36
21 21 22 25 26 41 38 32 16 15 15 20 27 69 72 100 100 100 100 100 100 88 90 74 58 50 54 57 55 44 26 24 26 25 27 34 37 41 38 34 36 33 31
22 26 29 33 38 44 40 22 17 12 18 24 36 74 82 97 100 100 100 100 94 80 78 62 62 59 67 58 39 29 26 26 27 28 31 36 42 41 41 37 37 35 36
25 45 48 42 50 42 32 20 15 13 22 31 48 71 97 100 100 100 100 100 81 92 65 83 86 81 65 43 29 33 30 28 29 31 34 36 39 39 39 40 36 34 34
36 80 70 57 46 45 21 20 12 17 26 42 77 87 96 95 100 99 98 87 90 82 74 89 78 73 58 36 33 34 30 32 33 34 35 36 38 40 42 40 36 34 35
58 67 56 49 48 29 23 18 12 16 28 51 72 89 93 92 95 84 86 96 80 71 85 77 72 66 58 38 40 36 33 34 35 36 40 44 45 46 46 46 41 35 38
81 72 59 53 33 21 25 14 10 16 27 49 70 90 86 94 82 100 95 84 69 70 84 74 62 69 66 42 42 35 36 40 43 48 49 55 60 58 46 42 39 41 42
94 72 56 41 26 24 22 13 13 16 28 48 61 76 81 80 77 66 65 67 67 66 72 65 60 68 58 40 39 41 38 40 52 53 58 54 50 50 46 40 38 40 40
78 64 52 36 22 24 23 15 16 16 24 38 51 52 62 58 59 67 67 63 70 83 73 73 70 54 37 36 38 43 40 40 46 50 50 50 50 45 46 45 41 42 43
74 49 43 30 18 23 27 20 21 18 21 28 37 51 66 70 75 75 74 80 86 82 72 59 49 37 32 32 36 41 43 45 48 50 48 47 46 40 40 44 48 49 48
77 46 36 20 20 24 28 31 25 29 26 29 37 42 54 66 76 94 94 78 68 73 72 56 47 36 34 30 31 37 44 44 44 44 46 47 49 53 50 50 50 47 51
72 48 30 20 20 24 27 37 48 48 50 51 59 69 85 96 88 83 83 82 72 53 43 41 40 43 45 41 35 37 39 46 49 55 58 66 74 79 73 69 70 69 72
66 60 44 26 18 22 29 40 54 64 74 80 86 91 94 87 82 76 52 45 50 55 56 53 49 43 43 48 42 39 40 42 42 63 79 81 80 75 75 76 82 78 84
67 50 44 31 22 24 28 50 66 69 74 79 83 82 81 76 64 46 54 60 60 57 53 49 48 48 47 49 52 55 48 43 43 43 55 58 61 67 81 96 98 95 93
71 50 41 31 24 26 28 29 35 43 51 58 63 66 60 54 51 61 58 53 51 49 46 46 52 59 71 84 83 78 77 82 79 61 53 64 61 59 61 60 62 80 90
89 55 41 36 31 28 29 29 31 32 35 38 42 47 51 59 61 62 61 58 59 73 87 96 92 81 67 63 63 66 66 62 56 49 40 42 41 44 41 39 37 34 36

GFSSE_250_rhum_018.txt.gz
RH
27 26 25 22 20 22 21 21 22 18 18 19 21 21 20 15 12 12 13 16 17 18 19 20 20 22 25 26 24 29 34 45 48 37 55 31 43 44 36 37 34 29 27
28 27 25 26 24 23 26 26 25 22 22 17 17 20 18 14 11 11 12 15 18 20 23 26 26 30 30 35 35 34 35 54 64 49 52 50 49 44 36 37 36 31 27
34 30 29 26 25 27 28 28 30 25 25 21 18 20 18 15 11 11 12 16 22 26 77 62 51 45 40 45 40 45 39 41 47 60 69 54 44 39 38 39 38 31 26
32 33 32 32 34 33 32 29 29 25 22 18 22 23 20 14 11 11 16 27 33 55 52 43 48 61 58 69 64 56 51 50 50 43 48 49 45 41 37 36 32 28 19
33 34 32 31 28 30 31 26 27 28 26 23 25 26 21 13 11 13 22 44 48 43 55 64 95 100 100 99 61 55 57 59 62 51 51 55 52 44 37 34 28 20 21
32 36 34 33 25 21 20 26 27 28 26 27 26 27 20 12 12 16 33 41 36 53 97 100 100 100 87 82 68 52 46 50 45 43 51 52 50 41 35 26 19 21 25
37 43 44 38 31 23 20 19 22 24 23 27 24 25 16 12 13 20 50 38 59 100 100 100 100 100 98 76 51 53 51 52 59 57 52 48 44 38 27 18 21 27 31
58 50 45 38 33 21 21 20 18 20 20 22 26 23 14 13 16 24 35 62 100 100 100 100 100 100 97 64 64 56 52 55 55 56 48 44 40 34 21 25 29 32 32
82 64 50 36 27 21 19 22 18 20 22 24 28 17 13 14 18 25 50 100 100 100 100 100 100 99 68 65 54 51 48 55 50 53 48 36 33 29 25 29 32 34 38
76 64 37 28 24 21 20 22 18 19 25 29 23 14 14 16 20 27 92 100 100 100 99 93 68 84 100 73 51 44 52 53 53 59 44 29 31 29 30 36 37 40 40
53 35 29 23 19 21 20 21 20 23 32 30 17 13 14 17 25 38 85 100 100 100 100 87 100 100 91 70 50 53 50 59 59 46 35 27 33 31 32 43 43 42 45
31 21 19 20 19 22 20 28 33 39 36 24 16 12 15 21 42 48 100 100 100 100 100 100 100 97 71 60 58 67 66 66 41 33 32 29 32 31 30 38 41 43 44
18 18 20 21 22 22 37 41 49 44 32 18 14 12 17 28 62 58 100 100 100 100 100 100 100 86 70 61 61 69 66 57 36 33 33 28 29 30 30 34 38 41 42
19 21 21 23 26 38 55 60 51 42 21 19 12 14 27 37 86 65 72 100 100 100 100 100 72 69 75 66 74 69 59 56 40 37 36 31 32 32 34 35 36 37 38
20 20 22 29 51 63 67 57 48 25 22 16 12 19 34 52 72 97 93 99 100 100 86 89 91 80 75 67 76 67 56 56 43 41 39 33 32 34 35 36 39 42 42
20 23 33 56 70 66 54 46 30 25 20 12 14 21 56 78 96 98 97 97 94 91 92 84 88 94 75 73 72 63 57 68 48 37 40 39 36 36 39 45 45 44 42
24 39 58 57 56 56 50 34 27 25 16 14 18 24 63 83 95 94 100 100 100 100 91 77 80 76 70 70 80 67 69 56 37 34 36 37 38 39 41 46 46 47 47
67 86 85 72 61 56 39 36 26 23 17 17 18 29 54 80 95 99 98 99 90 78 75 70 72 56 62 81 81 85 68 49 38 33 35 37 39 39 40 42 41 49 54
86 96 80 73 57 46 38 27 26 26 19 19 20 27 39 58 71 76 69 65 64 53 55 62 64 80 86 77 78 70 61 52 39 34 34 36 38 40 44 47 48 44 38
96 93 87 67 55 41 26 18 25 29 26 23 23 21 25 31 46 47 48 47 47 57 71 93 93 81 76 74 65 46 42 39 41 42 43 41 40 39 39 37 36 35 35
100 85 79 63 50 29 32 18 20 30 38 34 31 29 27 30 35 44 49 58 83 100 98 83 70 65 46 40 42 47 48 51 52 46 49 48 48 49 42 38 37 36 39
100 96 73 58 55 40 35 22 20 23 36 47 54 55 56 59 68 83 94 100 98 89 80 72 52 44 50 46 41 43 52 69 66 64 63 63 60 61 60 56 52 54 46
100 95 79 69 55 43 30 27 27 26 34 41 58 75 80 86 90 90 92 83 79 77 72 48 52 53 51 63 58 44 42 46 49 66 71 64 54 46 47 54 63 69 76
61 91 87 84 60 43 33 30 32 30 27 33 43 46 56 61 62 66 67 70 70 56 54 65 64 62 57 50 57 64 55 43 38 39 44 46 59 73 78 87 84 70 61
29 71 95 95 91 64 42 36 34 31 30 32 32 32 33 36 39 43 49 56 62 74 70 64 54 47 50 58 61 69 76 76 65 47 42 44 49 48 50 46 43 38 43
22 33 66 99 97 95 86 64 47 41 40 37 39 42 44 47 52 58 62 63 64 59 57 59 68 76 77 69 65 64 57 54 54 56 50 47 41 39 38 41 42 40 40

GFSSE_250_rhum_021.txt.gz
RH
37 33 28 25 23 24 20 21 21 21 20 20 19 20 17 17 15 16 18 17 14 12 12 13 16 19 21 24 22 24 20 20 24 27 23 29 29 36 44 48 42 49 44
45 38 30 28 25 23 24 24 23 24 26 25 24 22 20 20 18 19 20 18 14 11 12 17 21 24 30 31 32 30 27 40 31 28 33 40 44 61 64 65 44 41 44
50 44 34 29 30 28 30 30 31 32 32 31 26 22 22 20 20 20 22 19 14 11 14 24 29 38 100 69 42 42 43 42 50 48 49 41 44 45 67 70 50 45 42
44 38 36 30 31 32 33 30 27 24 24 25 26 26 23 22 24 22 23 20 13 12 17 26 34 100 99 54 42 54 71 72 71 55 47 43 47 54 57 56 51 51 42
35 33 35 35 29 28 27 25 25 25 22 19 20 21 22 22 22 23 21 18 12 13 22 29 76 93 47 64 88 100 96 78 70 56 52 50 45 42 40 42 45 46 43
31 30 28 31 31 29 26 24 25 28 26 18 18 21 21 20 19 20 20 14 12 16 29 60 56 45 81 100 61 70 100 78 61 51 57 59 62 54 49 49 48 41 35
46 38 37 39 30 30 32 34 33 30 26 21 17 19 20 19 21 21 17 12 13 19 31 38 42 100 100 100 100 98 97 68 62 66 54 55 61 55 48 46 44 38 27
45 42 38 38 32 30 28 32 42 30 25 22 18 19 21 21 24 20 14 13 16 25 33 43 93 100 100 100 100 100 92 65 59 52 52 55 62 54 53 43 36 33 24
43 50 39 34 25 25 34 37 38 27 21 18 18 21 21 25 24 16 13 15 18 32 49 100 100 100 100 100 100 85 60 90 75 48 45 54 65 66 52 36 32 31 30
40 35 41 27 29 34 40 42 24 19 17 20 22 24 27 33 20 14 13 15 19 35 98 81 100 100 100 100 79 72 100 85 58 44 57 70 70 50 40 35 31 33 35
31 32 36 41 41 43 41 24 16 16 19 21 31 40 41 25 15 12 14 17 20 59 100 100 100 100 99 75 82 100 92 67 48 52 73 68 57 37 31 30 30 35 36
30 42 49 52 48 39 20 17 18 19 23 34 49 49 29 18 13 11 16 20 23 44 100 100 100 100 100 100 92 100 90 68 52 53 69 62 52 38 36 33 34 36 35
48 59 57 46 33 18 17 19 21 31 40 59 57 36 20 18 12 13 18 22 34 72 100 100 100 100 100 100 100 95 71 54 55 64 72 64 54 45 39 37 35 36 34
63 58 33 21 17 18 19 21 40 47 60 54 39 27 23 16 10 17 25 34 59 69 100 100 100 100 100 100 100 94 66 59 62 64 68 62 57 54 40 39 35 34 34
48 24 20 17 17 18 21 40 56 58 50 38 30 29 20 12 11 19 26 56 86 48 78 100 100 100 100 99 96 70 80 77 78 66 70 72 65 58 38 38 39 37 36
23 20 17 16 18 22 38 60 58 51 42 34 27 23 15 13 14 21 40 48 97 93 88 89 100 100 100 81 67 78 75 77 68 65 85 81 75 60 45 33 36 37 36
20 17 16 19 25 40 67 65 58 45 39 31 23 22 16 16 19 27 66 89 87 92 100 96 83 79 79 81 82 70 63 65 58 71 83 77 70 67 50 30 27 31 33
18 18 21 24 63 79 74 59 51 41 30 26 25 23 17 19 20 24 54 84 99 100 100 100 92 83 77 70 68 58 60 75 89 76 69 62 54 44 41 41 37 32 31
20 21 25 52 81 80 72 57 43 31 24 23 25 28 20 23 22 24 30 46 59 68 76 72 66 72 65 46 54 79 99 96 83 78 60 48 46 48 54 55 61 67 61
22 23 68 71 80 83 72 51 31 29 32 34 31 34 28 26 25 22 25 34 45 49 48 52 50 51 67 83 98 100 92 72 54 46 54 56 55 59 61 59 51 55 58
25 45 100 100 81 82 60 50 40 35 28 30 32 37 39 37 35 32 30 30 36 40 45 58 71 86 99 95 95 87 78 54 58 57 60 68 66 63 62 60 64 56 57
28 44 74 90 93 85 69 62 53 39 29 28 30 36 43 52 61 59 60 61 67 74 82 91 100 100 99 92 66 60 53 66 66 60 60 62 72 83 87 80 68 58 47
22 42 64 88 91 94 82 76 58 45 35 32 34 35 33 38 51 61 68 80 86 86 85 77 74 72 72 78 59 49 52 53 58 68 85 95 90 80 72 83 77 72 69
18 21 27 40 55 73 80 81 82 69 68 51 39 38 34 34 36 37 39 45 46 45 43 45 49 51 54 62 65 64 58 49 47 54 62 63 70 76 80 73 68 68 69
16 16 18 22 27 43 62 76 81 61 55 76 76 67 61 52 44 42 43 42 41 42 47 54 58 57 54 55 56 61 68 66 61 52 47 44 45 46 55 62 55 52 53
20 19 18 16 15 18 21 24 23 23 27 32 34 38 46 52 54 62 69 71 68 67 65 66 64 62 61 63 69 69 60 59 56 57 50 51 52 49 46 50 52 49 45

GFSSE_250_rhum_024.txt.gz
RH
30 26 25 26 29 27 23 20 20 20 20 19 20 22 21 19 18 18 17 17 17 16 17 16 18 16 12 12 14 18 24 24 25 22 21 18 21 22 20 21 24 25 25
38 39 36 38 37 37 31 27 23 21 24 24 23 23 23 22 20 21 19 18 18 19 19 20 21 16 12 14 20 29 31 37 32 34 24 36 33 30 32 36 36 40 43
60 61 62 55 48 40 33 29 27 27 26 26 26 23 22 20 21 22 23 22 20 20 21 19 19 16 13 18 27 40 89 79 51 30 42 50 73 50 43 36 44 49 47
98 95 78 55 41 39 37 32 28 29 27 24 24 24 27 26 18 18 19 20 20 20 19 19 18 14 15 23 35 96 100 100 34 59 83 95 72 60 44 47 48 47 45
100 88 61 42 34 28 25 26 28 27 25 25 25 26 29 27 22 19 17 18 21 18 19 20 17 13 18 24 71 100 100 56 90 74 86 81 67 54 54 54 49 54 51
100 100 72 49 40 28 23 22 21 23 24 24 24 23 20 25 26 21 20 21 21 20 21 18 13 14 20 32 100 77 48 86 74 87 100 81 63 61 53 48 49 54 52
100 96 70 49 37 25 23 23 23 25 26 24 22 29 29 25 25 18 19 23 22 22 20 15 13 15 24 48 62 64 99 100 100 100 100 75 63 53 47 41 50 50 49
100 98 71 50 31 22 20 24 24 24 20 21 26 36 32 22 17 17 22 24 25 23 16 13 14 17 30 28 59 100 100 100 100 100 89 84 69 66 43 42 55 58 53
93 81 61 35 24 21 21 24 24 23 24 28 39 36 22 16 17 19 23 29 30 20 13 13 15 19 26 61 100 100 100 100 100 97 92 99 83 54 43 76 67 58 45
82 66 46 35 26 22 20 21 23 28 36 42 39 18 16 18 22 29 38 35 22 15 12 14 17 31 96 100 95 88 100 100 100 67 100 94 73 49 45 66 62 49 35
59 45 41 34 28 24 22 19 31 44 39 26 19 16 17 23 32 50 39 23 16 12 14 17 30 69 93 66 99 100 100 100 100 92 97 84 66 53 45 61 65 52 42
42 32 27 32 30 25 24 28 45 42 23 17 17 19 29 38 47 42 25 20 15 12 17 18 25 80 97 100 100 100 100 100 100 100 100 90 64 43 48 59 65 61 55
44 34 28 37 35 35 40 42 42 19 17 17 19 36 47 49 41 26 23 20 12 12 17 20 23 67 100 100 100 100 100 100 100 100 100 90 60 43 52 62 63 69 62
53 52 46 50 61 62 53 38 19 15 16 18 30 54 50 40 25 21 20 15 11 14 20 24 26 74 100 100 100 100 100 100 100 100 97 82 57 62 56 62 62 74 73
96 36 40 62 62 57 33 18 15 17 21 28 47 51 40 33 21 21 16 12 11 16 23 26 30 49 100 100 100 100 100 100 100 94 83 69 61 58 60 59 62 79 72
80 62 76 64 46 26 19 15 16 20 29 58 61 44 39 31 26 23 17 14 14 15 28 36 57 58 62 90 100 100 99 99 91 76 72 64 60 62 61 79 80 76 78
73 68 61 36 26 19 16 18 23 41 73 68 54 42 32 29 30 26 18 16 17 20 24 36 54 91 60 65 62 72 82 88 86 64 62 61 60 70 80 82 77 65 54
74 59 40 26 19 17 19 23 54 72 70 64 50 35 28 30 26 28 22 20 20 18 35 47 65 68 67 74 85 73 59 50 53 57 56 53 78 97 100 90 72 56 51
55 42 23 18 17 18 22 60 81 78 79 59 33 27 24 25 26 27 28 26 25 20 20 38 59 58 58 60 70 68 74 52 51 56 74 87 95 97 82 60 58 62 62
30 22 18 16 18 21 44 72 84 89 81 48 36 35 28 26 26 27 32 37 37 32 27 21 23 30 36 40 42 45 52 57 76 87 96 100 100 93 65 56 63 67 72
20 19 16 17 18 40 87 83 75 90 67 63 56 41 30 30 34 33 33 36 42 51 50 47 47 49 54 58 68 72 77 86 96 100 98 95 92 69 59 68 74 70 66
18 17 17 20 25 46 68 84 83 84 72 76 64 52 40 37 37 38 38 37 40 44 51 59 65 68 72 74 82 83 92 98 83 76 71 69 63 80 86 82 77 68 64
17 17 18 20 24 41 51 57 61 57 71 76 74 67 62 67 71 68 64 53 50 43 40 40 41 41 46 48 45 43 46 46 50 58 64 66 64 66 72 77 70 69 71
18 20 17 16 18 20 24 27 35 46 54 49 33 27 26 31 38 40 50 58 54 56 66 67 68 68 70 69 70 72 68 65 68 68 78 85 96 100 89 85 93 94 87
22 21 18 18 18 17 17 17 17 17 16 16 17 19 20 18 18 19 20 21 23 26 28 28 28 28 30 28 34 53 70 73 74 61 65 70 71 75 73 76 86 78 73
26 22 19 20 18 20 21 21 19 19 18 17 16 15 15 16 16 16 17 19 20 20 21 22 22 26 27 26 26 29 38 49 58 66 76 70 66 81 76 72 67 60 50

GFSSE_250_rhum_027.txt.gz
RH
92 84 40 28 24 25 26 29 25 22 19 18 18 19 19 19 19 20 20 18 18 17 17 17 17 17 17 17 18 22 20 15 14 16 21 22 25 23 25 22 21 21 21
98 92 60 48 44 44 46 45 34 28 26 22 19 16 17 19 20 20 22 25 18 18 20 21 22 22 20 22 22 23 20 16 15 22 33 36 34 29 26 29 41 41 34
100 95 72 60 61 67 65 50 39 33 27 25 21 21 21 21 22 24 26 30 32 28 20 18 19 20 22 22 23 23 20 18 23 34 77 73 65 30 35 62 64 51 44
100 96 91 95 96 89 66 57 41 31 26 24 25 24 22 21 23 23 22 23 22 23 24 20 18 19 23 21 22 21 19 19 31 51 96 100 81 55 98 64 58 48 45
100 100 100 100 100 88 75 66 47 33 28 23 20 20 21 23 24 24 24 27 24 21 24 21 18 18 20 22 22 19 17 24 33 90 100 100 66 60 72 93 68 54 47
100 100 100 100 100 94 86 64 46 32 22 19 20 19 20 26 26 21 21 30 27 27 19 17 17 19 21 23 20 16 16 24 47 100 100 46 74 100 100 93 73 59 53
100 100 100 100 100 100 87 62 45 26 20 18 18 20 26 25 21 23 25 33 28 19 16 17 19 22 23 23 16 14 17 32 100 97 65 82 100 100 100 92 80 65 56
69 94 100 100 100 93 90 55 32 24 20 18 16 20 23 22 27 27 25 21 15 15 17 20 22 27 27 18 14 16 20 43 100 100 100 100 100 100 100 100 88 74 53
60 80 100 100 100 93 68 53 38 26 21 19 17 17 20 26 32 25 19 16 16 19 29 34 36 29 18 14 16 18 30 87 72 99 100 100 100 100 100 98 94 73 57
100 96 100 100 100 91 67 48 35 30 25 22 19 17 22 34 29 17 15 17 21 32 42 42 28 18 15 14 16 22 43 68 100 98 72 94 100 100 90 75 81 77 53
100 91 99 100 95 62 54 45 30 24 21 24 24 22 36 31 17 16 19 26 42 49 41 28 19 15 14 16 18 29 94 99 66 62 88 100 100 100 98 99 88 72 55
92 85 71 75 64 45 36 30 27 24 24 26 41 49 30 16 15 18 28 50 57 43 27 20 17 14 15 18 24 78 99 99 100 100 100 100 100 100 100 100 87 78 60
64 54 54 50 40 39 36 34 27 27 30 39 50 27 16 14 20 25 52 56 42 26 22 19 15 12 16 20 33 88 99 83 100 100 100 100 100 100 100 94 93 79 67
54 49 46 45 46 45 47 34 32 35 43 48 24 15 15 19 24 53 57 43 35 26 22 15 11 13 18 22 24 80 80 100 100 100 100 100 100 100 100 99 89 76 68
54 51 47 54 56 95 68 73 44 45 48 26 16 17 22 28 52 63 51 37 24 24 22 16 13 13 19 25 28 39 66 100 100 100 100 100 100 100 100 95 85 68 67
81 97 72 71 93 82 90 70 54 51 30 17 17 26 44 56 65 53 39 28 24 25 23 17 16 15 20 25 33 37 70 100 100 100 100 100 100 94 88 81 83 71 54
90 100 79 100 100 100 100 72 50 34 18 16 19 34 61 69 60 39 24 20 22 25 24 20 20 20 19 24 30 52 67 62 81 82 90 90 88 86 83 66 60 58 50
84 86 70 73 81 77 62 58 42 21 16 20 38 63 76 71 46 28 27 24 23 27 28 26 26 25 19 22 27 37 50 66 57 46 55 61 68 56 51 55 49 51 66
100 92 81 98 86 73 52 52 23 16 20 37 75 97 89 64 50 41 28 24 26 29 29 30 34 35 31 24 21 27 39 41 39 42 38 42 46 48 49 61 72 85 93
100 100 100 97 85 61 37 26 15 18 37 75 81 94 94 79 71 52 36 31 36 37 34 33 36 37 41 49 50 45 41 40 42 44 46 51 60 67 71 75 85 93 100
100 94 87 68 42 23 18 16 18 23 82 84 73 92 87 84 81 67 62 50 45 48 51 46 42 40 37 38 44 53 62 68 70 70 72 75 82 80 79 73 70 69 70
80 59 35 23 20 19 17 19 22 38 53 76 66 64 61 72 66 53 43 42 47 50 45 48 56 58 54 53 54 54 54 56 54 59 62 62 61 64 65 66 68 70 74
34 25 22 21 19 18 20 19 20 22 26 30 38 42 42 39 27 22 19 18 18 17 18 21 24 29 33 32 33 40 52 66 85 95 92 87 78 71 74 79 87 88 85
24 22 22 21 19 18 18 18 18 18 18 18 18 17 16 15 15 15 14 14 14 14 14 14 16 18 20 20 19 19 18 18 22 29 67 88 87 89 78 71 86 84 71
24 23 24 24 23 21 21 20 20 20 20 19 18 18 20 22 21 21 21 20 18 16 15 15 14 14 15 15 16 15 14 14 13 13 14 19 23 31 43 58 72 88 85
28 29 26 26 25 25 22 21 23 24 25 23 22 23 23 24 23 22 21 21 20 19 18 17 16 15 14 15 15 14 13 13 16 18 18 18 19 28 38 51 62 63 62

GFSSE_250_rhum_033.txt.gz
RH
39 45 50 53 56 60 73 90 47 23 25 30 39 46 36 27 22 23 20 19 17 15 15 15 16 16 16 18 18 18 19 22 25 21 18 18 18 18 19 20 21 21 21
40 43 46 54 59 67 78 100 93 59 62 42 56 52 46 39 30 26 22 22 21 20 19 18 16 15 16 20 22 23 23 23 25 28 25 26 23 20 21 25 26 25 24
38 40 49 52 60 79 100 92 92 100 89 59 64 64 55 43 37 43 33 26 23 21 19 17 16 15 17 23 24 25 24 25 26 26 26 25 21 24 25 27 28 30 26
60 46 40 46 58 71 94 100 88 83 72 67 70 72 66 66 56 46 42 34 27 22 20 16 15 15 19 19 25 26 24 22 20 20 24 21 20 28 27 30 29 29 25
80 66 52 48 44 51 64 96 100 96 72 73 79 90 86 80 64 49 33 27 24 24 17 16 16 15 17 22 23 22 19 18 17 16 17 18 23 31 32 29 26 25 24
73 82 78 66 61 62 61 76 98 100 100 100 91 87 90 87 72 49 37 34 32 25 19 16 16 16 17 16 17 20 16 15 13 17 19 23 31 36 32 27 23 20 36
87 93 93 83 74 72 74 97 100 100 100 100 100 100 96 95 88 63 55 47 36 28 22 17 17 22 23 20 19 18 12 13 16 21 26 35 38 37 29 23 22 35 66
100 99 98 100 90 85 79 90 100 100 100 100 99 99 89 100 88 78 56 37 28 20 18 19 23 21 17 18 14 13 14 20 28 41 43 41 38 30 21 18 23 31 74
86 100 100 100 99 84 82 77 84 100 100 100 100 100 100 99 90 74 51 26 20 20 24 28 26 17 14 15 17 21 31 40 43 51 47 37 25 19 18 20 28 55 85
78 91 100 100 100 100 100 100 96 74 76 96 100 100 100 100 99 74 32 22 21 31 29 31 25 14 15 18 28 40 52 60 50 38 29 22 18 16 17 23 41 65 100
78 93 95 85 93 97 96 99 100 98 100 100 98 89 78 79 71 53 37 26 28 36 33 27 17 15 20 33 51 56 43 31 25 23 21 18 16 16 19 27 47 76 99
92 78 85 83 85 84 74 76 85 87 80 78 65 65 66 63 55 42 31 48 50 46 32 25 15 20 37 55 52 42 35 25 21 19 14 13 13 17 21 29 46 83 100
100 98 80 89 85 85 85 71 69 81 93 80 77 76 67 58 43 36 44 71 65 49 36 20 17 38 54 50 42 31 26 24 22 18 15 13 14 18 26 49 70 81 98
100 100 100 99 98 96 93 79 79 67 68 70 71 73 65 54 46 48 67 82 73 40 39 17 32 53 53 40 31 23 24 25 24 19 18 17 15 18 23 59 70 95 100
100 100 100 84 81 92 100 97 90 85 74 69 71 64 58 52 48 64 67 63 53 41 31 23 48 56 45 33 25 24 24 25 26 23 23 22 18 17 22 30 70 93 100
100 100 100 94 94 85 84 87 90 84 76 73 62 60 54 63 62 60 58 60 56 34 23 42 55 56 46 36 26 26 26 26 28 32 32 30 25 21 22 22 27 60 83
92 100 94 92 90 85 86 80 80 71 64 64 60 59 55 80 63 62 68 60 52 30 40 69 67 66 55 49 40 35 36 38 37 31 28 33 41 39 27 22 25 26 37
63 88 80 69 69 80 84 83 67 71 65 59 58 61 80 67 62 69 65 55 22 34 56 70 68 61 62 58 54 47 44 44 43 42 42 39 34 32 38 46 46 34 27
39 82 72 72 70 68 71 78 73 69 62 68 68 97 99 79 75 75 63 21 28 62 74 66 68 73 53 42 38 37 32 29 26 23 24 30 40 50 49 43 40 41 47
32 53 87 83 60 77 88 81 80 89 100 93 100 100 100 91 83 62 19 19 33 53 51 61 63 40 27 21 19 18 16 15 15 15 14 15 16 18 21 26 34 40 47
27 32 94 98 88 80 74 94 100 100 100 100 100 100 99 83 47 17 21 24 24 27 30 27 22 18 20 22 24 21 20 20 18 18 18 18 17 16 16 15 15 16 18
25 25 61 84 100 100 100 100 100 100 100 100 100 93 80 27 24 24 22 23 20 20 20 22 22 22 20 20 19 20 21 18 17 17 17 16 15 16 16 16 16 16 16
26 26 31 44 72 86 99 100 100 100 100 98 74 34 25 26 25 21 20 20 21 20 23 22 24 22 20 19 20 20 21 20 22 25 22 18 16 15 15 16 16 16 15
25 26 24 24 50 89 100 100 100 91 65 45 29 29 27 24 22 22 22 24 23 24 25 23 22 22 23 21 20 18 19 19 20 23 24 22 22 22 22 22 21 20 18
31 28 23 26 72 92 96 81 58 37 29 28 27 26 24 24 25 25 25 26 29 26 22 22 21 23 23 21 19 18 18 16 14 13 15 16 18 19 20 23 24 24 23
36 27 24 52 89 96 66 47 31 31 29 27 28 29 31 28 28 27 27 29 29 24 23 23 22 20 20 20 19 19 18 18 18 15 12 10 12 18 20 23 25 24 25

GFSSE_250_rhum_036.txt.gz
RH
30 29 34 36 40 44 46 47 47 76 83 48 29 37 55 68 70 58 49 39 31 27 24 24 22 20 20 19 18 16 14 14 17 16 20 23 24 24 25 26 25 23 23
27 32 33 34 37 42 46 47 55 66 78 98 73 71 75 60 67 61 45 40 41 38 34 32 30 26 25 22 16 13 13 13 13 17 22 24 24 24 22 22 21 25 26
27 38 34 32 34 36 40 47 51 66 99 85 75 88 83 53 68 61 54 53 54 45 44 43 37 30 28 23 19 16 16 15 14 15 18 19 23 22 19 19 19 21 25
43 34 39 39 38 42 41 42 52 66 97 90 72 62 42 43 65 75 72 72 60 52 44 38 35 38 33 28 21 19 17 14 15 18 18 18 19 19 16 18 20 22 24
65 53 47 43 43 41 48 47 46 49 57 79 91 68 65 64 63 64 58 68 72 68 62 52 46 34 31 27 18 16 17 18 17 17 19 18 18 14 14 19 26 32 35
96 96 82 64 51 44 41 48 54 56 52 51 56 78 77 76 60 54 83 91 71 93 81 68 50 31 18 17 20 19 20 16 14 12 13 13 13 16 21 25 30 35 48
58 93 100 92 70 58 48 48 52 60 64 61 53 81 83 91 88 58 80 86 91 75 78 69 55 25 20 19 22 22 17 15 14 13 15 18 22 26 33 48 47 43 41
89 66 86 100 93 77 70 69 65 56 55 59 49 73 90 100 93 94 94 79 62 70 92 78 52 32 21 19 23 22 17 15 15 16 25 34 43 55 56 51 44 41 34
100 100 82 87 100 100 96 87 81 73 68 59 55 59 85 100 100 90 100 89 99 99 60 52 37 22 32 25 26 26 19 16 20 32 42 47 46 41 39 32 29 24 20
100 100 100 100 91 100 100 100 100 96 87 78 80 95 99 100 100 100 100 89 66 54 43 38 27 27 37 30 30 31 21 22 34 49 42 34 26 23 23 23 22 20 18
100 100 100 100 92 67 79 88 90 93 98 100 100 85 90 80 80 85 85 65 62 57 53 40 34 39 43 31 32 32 22 34 46 42 34 22 21 22 19 15 14 14 16
100 100 100 98 100 97 95 91 78 82 88 89 96 89 84 65 77 84 77 72 61 61 52 40 40 40 40 39 37 31 30 42 44 37 23 20 22 23 18 17 15 14 16
100 100 100 100 100 100 100 100 94 92 94 84 84 77 69 63 70 80 75 76 66 58 40 40 43 44 46 50 43 25 40 45 37 26 22 22 24 23 21 21 20 17 17
100 100 100 100 100 100 100 100 100 100 96 94 80 70 76 74 72 66 68 67 64 51 43 40 46 46 58 47 31 44 55 50 38 28 26 25 25 24 26 27 25 21 19
30 65 99 100 100 100 100 100 100 100 100 90 84 83 79 87 80 79 77 70 58 46 42 63 54 61 52 28 41 61 61 53 52 48 40 43 44 41 38 33 28 28 25
18 19 41 84 95 93 100 99 99 100 100 97 91 99 90 93 84 77 68 60 44 37 64 75 64 65 30 30 47 60 56 61 54 52 52 50 48 45 43 42 40 38 34
18 19 20 25 40 52 76 88 90 89 96 86 91 95 88 84 75 78 67 57 46 60 93 83 72 41 24 36 49 56 58 50 37 35 34 32 23 20 20 20 22 29 41
18 19 20 20 21 21 40 74 82 81 93 92 88 91 83 84 83 85 76 61 60 86 97 82 35 19 21 31 44 40 34 27 23 19 18 16 15 14 14 14 14 14 15
19 19 20 23 23 21 34 42 53 73 69 62 63 71 81 87 95 92 97 100 89 98 89 53 20 18 23 24 24 22 20 18 19 19 18 18 17 17 17 17 17 17 16
20 20 20 24 21 21 27 43 54 57 51 60 66 70 80 100 100 100 100 100 92 93 49 25 22 20 20 19 19 21 22 21 20 20 20 20 20 19 19 19 19 19 18
22 22 21 25 24 23 29 41 57 53 59 55 80 92 100 100 100 80 96 99 96 48 29 23 22 21 21 24 23 21 24 24 24 24 24 24 22 22 21 21 22 22 20
29 26 24 23 27 24 22 25 77 81 96 95 100 100 100 100 100 100 100 82 44 26 22 22 22 22 22 24 23 24 24 22 23 26 26 24 22 20 20 20 22 21 19
30 32 27 27 26 27 25 22 67 100 100 100 100 100 100 100 100 94 61 30 26 23 22 25 26 25 25 26 25 24 23 24 26 33 30 25 21 20 21 19 18 17 16
30 33 32 32 29 30 26 25 61 80 100 100 100 100 100 96 77 50 40 27 24 24 27 29 28 27 29 28 25 25 24 25 28 29 32 26 23 26 24 20 18 18 17
33 33 32 35 31 32 26 25 43 81 99 100 98 94 64 52 38 29 27 27 28 29 31 30 29 29 28 29 29 27 26 24 24 22 21 21 23 23 20 18 18 19 21
39 42 37 30 30 34 28 34 45 68 82 91 80 59 45 35 30 29 31 34 36 38 36 33 30 28 32 33 30 27 30 29 26 25 22 19 20 21 20 22 27 26 27

GFSSE_250_rhum_039.txt.gz
RH
18 22 23 28 35 34 39 43 45 46 46 55 86 87 37 33 40 77 68 53 51 48 41 45 42 38 39 42 38 32 32 30 26 22 20 19 17 16 14 13 16 17 22
30 21 22 23 26 34 42 43 45 47 45 50 60 58 93 64 81 97 88 52 66 65 59 54 63 55 46 44 38 36 32 26 26 22 19 16 15 16 16 16 16 20 21
38 36 27 23 24 24 31 37 44 49 49 51 54 61 100 74 58 61 60 49 60 69 78 74 62 51 57 47 44 36 34 26 21 18 16 17 18 17 16 14 16 20 19
57 42 38 32 24 22 26 33 35 37 40 42 53 56 88 91 64 76 70 72 71 63 56 64 61 52 50 59 52 48 39 34 25 18 19 17 17 16 14 13 12 15 18
85 59 47 44 41 33 24 28 33 35 41 48 48 56 55 51 56 71 66 61 60 55 48 74 68 65 60 42 40 56 50 30 20 17 18 16 17 14 13 14 14 16 18
100 89 65 54 55 54 39 31 36 44 47 46 49 50 47 47 45 48 59 72 62 62 58 53 53 48 39 47 76 48 36 20 18 21 20 22 19 14 15 18 24 30 32
100 100 91 68 61 60 69 47 45 52 52 48 48 46 43 40 42 39 51 82 84 78 60 58 56 52 51 91 48 34 24 24 24 20 22 25 16 19 30 44 46 48 53
100 100 100 95 80 74 75 94 80 58 56 47 45 52 49 41 38 42 42 75 99 100 94 90 75 64 79 55 42 40 29 29 26 26 26 26 19 37 49 43 37 30 32
100 100 100 100 99 95 82 89 100 97 79 62 51 53 58 61 56 51 50 62 78 100 94 88 100 99 69 53 51 47 32 34 37 39 34 24 26 42 40 32 24 24 21
97 100 100 100 100 100 100 88 81 96 100 100 92 87 90 91 85 78 85 84 73 77 88 83 94 80 61 52 56 36 37 37 39 38 29 25 33 42 37 24 21 22 23
72 94 100 100 100 100 100 100 100 98 90 100 100 100 100 95 85 83 83 90 83 76 60 85 73 70 67 59 52 39 39 39 40 32 26 32 37 34 25 21 22 22 21
100 89 89 100 100 100 100 100 100 100 97 95 80 80 94 84 76 69 82 82 81 72 63 64 70 74 62 59 47 39 44 44 43 31 36 52 47 36 30 30 29 27 26
45 98 100 92 86 100 100 100 100 100 100 100 96 94 83 98 84 76 82 81 77 82 78 64 66 68 67 48 41 48 52 54 37 29 50 54 52 52 48 47 43 43 41
18 26 88 100 98 79 78 88 100 100 100 91 89 86 87 95 100 97 84 80 80 79 88 86 78 70 58 50 48 68 64 52 32 30 51 49 51 51 50 47 45 43 40
17 17 27 48 71 100 94 85 88 94 93 90 92 91 83 96 94 98 98 86 88 92 88 87 82 71 62 55 59 62 70 41 26 33 48 50 46 38 33 31 27 20 16
14 15 15 18 19 36 72 98 99 92 83 83 86 86 87 84 95 94 99 98 96 97 95 93 80 73 69 77 76 81 47 27 24 30 30 27 22 17 16 16 15 14 13
14 14 15 16 18 19 20 23 55 71 85 82 77 70 78 86 94 96 99 100 95 99 91 85 76 72 87 100 98 76 27 17 19 19 15 15 17 19 20 20 20 20 19
16 14 14 17 18 20 19 19 20 21 29 43 58 60 58 67 80 94 100 100 91 89 88 82 85 78 90 100 85 48 18 16 16 16 19 19 18 17 19 20 20 20 20
24 20 16 17 18 18 19 19 21 19 17 17 19 27 40 50 66 83 90 88 80 90 89 85 93 92 97 92 50 28 18 16 19 19 20 19 20 21 22 23 24 25 25
26 26 20 17 18 18 19 19 21 21 19 43 48 30 42 60 68 68 68 97 98 100 88 100 100 100 92 54 36 21 17 19 22 21 22 23 24 24 23 23 24 26 27
28 26 25 22 17 18 19 19 20 25 25 37 25 30 35 60 66 89 99 86 100 100 100 100 100 88 62 31 20 18 20 22 24 25 28 27 25 25 26 27 28 27 28
29 28 27 26 22 20 19 18 20 23 28 28 24 21 81 87 97 99 100 100 100 100 100 100 83 43 29 22 22 24 25 25 28 29 30 28 27 27 26 26 26 27 26
28 33 31 28 26 24 23 21 20 20 30 29 24 29 98 99 99 100 100 100 100 100 95 64 49 29 22 24 26 27 30 33 32 34 32 32 31 30 29 30 28 26 25
28 29 36 33 32 29 29 25 22 21 31 33 27 36 91 100 100 100 100 100 98 85 62 43 27 26 29 28 29 32 34 35 36 35 46 45 41 39 38 34 28 26 26
29 28 37 41 36 34 31 28 25 23 31 32 30 48 73 88 100 98 100 85 64 50 30 29 30 33 35 36 39 38 36 34 33 36 39 42 42 39 38 31 29 27 26
34 27 38 46 40 38 36 31 26 27 32 32 30 62 67 84 87 85 79 63 47 31 29 32 35 39 40 40 34 36 40 39 41 35 35 38 39 39 33 29 29 27 25

GFSSE_250_rhum_042.txt.gz
RH
34 28 24 25 25 27 31 30 33 41 32 30 38 51 43 71 42 28 30 37 76 93 63 50 49 45 43 51 66 51 46 45 44 38 28 28 30 28 22 16 14 16 18
41 34 30 24 25 28 23 30 33 33 38 41 41 44 50 66 53 81 71 87 77 80 60 44 52 59 65 69 63 55 48 37 30 27 35 44 32 28 17 17 16 16 16
41 39 34 30 28 30 35 26 24 29 36 40 41 41 44 46 54 62 90 77 73 54 49 46 49 53 50 46 46 50 43 34 38 32 50 36 30 20 17 17 16 15 16
58 44 46 36 36 38 36 43 37 27 28 32 37 40 43 48 56 57 90 81 48 46 42 41 45 52 51 45 44 35 37 38 33 69 48 30 23 20 19 17 20 17 14
91 76 51 52 45 38 39 42 44 47 36 32 35 39 40 41 42 48 55 52 44 44 43 47 55 60 55 47 39 42 41 41 65 56 38 38 31 22 21 22 20 17 14
76 89 72 60 58 54 42 38 37 44 50 53 43 44 45 49 51 58 58 59 57 52 53 52 75 89 64 58 72 73 47 46 70 46 41 39 32 27 23 21 21 17 25
69 100 93 77 67 70 62 47 40 44 44 42 47 48 44 45 48 52 55 56 56 62 65 55 55 76 87 100 99 85 90 95 60 48 53 43 31 30 26 24 20 23 37
44 72 98 87 79 87 80 76 61 58 57 54 47 45 52 56 60 60 52 51 51 58 68 77 65 65 95 93 77 82 93 82 61 55 56 43 34 31 28 24 22 28 40
65 66 85 100 100 100 100 100 100 82 67 76 84 73 69 72 71 62 52 51 59 74 80 84 93 100 87 77 67 64 71 61 63 61 52 38 34 31 29 24 27 34 32
47 76 83 97 100 100 100 100 100 100 86 85 96 99 100 100 100 91 80 80 93 100 100 98 80 63 58 65 65 58 57 58 64 60 38 40 46 37 32 24 34 42 31
28 37 61 84 100 100 100 100 100 100 100 100 98 97 88 87 98 97 100 100 100 100 97 90 78 71 71 68 65 72 72 67 69 53 48 45 51 39 30 28 38 48 44
15 20 25 38 73 96 100 100 100 100 100 100 100 100 100 100 100 97 82 94 93 93 94 96 86 76 76 78 83 78 78 78 70 61 55 52 51 42 25 31 44 49 49
12 13 17 23 47 51 60 84 100 100 100 100 100 100 100 100 100 100 90 89 81 79 81 91 95 92 94 87 86 85 82 84 75 65 64 59 55 37 26 34 50 50 44
12 12 12 14 17 22 33 57 49 64 92 99 100 100 100 100 100 100 99 95 88 78 89 81 98 93 96 96 93 94 92 86 75 69 77 71 50 28 27 32 39 32 19
12 11 12 12 14 17 37 92 100 98 80 58 79 78 79 90 95 90 98 96 90 92 92 87 79 81 97 100 100 98 87 80 74 85 83 75 42 21 22 21 15 15 15
15 12 12 12 12 15 17 19 40 95 100 97 82 69 61 64 64 73 80 85 94 87 76 78 75 78 95 100 98 90 88 82 70 91 85 68 23 18 16 15 16 20 19
21 19 16 12 12 12 16 18 20 25 51 77 95 93 88 89 85 94 94 91 90 82 70 72 72 74 98 96 100 99 92 81 99 100 87 41 18 16 15 17 19 19 19
22 22 23 19 14 13 14 15 18 19 22 24 24 27 44 49 64 57 57 54 51 53 59 48 70 82 95 100 100 100 99 89 100 100 66 28 17 17 17 19 19 19 20
22 24 23 23 20 16 14 14 15 18 20 19 18 19 18 18 18 19 18 20 22 26 46 60 81 93 97 95 100 100 100 100 100 78 48 22 19 20 20 21 22 23 25
27 24 22 22 20 21 17 15 14 16 18 18 18 19 20 23 25 21 22 24 32 47 63 83 88 93 98 100 100 100 100 100 88 61 24 20 21 24 24 26 26 28 29
31 30 24 21 21 21 21 19 18 17 16 16 19 25 30 24 23 19 22 28 53 64 80 87 93 100 100 100 100 100 100 86 42 24 22 23 26 27 28 28 29 30 31
35 40 28 21 20 20 22 22 21 19 17 18 25 30 24 19 22 24 21 32 86 92 93 100 100 100 100 100 100 99 71 44 26 24 26 29 31 32 33 33 31 33 36
34 41 38 24 22 19 21 24 24 24 20 19 20 22 22 23 25 23 23 29 82 83 88 96 100 100 100 100 82 67 42 26 27 30 31 34 38 34 33 35 40 41 40
38 35 42 27 22 20 19 24 26 25 24 25 23 26 24 25 27 27 28 35 68 82 97 98 92 100 87 69 47 30 30 33 39 44 49 43 37 37 41 46 49 47 42
45 39 43 31 27 22 20 24 29 27 27 26 30 31 27 27 28 29 36 53 70 82 88 94 93 77 59 43 29 32 38 43 42 43 43 46 46 56 59 57 55 49 41
51 43 46 39 32 28 25 26 30 28 30 32 40 34 29 32 30 31 34 49 58 76 82 78 74 49 39 33 34 37 42 45 47 49 43 53 59 60 58 58 55 49 41

GFSSE_250_rhum_045.txt.gz
RH
34 37 36 27 24 22 23 22 22 24 22 21 19 18 21 34 29 27 27 30 32 27 42 87 63 58 51 53 51 51 56 53 50 43 40 31 26 24 29 40 28 26 21
30 34 40 36 33 26 25 24 22 23 24 23 25 22 23 39 48 56 82 65 67 53 72 53 54 54 57 53 53 52 44 44 38 35 32 33 30 33 49 39 32 31 27
32 31 35 37 39 34 30 29 32 25 24 22 23 26 29 30 36 43 51 50 47 61 73 59 63 51 48 41 45 53 56 48 39 34 46 39 35 44 39 36 31 28 25
24 27 33 37 44 40 32 29 31 37 36 29 26 22 20 21 24 27 29 33 36 40 41 82 83 37 34 36 36 59 64 48 45 84 72 50 44 58 55 38 34 34 26
25 25 31 37 40 40 38 38 32 33 33 37 35 30 27 25 20 20 25 29 34 41 45 49 49 43 38 37 42 49 58 62 93 95 81 76 88 76 56 41 43 33 28
27 29 29 31 48 56 56 40 43 41 40 45 49 54 46 39 32 27 27 33 40 49 56 56 57 58 52 44 55 59 46 66 99 86 66 64 64 56 50 48 43 30 32
22 27 30 32 35 45 60 78 52 45 57 52 45 44 52 57 60 58 54 52 56 60 62 61 52 46 54 65 79 72 70 85 80 74 64 58 54 56 58 51 39 32 33
25 26 25 35 42 50 57 80 87 69 59 67 71 65 59 58 61 62 66 73 69 64 70 71 65 58 67 79 99 100 72 59 57 57 61 56 54 60 60 60 46 38 33
28 27 31 33 48 54 68 88 100 99 86 75 81 88 84 70 68 73 72 74 82 82 94 95 81 80 96 100 100 96 83 66 60 64 64 62 66 72 65 63 50 40 40
28 29 31 33 34 45 69 78 95 100 100 95 91 96 94 92 93 86 83 86 92 100 100 100 97 94 100 100 99 88 77 78 73 71 77 75 71 73 70 65 56 47 41
24 28 30 33 42 43 55 65 96 100 100 100 100 100 100 100 98 88 86 87 86 93 96 99 95 100 100 100 95 94 87 88 86 89 83 78 77 82 70 70 64 54 43
23 22 22 27 35 41 44 48 61 100 100 100 100 100 100 100 100 100 100 98 95 99 100 100 100 92 82 74 74 83 89 96 92 92 97 92 87 90 70 66 70 59 42
16 17 17 17 16 21 28 33 37 44 80 100 100 100 100 100 100 100 100 100 100 100 100 100 100 100 100 93 83 82 75 79 74 72 82 96 97 86 73 75 68 65 39
14 13 13 12 12 13 13 14 18 23 30 47 71 96 100 100 100 100 100 100 100 100 100 100 100 90 78 71 72 74 73 79 73 74 92 100 93 92 85 94 78 64 31
17 16 14 12 11 11 10 12 13 15 21 24 31 43 66 75 76 81 86 94 100 99 100 100 95 76 71 76 79 82 86 69 62 74 99 100 100 100 99 100 89 65 24
16 17 17 16 13 11 11 12 12 13 17 20 24 31 61 53 54 57 60 64 56 56 70 68 70 77 74 78 81 64 66 63 58 71 95 100 97 98 100 100 96 53 20
21 20 18 17 16 14 12 11 12 17 14 17 19 20 30 66 97 100 100 100 87 97 92 81 84 76 67 63 58 49 49 53 63 99 99 99 100 100 100 100 80 42 19
22 24 22 19 16 15 15 14 13 13 12 14 18 18 18 19 22 45 73 89 67 72 61 51 49 41 26 27 34 50 68 74 84 100 100 100 100 100 100 100 61 34 20
27 26 26 23 19 16 14 15 14 15 13 12 14 14 13 17 20 21 23 22 20 19 17 16 18 21 22 29 40 56 79 96 100 98 100 100 100 100 100 79 51 23 22
30 28 28 29 25 20 17 16 17 19 19 17 15 12 12 14 18 19 20 20 20 19 16 16 20 24 26 42 56 74 87 90 94 94 99 100 100 100 85 52 25 24 27
31 28 29 29 27 27 24 21 17 17 20 26 33 28 16 15 15 18 20 21 19 17 18 22 19 20 60 78 85 93 89 92 100 100 100 100 100 79 46 27 26 28 31
40 29 29 29 29 24 23 23 23 20 25 21 24 33 34 20 20 18 21 20 18 18 18 19 20 19 34 76 75 80 94 100 97 100 98 86 67 48 32 29 32 36 40
79 53 34 30 32 32 28 25 22 24 22 22 24 24 26 30 53 46 40 28 22 18 18 20 21 19 24 55 67 88 94 92 98 85 68 50 33 31 32 35 36 38 39
75 80 56 42 33 37 33 30 26 26 24 23 23 26 29 36 55 66 59 30 23 19 18 21 20 20 26 44 69 90 88 88 69 55 44 34 32 32 35 37 39 38 35
60 66 67 50 42 53 37 36 31 29 29 25 23 26 32 36 32 42 43 27 25 26 26 21 19 21 24 44 80 95 80 64 54 41 36 34 33 37 42 44 43 40 38
52 50 54 59 57 56 58 41 38 32 31 28 26 29 38 37 47 55 42 34 33 30 33 27 24 26 29 54 81 76 65 52 43 43 42 43 45 51 50 47 44 43 46

GFSSE_250_rhum_051.txt.gz
RH
19 24 24 25 24 22 21 22 21 20 20 20 20 20 21 17 14 16 19 22 32 43 38 49 59 56 52 40 40 44 54 47 42 30 29 29 28 32 33 34 38 40 59
11 16 20 22 24 24 22 25 24 27 22 22 21 21 21 23 26 22 19 20 27 22 20 21 34 39 40 45 43 46 46 33 33 28 28 28 30 33 30 30 34 38 63
11 10 12 12 12 18 23 24 25 26 28 28 26 25 21 20 21 23 23 22 23 33 32 27 25 47 46 48 36 26 30 30 31 30 29 29 34 38 46 44 40 48 55
10 11 11 12 12 12 13 24 26 27 26 26 28 30 30 26 23 20 22 24 25 24 34 40 38 34 28 28 26 26 28 29 32 40 47 40 41 38 45 57 59 55 47
13 11 11 11 12 12 14 14 18 24 28 28 31 29 29 28 26 24 22 22 24 27 27 25 29 32 34 32 32 35 39 42 50 55 57 54 51 46 49 51 60 59 57
14 13 12 12 13 14 16 16 18 16 17 21 22 28 34 34 32 31 28 28 27 34 29 35 34 35 42 42 42 42 48 56 61 66 63 73 73 60 72 82 78 66 71
16 16 16 18 21 19 20 24 26 23 20 19 20 22 20 27 38 36 36 39 37 34 36 34 39 48 43 48 55 61 72 71 73 82 73 73 71 75 94 97 95 78 67
21 23 20 20 21 21 22 23 22 25 23 21 22 23 25 26 30 39 44 55 57 53 52 46 45 54 59 57 60 67 73 76 77 67 68 78 91 91 85 79 82 84 72
20 19 20 23 22 23 26 26 25 27 29 27 24 23 24 25 28 33 39 51 60 65 64 61 58 56 58 64 75 85 84 82 71 73 76 79 81 82 78 77 73 68 69
22 24 24 24 24 24 25 28 30 31 32 32 32 30 28 32 32 43 56 64 56 57 67 84 87 85 83 88 83 70 78 78 94 96 99 99 100 92 89 80 83 86 76
30 29 31 32 35 35 33 40 48 50 54 50 46 42 40 38 42 50 53 69 74 85 93 96 98 96 93 87 86 90 96 99 100 90 99 99 98 82 81 76 78 80 76
30 31 36 46 48 50 53 49 48 44 42 43 43 42 39 36 34 38 43 59 90 100 98 99 100 100 100 100 100 100 100 100 98 100 100 100 96 89 90 90 89 77 65
25 37 53 49 47 48 44 39 35 31 29 28 27 29 32 31 31 32 36 41 49 61 72 85 93 96 100 100 100 100 100 100 100 97 100 100 100 92 83 72 52 77 80
30 42 62 56 48 39 37 35 31 26 23 18 16 19 23 26 24 24 24 25 30 39 44 48 53 46 51 89 97 100 100 99 89 84 75 61 56 52 58 66 64 65 63
47 47 50 46 37 32 25 24 21 17 14 13 13 14 15 16 16 18 18 18 18 19 19 22 26 26 27 27 23 30 38 48 50 53 53 55 57 63 49 34 37 31 31
54 54 40 34 34 28 25 20 19 16 14 14 20 22 21 20 17 16 14 12 12 14 14 13 14 14 14 16 18 21 31 49 74 86 68 55 49 34 18 18 17 24 28
40 42 37 30 29 27 24 22 24 18 16 26 27 26 18 17 18 16 14 15 14 13 13 13 14 15 16 18 21 23 25 27 25 29 28 25 19 19 23 21 30 41 58
47 39 38 36 30 28 25 24 26 24 25 22 23 20 20 23 21 20 18 17 19 17 15 14 14 15 17 18 19 21 20 20 22 21 19 18 19 22 20 46 79 86 99
50 43 38 36 36 32 30 26 25 27 23 35 32 42 47 42 26 19 18 17 16 18 20 20 18 19 20 18 19 21 20 20 20 20 19 19 22 24 22 61 66 73 93
49 49 48 42 44 40 35 37 29 41 63 53 41 38 36 29 34 34 24 19 17 17 20 23 22 21 19 20 20 21 19 17 18 19 19 19 20 25 24 25 37 48 77
50 58 62 54 51 49 48 43 42 36 32 34 57 44 36 32 39 39 40 34 24 20 19 24 30 28 29 30 22 20 19 18 19 19 19 21 21 22 21 23 31 48 52
76 83 68 60 60 62 60 54 66 75 56 51 50 59 74 55 32 30 28 27 26 25 23 23 24 29 35 39 41 40 31 23 21 21 22 27 25 24 24 22 22 27 43
84 83 84 70 60 59 49 52 59 74 79 80 64 72 66 49 44 64 53 42 36 31 29 26 23 23 31 40 39 46 49 43 37 29 30 31 29 26 23 23 26 29 33
82 74 70 75 67 68 63 60 52 54 68 78 76 63 64 75 56 94 71 44 51 50 40 29 26 24 26 36 35 29 31 37 43 67 72 45 36 31 28 25 25 26 35
73 71 68 71 77 77 77 73 66 49 56 68 72 66 75 85 75 64 59 42 39 36 34 33 32 30 28 28 28 31 33 37 46 70 84 42 46 47 43 46 35 34 40
77 73 68 71 74 70 68 70 62 54 46 61 66 72 69 69 68 56 45 45 45 40 40 35 33 31 29 31 36 42 52 49 55 79 87 60 49 51 45 40 40 41 49

GFSSE_250_rhum_054.txt.gz
RH
18 20 20 21 22 20 19 18 18 17 18 18 18 18 18 18 18 17 14 14 16 20 28 50 68 60 71 84 79 66 49 38 32 39 41 35 34 30 28 29 28 28 28
12 12 13 15 20 23 23 19 18 18 19 19 19 21 20 20 20 20 23 24 22 20 20 22 24 23 30 54 63 51 46 53 48 32 27 27 29 31 32 31 29 30 28
10 9 9 9 11 18 19 19 20 20 18 20 22 21 23 21 22 22 23 24 25 28 28 26 29 27 22 22 32 41 45 35 29 30 30 30 31 35 37 39 36 34 38
10 10 10 10 10 9 11 11 10 12 17 24 24 23 26 27 24 24 24 23 22 23 27 28 29 30 34 41 38 32 31 30 36 32 31 37 39 40 41 44 41 39 45
15 13 12 11 10 10 9 9 10 10 12 13 21 24 24 25 26 28 29 30 27 25 23 24 28 29 30 30 29 31 33 36 39 43 39 40 47 47 43 45 51 50 62
15 14 14 12 11 11 10 10 10 11 11 12 13 14 17 23 27 26 29 34 35 31 32 30 27 32 29 30 34 35 34 39 44 40 44 51 56 57 57 54 67 64 75
15 14 13 13 13 13 12 13 13 13 13 14 14 17 17 17 18 19 19 21 29 35 37 34 34 35 38 35 34 39 42 47 46 47 51 58 65 68 75 72 79 89 82
16 15 15 14 16 15 16 16 16 18 19 20 20 22 25 22 19 20 21 22 21 22 26 40 42 45 43 53 60 58 58 58 59 67 70 70 75 77 80 99 100 97 93
18 17 19 22 22 20 20 20 20 21 20 20 24 25 24 23 26 28 26 25 24 23 23 28 31 35 53 68 70 68 77 84 84 90 90 93 84 92 100 100 99 100 98
22 22 22 25 23 22 21 20 22 24 25 25 22 22 24 23 25 27 30 29 30 31 29 30 29 32 48 60 66 86 89 88 94 100 100 97 90 97 100 93 91 88 87
32 31 29 28 26 25 24 25 24 25 26 27 27 27 27 26 32 42 38 42 40 40 39 37 36 40 54 62 60 77 89 92 97 94 98 95 87 92 91 92 85 94 80
32 32 40 28 27 27 27 28 28 32 32 32 31 29 32 37 34 38 42 37 41 40 40 39 36 35 37 38 51 76 90 99 99 88 94 93 92 89 93 99 100 100 93
29 31 29 26 25 25 24 26 26 31 32 36 34 34 36 36 36 31 30 29 27 27 30 34 33 31 31 38 39 43 51 56 64 66 61 65 88 100 100 97 83 60 52
38 34 30 28 26 27 29 36 36 37 35 35 41 43 38 36 34 29 25 23 19 17 19 22 25 25 24 23 24 26 32 34 34 36 41 37 30 31 30 42 54 66 54
37 35 35 32 30 31 39 43 48 49 50 44 40 35 27 23 22 18 15 14 14 15 16 16 16 16 16 16 17 17 16 16 15 15 15 16 18 21 30 43 61 59 31
43 46 39 40 37 39 46 54 61 53 47 40 30 26 22 20 18 16 14 16 20 21 20 20 18 16 15 14 13 14 14 14 14 15 14 15 15 18 23 24 28 21 20
49 45 53 48 58 57 61 56 49 44 36 28 26 23 24 24 19 16 19 23 28 19 17 21 23 21 21 20 17 15 15 16 18 19 17 16 16 17 20 22 22 20 19
45 43 43 67 68 62 66 69 71 58 58 53 41 32 27 31 27 27 26 22 23 24 24 23 22 23 20 21 21 19 17 16 17 16 18 19 18 19 21 22 21 21 20
49 53 53 49 46 58 53 58 59 63 63 60 44 45 35 31 33 26 30 34 40 49 47 32 22 19 18 18 18 19 20 20 20 21 23 22 19 22 23 23 21 21 21
59 50 57 50 46 44 46 57 67 68 76 78 58 57 80 72 71 61 43 37 37 34 28 34 38 30 22 19 18 18 19 20 21 22 20 21 22 26 25 23 22 21 22
79 70 64 54 52 51 51 41 36 46 58 81 74 76 80 80 59 44 42 54 45 42 36 36 36 37 32 30 26 21 19 20 24 30 34 42 45 39 30 27 24 23 23
97 82 73 69 65 64 61 61 49 49 60 64 75 87 95 87 100 98 81 72 77 61 43 38 31 29 28 26 27 25 24 22 24 30 35 42 52 60 60 49 36 29 36
95 91 88 78 83 83 83 67 69 62 63 68 74 80 100 95 94 85 85 75 66 68 64 51 55 34 32 41 47 38 30 25 25 28 33 44 50 59 50 44 48 53 68
88 85 87 92 92 92 96 95 96 88 71 54 45 43 54 56 57 72 88 79 100 99 98 61 48 35 31 28 30 30 29 28 28 26 25 33 39 40 47 55 65 75 91
98 96 100 100 100 99 100 100 84 62 64 62 56 70 73 66 84 96 100 100 100 100 92 80 63 47 41 34 32 32 33 30 30 27 27 28 34 40 44 51 59 73 82
100 100 100 100 100 99 99 86 72 57 66 71 73 70 76 73 67 72 99 100 100 90 83 75 60 56 46 42 42 36 35 34 33 31 32 36 44 49 50 53 63 78 88

GFSSE_250_rhum_057.txt.gz
RH
26 23 21 20 20 18 17 17 17 18 19 18 17 17 17 16 18 19 18 16 16 16 15 14 14 18 20 41 48 48 59 77 82 73 49 38 39 41 29 26 26 28 31
24 20 19 19 19 17 17 17 17 18 18 17 16 16 15 16 19 20 20 20 20 20 22 23 20 20 19 25 23 23 44 58 70 57 50 42 35 30 30 30 30 34 33
19 17 15 13 12 12 13 14 19 22 20 20 19 18 19 17 20 20 21 24 22 21 22 23 24 23 26 27 29 30 28 39 42 46 43 39 36 35 34 36 37 37 37
14 14 14 13 12 10 10 11 11 12 16 14 13 14 17 19 23 26 26 26 25 26 25 24 23 23 25 27 28 29 33 37 37 38 34 31 36 38 37 40 37 38 43
15 14 13 13 11 10 9 11 12 11 10 9 9 10 10 12 14 20 21 22 26 28 28 29 30 29 26 24 25 28 31 30 29 29 30 32 34 36 42 45 43 50 58
13 15 14 14 14 13 12 13 12 11 10 10 10 10 10 12 14 14 18 22 22 27 28 28 30 35 36 34 34 35 36 35 37 37 40 42 43 43 50 60 70 71 74
15 14 14 15 15 14 14 12 12 11 11 12 12 12 12 12 12 14 14 16 18 18 18 18 20 20 20 28 30 35 40 44 49 48 52 58 60 58 59 59 70 78 81
17 16 16 15 14 14 13 12 12 12 12 12 13 14 14 13 15 18 19 20 22 24 23 21 23 24 23 24 27 29 29 38 41 49 60 65 61 54 70 79 84 99 96
21 19 18 17 16 16 16 14 15 15 15 15 16 16 16 16 17 18 20 20 21 20 20 22 26 30 28 30 33 32 33 33 36 35 46 60 62 64 67 80 94 95 89
20 20 20 20 19 17 17 17 17 16 18 18 19 20 20 20 19 20 22 21 22 20 21 24 24 29 43 44 43 44 39 39 36 33 36 44 54 64 64 69 80 83 82
24 23 22 21 21 21 21 20 20 22 21 22 24 23 21 21 21 21 20 20 21 20 19 20 30 38 40 41 40 48 45 41 39 39 36 38 39 46 51 68 85 82 76
28 24 25 24 24 26 24 26 26 27 28 26 26 23 23 21 19 18 18 19 19 23 26 29 40 38 30 33 32 33 32 34 37 36 34 36 41 40 42 47 52 51 55
35 31 27 30 30 28 24 25 29 27 28 25 24 24 23 23 23 22 24 25 26 28 33 35 29 29 26 24 23 22 22 21 25 25 26 25 24 24 28 30 27 25 28
34 36 34 32 31 31 27 30 32 32 29 27 26 25 26 26 28 31 28 31 31 33 32 26 20 19 17 17 14 15 15 16 17 19 19 20 20 18 18 17 16 15 15
41 40 42 45 43 38 38 38 37 33 31 31 32 34 30 32 34 33 35 34 34 28 23 21 18 17 16 14 15 16 16 17 17 16 16 14 13 14 14 13 14 14 15
34 41 41 46 47 43 44 45 43 40 37 39 41 41 42 44 49 46 40 34 32 26 21 22 20 17 16 20 29 28 20 18 17 16 16 15 14 14 14 14 14 17 18
47 50 56 40 44 48 54 51 42 44 44 45 48 49 53 52 50 47 43 34 34 30 27 28 25 22 20 21 19 18 19 20 19 18 17 18 17 17 16 16 16 18 21
58 61 52 49 57 71 64 52 55 58 66 72 70 77 69 68 60 51 52 47 39 36 31 30 29 26 25 26 28 28 26 24 20 18 18 17 17 19 19 20 22 24 25
70 80 76 80 80 77 76 67 63 82 86 73 74 67 72 66 68 63 66 57 51 62 62 64 54 42 38 36 37 34 29 32 34 27 21 18 18 19 22 24 26 27 28
85 94 94 91 84 72 65 66 75 78 82 71 71 71 62 48 51 69 76 78 79 69 72 72 59 52 48 48 43 35 30 33 35 33 30 29 25 22 22 23 28 31 36
96 89 94 87 83 73 64 64 52 51 64 57 64 60 66 59 53 73 68 80 91 91 86 98 89 84 76 73 62 48 51 43 37 33 34 32 28 27 28 26 25 31 42
99 96 90 87 83 83 80 80 71 61 60 62 63 75 75 80 70 82 78 82 92 92 89 82 77 77 74 71 61 56 52 45 34 32 28 26 26 31 33 28 26 29 38
100 99 92 88 83 84 100 100 96 84 73 80 79 73 84 77 56 50 53 72 79 68 64 78 82 62 64 61 59 59 56 44 38 39 36 32 29 28 29 28 28 31 37
100 100 96 88 84 96 100 100 100 92 88 81 81 76 72 69 73 78 68 70 98 95 100 100 100 94 72 70 63 63 60 55 47 47 46 39 36 34 33 32 30 30 30
100 100 100 100 99 89 87 93 95 85 85 100 100 92 82 71 77 88 87 66 87 100 100 100 99 95 80 73 74 79 73 72 61 57 59 48 42 41 40 41 38 34 32
100 100 100 100 100 100 100 96 100 100 100 100 100 100 96 83 79 85 84 73 88 95 84 88 96 87 86 89 90 90 95 97 93 74 67 59 56 54 48 45 46 44 40

GFSSE_250_rhum_060.txt.gz
RH
28 26 24 24 24 22 23 26 24 22 20 19 18 17 17 17 18 17 17 16 16 16 16 14 14 14 16 15 15 16 17 21 22 25 39 47 59 61 51 43 40 36 32
30 29 26 28 26 25 24 23 22 21 20 19 18 18 18 19 20 19 18 18 18 18 18 17 18 19 20 19 18 17 17 18 19 19 25 31 52 54 52 50 45 37 35
26 25 27 26 22 21 21 20 17 16 16 17 20 21 20 20 19 19 18 18 18 22 23 19 20 20 21 22 21 21 21 21 21 27 30 30 28 33 37 37 37 31 33
22 21 20 23 21 19 16 13 12 13 12 12 12 13 15 15 13 12 16 18 22 25 28 27 26 27 27 29 32 32 30 27 27 29 28 30 35 39 40 36 33 30 32
16 18 18 18 17 15 14 14 13 12 11 11 13 13 12 12 12 12 12 12 13 15 17 23 25 26 26 29 29 29 30 32 32 38 39 36 34 35 34 34 33 37 39
14 13 14 16 16 16 15 15 14 12 12 12 14 13 11 11 12 12 12 12 12 12 15 17 17 17 18 20 18 17 18 20 22 23 28 28 35 38 44 43 44 48 60
17 16 14 13 12 13 14 14 14 15 15 15 14 13 12 12 12 12 12 12 12 12 14 15 16 16 17 18 18 20 20 20 22 22 22 25 26 27 25 27 30 29 34
24 20 17 15 14 14 14 14 14 13 13 12 13 12 12 12 12 13 14 15 16 16 16 16 18 18 18 18 19 20 20 19 22 25 26 25 29 35 35 34 31 33 32
24 23 21 18 18 17 16 15 15 14 14 13 13 13 14 14 14 15 15 16 17 18 18 18 18 18 19 19 19 18 18 19 23 28 29 33 31 35 40 42 39 38 37
28 27 27 25 23 22 20 18 16 16 16 15 14 14 16 16 17 18 18 19 19 21 21 19 17 17 17 18 17 19 21 26 27 28 30 30 34 34 42 39 43 41 39
36 34 31 28 25 23 21 19 19 19 18 18 18 18 16 16 19 22 22 22 20 20 20 19 18 19 17 17 21 26 31 33 30 25 23 25 26 26 27 27 28 29 28
47 53 60 47 32 28 24 22 22 22 22 22 22 22 21 21 21 21 23 22 22 20 19 17 18 18 19 22 27 34 33 26 22 20 19 18 18 16 16 16 18 20 21
57 62 69 70 61 52 43 34 28 25 26 26 26 26 23 24 24 24 22 20 20 20 20 20 19 23 26 30 29 27 24 22 20 19 17 16 15 14 14 15 16 16 17
73 78 70 58 46 38 35 33 30 30 28 30 33 32 28 27 29 26 23 23 24 23 24 26 28 29 32 30 26 28 26 21 21 19 17 17 21 25 22 19 18 17 16
51 45 42 40 37 34 32 31 31 30 28 27 30 34 34 30 34 30 25 26 30 29 30 36 33 38 35 34 34 27 27 25 23 21 19 20 21 19 16 17 20 22 22
54 48 42 40 35 31 30 31 32 34 32 30 32 30 31 38 35 32 35 35 36 39 42 47 45 44 40 37 35 33 29 26 25 23 22 20 20 22 23 22 20 20 19
68 49 44 41 44 45 40 46 43 46 36 37 39 43 46 43 43 49 51 50 55 58 58 62 56 49 41 43 40 42 44 41 35 31 31 34 36 35 33 32 25 21 20
72 62 52 54 57 54 53 54 58 64 66 65 61 59 57 59 69 76 71 70 68 62 56 50 52 56 51 52 50 46 43 46 44 41 45 36 31 29 31 35 34 31 29
79 70 70 68 68 69 74 71 71 79 87 90 80 84 90 88 83 80 77 73 70 64 60 50 61 68 79 88 75 73 71 72 67 57 51 52 50 42 36 31 28 28 29
78 82 72 77 78 70 72 78 76 81 94 97 100 100 100 96 92 86 75 59 59 58 53 49 47 47 59 70 73 74 82 75 72 66 63 54 50 46 39 33 32 31 27
99 100 100 94 94 84 93 91 91 97 97 99 99 97 100 98 88 81 60 75 71 70 65 60 45 40 45 54 65 60 53 50 49 47 53 57 59 61 50 41 41 40 38
100 100 97 98 100 98 97 100 100 97 98 100 98 97 91 84 83 84 76 72 70 87 81 82 63 58 53 49 45 51 56 50 43 44 49 57 64 69 66 67 64 53 50
100 100 100 100 100 100 100 100 100 100 100 97 99 93 87 80 78 84 82 81 88 90 87 80 80 86 74 72 58 48 51 52 52 53 51 51 56 61 59 74 74 67 59
100 100 100 100 100 100 100 100 100 100 99 96 92 85 88 88 80 76 80 85 95 100 98 94 93 94 96 92 87 83 72 74 69 71 75 68 68 64 59 70 79 81 67
100 100 100 100 100 100 100 100 100 100 100 100 100 100 98 92 93 83 88 99 100 95 94 94 100 100 95 86 84 83 91 91 87 92 99 95 90 87 71 84 88 86 68
100 100 100 100 100 100 100 100 100 100 100 100 100 100 100 98 94 100 99 98 100 99 94 99 100 99 94 86 84 81 93 100 100 100 100 99 100 92 95 98 98 93 85

GFSSE_250_rhum_063.txt.gz
RH
57 51 50 53 53 50 48 41 34 27 22 21 19 17 16 17 17 17 18 16 15 14 15 18 20 20 18 17 17 16 17 19 19 18 17 17 17 17 18 21 31 45 45
38 40 41 39 34 32 32 28 26 28 26 23 21 21 21 19 17 19 20 19 18 15 15 17 20 21 22 21 21 21 21 21 23 24 21 21 22 23 23 25 26 32 36
29 31 31 26 26 27 25 25 26 24 22 21 20 22 19 17 20 21 20 18 16 14 14 14 13 13 15 18 20 20 22 22 23 25 24 25 27 28 29 28 31 33 31
25 26 28 27 26 28 28 27 23 20 19 18 17 15 16 17 16 15 14 13 12 11 11 12 13 15 16 18 21 24 23 22 22 21 21 21 22 23 26 31 39 42 40
20 22 24 26 25 25 28 25 23 20 17 15 14 14 14 14 15 14 13 12 12 13 14 14 13 12 12 12 13 13 14 16 18 18 19 20 20 21 23 23 24 25 27
19 18 18 19 22 22 22 22 19 16 15 15 15 15 13 13 13 13 13 11 12 12 12 12 12 14 15 16 15 15 17 17 17 18 19 18 19 18 20 21 24 25 24
20 18 18 17 16 16 18 18 18 17 16 16 16 14 13 13 12 13 12 12 13 13 14 14 14 16 17 18 18 18 17 16 16 16 16 17 17 17 19 22 25 26 26
21 21 19 18 16 15 14 15 14 14 14 13 13 13 13 12 12 13 13 13 14 14 16 16 16 16 16 18 19 19 18 17 18 17 17 18 18 22 24 25 22 21 22
37 20 19 17 16 15 16 16 15 15 15 14 14 14 14 14 14 14 14 15 14 15 16 16 17 16 17 18 18 17 16 16 16 16 16 19 23 22 25 25 22 20 21
54 44 35 29 24 21 22 22 22 20 18 19 19 18 16 16 16 16 17 18 18 17 16 16 16 16 17 16 16 16 17 18 17 18 20 24 24 24 23 21 20 19 19
61 50 43 38 33 29 26 25 24 25 24 22 21 19 18 19 19 20 20 21 21 20 20 19 18 18 17 18 17 18 19 21 20 22 26 28 25 25 25 23 21 19 18
69 57 42 40 38 36 34 32 32 32 29 27 26 25 22 22 22 22 22 21 19 20 20 19 21 21 21 21 20 24 26 28 29 30 33 31 29 28 26 25 22 19 18
79 76 56 50 53 51 44 38 41 45 49 47 47 43 38 32 29 25 22 20 19 20 19 20 20 23 26 23 26 27 30 33 34 35 36 34 32 33 29 27 24 21 20
89 84 74 73 71 68 60 58 64 62 53 49 41 34 30 26 23 22 20 21 20 19 19 22 25 27 27 30 35 37 37 36 40 39 34 35 32 32 28 25 23 22 25
82 83 82 70 61 56 64 57 52 48 43 38 33 28 25 25 24 25 28 28 27 27 27 31 32 34 36 37 39 44 42 43 43 36 36 37 35 41 41 33 30 29 32
92 89 86 74 59 48 45 47 46 43 39 38 37 38 34 33 33 32 33 33 35 38 39 37 45 45 52 50 50 47 42 39 37 33 38 40 42 46 45 44 41 38 33
84 77 74 68 62 56 53 52 48 49 46 43 43 42 42 43 39 46 55 57 58 51 48 58 64 61 63 57 56 52 48 42 38 36 48 54 47 46 49 54 54 50 47
68 70 63 58 55 53 54 55 50 48 47 46 51 48 55 54 59 67 70 67 65 75 70 75 72 67 63 56 54 49 42 37 31 35 44 57 57 53 53 58 57 57 57
68 68 70 64 65 64 63 58 68 70 70 62 61 53 61 76 79 85 86 78 79 80 84 82 80 74 63 53 52 51 48 50 34 37 38 39 45 52 54 53 60 63 64
81 82 83 89 88 81 76 73 79 86 87 88 90 94 93 91 99 100 94 85 81 82 86 86 88 81 63 58 60 58 47 50 47 43 39 44 42 52 55 55 62 57 64
100 98 94 90 93 88 85 85 86 90 89 94 96 98 99 100 99 97 83 90 98 97 90 88 82 82 79 74 59 61 58 56 59 56 58 57 54 48 50 61 58 55 58
100 100 100 100 100 95 97 100 96 93 100 100 99 100 100 98 98 100 100 100 100 100 98 99 95 95 86 88 88 79 73 64 66 66 63 61 71 64 61 65 56 50 49
100 100 100 100 100 98 99 100 100 99 100 100 100 100 96 98 100 100 100 100 100 100 100 100 96 81 82 94 100 92 74 73 67 71 79 82 81 79 80 76 66 64 59
100 100 100 100 100 100 100 100 100 100 100 100 100 100 100 100 100 100 100 100 100 100 100 100 99 92 100 100 97 83 84 93 100 100 97 99 90 87 74 74 79 71 76
100 100 100 100 100 100 100 100 100 100 100 100 100 100 100 100 99 100 100 100 100 98 100 100 100 100 99 94 92 88 98 100 100 100 100 100 98 94 94 90 86 80 86
80 87 96 100 99 98 100 100 100 100 100 100 100 100 100 100 100 100 100 100 100 100 100 100 97 100 96 99 96 87 84 88 99 100 100 100 100 100 100 100 97 93 86

GFSSE_250_rhum_066.txt.gz
RH
61 63 64 64 67 65 56 50 54 58 47 52 42 31 23 19 17 16 16 17 16 15 17 17 16 15 13 12 13 14 15 19 20 20 22 22 21 22 21 22 25 26 26
69 71 66 67 68 64 62 57 54 49 43 34 26 23 23 21 18 18 20 19 18 18 18 16 12 11 11 12 12 14 15 16 17 18 18 19 20 21 21 22 24 24 30
53 51 57 55 52 49 49 48 43 40 35 28 24 22 20 19 18 17 18 17 14 13 13 13 12 12 12 13 13 14 15 15 16 17 16 17 18 19 20 20 21 22 23
33 32 35 39 39 38 35 32 25 24 24 23 22 21 18 15 14 15 16 13 13 13 13 12 12 12 13 13 14 14 15 16 16 15 15 16 17 17 17 17 18 19 21
27 25 26 28 33 34 30 27 28 28 27 24 22 21 18 15 15 15 14 13 15 15 14 13 12 13 13 14 14 14 15 15 16 17 17 17 17 17 18 17 18 17 16
26 24 22 23 24 26 27 28 27 26 28 27 28 21 18 18 17 17 17 16 15 14 13 13 13 13 14 15 16 16 17 17 16 18 19 18 16 16 17 17 17 17 20
26 24 22 21 20 20 22 25 25 24 26 27 22 19 19 18 18 16 15 14 14 13 14 14 15 15 16 15 15 15 16 16 16 17 15 14 14 15 16 17 20 23 24
23 23 22 22 20 19 18 17 17 19 19 20 18 16 15 14 15 15 15 15 15 14 14 14 15 15 16 16 16 15 14 16 15 15 17 16 17 17 18 19 20 24 28
19 19 19 20 21 20 21 21 20 18 16 16 16 16 17 17 17 18 16 16 16 16 16 16 17 18 19 19 18 17 15 16 16 16 16 18 21 23 24 24 24 27 29
21 18 16 16 24 28 28 25 23 20 20 20 20 21 21 19 18 19 20 19 19 18 18 19 20 20 18 16 16 16 15 16 16 18 19 22 24 26 26 29 32 29 29
32 37 32 31 34 44 47 40 35 34 28 22 22 21 22 23 23 23 23 22 21 21 23 24 24 21 18 17 18 17 17 19 20 21 19 22 26 28 31 36 34 33 34
44 45 48 49 53 54 55 51 44 38 35 32 31 32 31 30 30 35 34 37 37 35 31 25 21 20 21 21 21 20 23 22 25 25 26 26 25 31 35 39 33 34 34
43 43 44 46 48 51 54 61 46 40 36 36 38 39 36 38 41 46 51 44 36 30 24 22 22 23 24 25 26 27 27 28 29 31 30 32 30 35 31 33 29 32 35
50 47 47 47 50 63 71 68 65 51 43 43 51 51 52 56 57 48 42 39 34 27 26 26 26 28 36 37 38 39 38 40 44 39 44 37 35 34 28 26 31 39 37
59 57 54 56 58 60 63 65 70 71 66 61 55 52 53 48 44 40 35 33 31 29 30 33 37 40 38 40 42 40 49 55 52 50 48 42 36 32 29 27 32 42 44
62 58 59 64 64 64 64 70 77 79 75 66 56 50 47 43 38 35 33 33 35 36 36 34 41 43 47 47 43 55 58 61 62 61 47 41 38 36 35 33 34 37 42
76 65 70 68 68 72 78 85 84 77 69 64 60 55 51 45 41 38 41 42 42 40 37 41 44 53 56 58 60 71 69 65 64 56 47 44 40 40 36 37 36 44 44
88 83 74 71 86 91 96 89 77 66 63 60 57 56 53 48 42 45 50 48 49 51 52 54 59 70 80 72 76 76 73 69 67 59 57 51 44 42 42 40 38 42 49
94 99 98 93 90 84 77 68 65 64 64 58 55 56 56 60 58 62 62 61 61 65 68 72 88 96 95 88 76 76 73 75 72 60 55 52 52 48 51 48 47 48 51
92 86 93 98 99 86 77 75 71 65 65 65 70 77 77 74 72 77 73 63 66 70 80 85 99 98 88 86 84 96 92 88 76 67 70 63 56 62 64 63 59 64 63
98 95 81 77 84 88 91 84 87 83 83 81 75 83 85 83 80 74 71 65 74 92 100 100 100 100 100 100 100 100 100 97 87 76 86 77 77 74 76 76 76 74 70
100 100 100 94 99 96 93 94 91 90 94 95 92 93 99 87 80 74 88 96 96 100 100 100 100 100 100 100 100 100 98 98 90 86 84 82 86 79 89 92 100 92 72
100 100 100 99 96 85 84 83 96 99 100 100 100 100 97 98 100 99 99 95 94 90 93 97 100 100 100 100 98 94 99 99 98 100 96 86 79 100 100 100 96 94 92
100 100 100 100 100 99 95 93 98 100 100 100 100 100 100 100 100 100 100 100 100 100 100 99 100 100 100 100 100 97 90 96 95 94 84 77 98 93 98 100 100 100 100
100 100 100 100 100 100 100 100 100 100 100 100 98 96 100 100 100 100 100 100 100 100 100 100 100 95 88 89 97 100 100 100 99 100 88 100 100 100 100 100 100 100 100
100 100 99 96 97 97 100 100 100 100 100 100 100 100 100 100 100 100 100 100 100 100 100 100 100 100 100 100 100 100 100 100 99 99 100 100 100 100 100 100 100 100 100

GFSSE_250_rhum_069.txt.gz
RH
31 30 43 45 40 42 62 78 81 79 71 62 74 80 73 61 55 32 22 17 17 16 16 17 18 14 12 11 11 11 12 11 11 11 10 12 13 13 14 15 16 17 17
35 52 60 64 60 66 52 50 61 66 67 63 60 66 50 36 23 21 21 18 16 15 14 12 11 11 11 11 11 11 12 12 12 13 14 14 14 15 15 17 18 18 18
43 47 60 63 69 67 63 58 56 55 53 52 52 45 35 27 25 21 17 16 12 13 14 12 14 13 13 12 12 12 12 12 13 14 14 15 16 16 16 17 18 17 16
50 61 70 69 65 62 58 54 54 54 50 42 38 32 24 23 21 18 15 13 12 13 14 14 16 15 14 13 12 13 13 13 13 14 15 16 16 16 16 16 16 14 14
40 56 62 52 46 45 46 46 41 36 31 27 24 24 24 21 18 15 16 16 17 17 17 16 15 13 13 13 13 13 14 15 16 16 16 16 15 15 14 14 14 14 15
36 45 48 33 30 33 32 33 30 28 26 25 25 26 24 20 19 19 19 20 19 18 16 14 14 15 14 15 15 15 16 17 16 16 15 14 14 15 15 14 14 15 18
35 36 41 30 25 25 26 30 28 26 25 24 24 24 24 23 25 22 19 17 16 16 16 16 16 16 16 16 15 17 17 18 19 18 17 15 14 14 14 15 16 16 20
31 33 34 31 26 24 21 21 23 24 25 25 24 23 24 25 23 20 17 16 16 16 18 18 18 18 18 17 18 19 21 20 18 16 16 15 15 15 14 15 17 21 23
26 26 28 30 27 25 24 22 22 20 19 20 19 19 18 18 18 18 17 17 18 18 18 20 21 20 20 20 22 24 24 22 19 18 18 18 17 16 16 18 24 27 26
26 25 25 26 24 23 23 24 24 24 22 21 22 23 23 23 22 21 21 23 22 22 23 24 28 28 30 34 33 28 24 20 19 18 20 20 22 24 26 29 33 31 29
23 24 24 25 23 21 20 19 19 25 39 40 42 38 42 37 31 29 28 30 30 30 33 37 36 39 39 35 30 25 22 21 21 23 22 23 27 32 32 34 43 37 28
24 24 23 22 22 23 26 28 29 32 36 42 50 55 46 40 37 35 36 39 39 36 40 43 44 43 40 34 28 24 24 22 24 27 26 26 30 30 35 49 41 34 32
28 27 26 23 22 28 34 38 43 48 48 48 48 57 59 48 40 38 40 43 44 42 43 46 43 36 32 30 27 26 26 24 25 28 30 32 33 36 48 50 45 37 36
34 32 30 27 27 32 42 45 44 44 45 46 55 58 61 63 63 57 57 55 47 46 42 39 34 32 31 28 28 28 29 30 32 32 36 41 47 57 50 44 41 42 39
38 37 35 35 32 35 40 41 45 46 49 55 56 59 60 66 70 71 66 58 50 45 43 39 37 33 35 32 32 34 38 39 40 45 52 50 60 58 57 50 51 44 42
43 57 65 69 50 39 40 45 56 59 61 65 65 62 67 73 65 65 62 55 48 41 39 40 37 36 32 36 41 47 46 51 56 61 70 66 62 60 59 62 50 50 48
69 82 84 83 80 72 65 59 62 66 70 70 70 73 82 83 78 65 54 47 43 41 41 43 42 43 47 47 57 54 59 72 79 76 69 76 71 74 70 62 60 58 50
62 62 63 70 79 87 87 84 93 85 78 80 91 85 83 79 66 54 48 48 48 50 47 48 48 46 48 54 67 73 78 78 83 87 78 79 77 72 65 67 68 61 57
90 92 96 98 99 100 95 88 80 77 74 76 81 76 67 61 56 55 53 57 63 62 61 59 56 58 68 72 72 84 92 79 93 100 96 95 97 97 83 82 67 72 73
100 100 100 100 100 95 91 80 76 77 73 70 70 67 62 68 67 58 64 73 68 74 65 63 73 78 79 81 87 100 99 100 100 100 100 100 100 95 85 78 84 94 94
100 100 95 94 91 82 78 80 84 74 70 82 82 83 86 90 88 84 77 74 78 76 79 76 86 91 94 100 84 76 97 100 100 100 97 96 88 82 82 99 90 100 93
100 99 100 99 100 98 95 100 99 92 97 90 89 86 88 83 76 82 80 84 80 81 88 95 88 93 96 95 100 99 100 100 100 100 100 100 100 100 98 94 94 95 99
100 100 100 100 100 100 100 94 100 100 100 96 98 92 81 76 78 79 80 83 83 92 96 99 100 100 100 98 100 95 100 100 100 100 100 100 94 91 92 83 96 100 98
100 100 100 100 100 100 100 100 90 89 93 91 83 81 80 72 78 79 92 99 88 86 98 92 100 100 100 100 98 100 100 100 100 100 98 100 100 100 99 100 100 97 99
100 100 100 100 100 100 100 95 94 82 80 74 66 64 58 67 76 86 83 86 89 87 100 100 100 100 100 100 100 100 100 100 100 100 100 100 100 100 100 100 100 100 100
100 100 100 100 100 100 100 97 87 73 73 81 75 72 73 66 66 79 89 88 77 89 100 100 98 100 100 100 100 100 100 100 100 100 100 100 100 100 100 100 100 100 100

GFSSE_250_rhum_072.txt.gz
RH
19 18 21 24 28 25 27 52 85 86 79 67 77 71 76 86 94 93 76 42 26 22 18 18 17 16 12 11 12 12 11 10 10 11 11 11 12 12 13 15 15 15 16
25 25 26 27 26 24 25 25 53 73 90 79 93 86 74 71 84 75 38 26 22 22 19 17 12 10 11 12 12 12 12 12 12 12 12 13 14 14 15 16 16 16 16
28 32 32 31 31 28 30 32 38 59 72 76 80 84 76 66 56 34 27 25 22 18 14 11 12 13 14 14 12 12 12 12 13 13 13 15 14 15 16 15 14 14 14
33 35 32 33 33 38 52 50 54 60 58 60 61 60 58 54 45 34 25 21 18 14 12 14 15 16 16 13 13 13 13 13 14 14 15 15 17 18 18 18 15 15 14
44 43 41 35 34 44 53 56 60 60 58 56 53 43 31 25 23 24 22 19 17 15 15 17 16 15 13 13 14 16 16 16 16 18 20 20 20 19 17 16 15 15 14
46 44 43 47 51 50 54 50 45 44 42 36 30 27 26 26 28 25 21 19 18 17 17 17 15 13 13 17 17 18 18 18 18 19 20 22 23 22 19 16 17 17 16
50 43 44 45 60 58 44 34 32 29 28 29 29 28 27 26 24 23 24 21 19 19 17 14 14 17 19 20 19 21 21 22 23 26 26 26 26 21 17 17 17 18 21
42 40 40 38 44 52 34 26 26 27 28 28 26 24 23 22 22 21 19 17 16 16 17 18 20 23 23 23 25 29 31 32 34 34 32 28 25 22 20 18 19 21 22
41 37 39 37 35 38 39 29 26 23 21 20 20 20 19 19 19 18 18 17 18 19 20 21 24 26 28 29 33 36 39 37 38 38 34 27 24 21 19 20 19 23 27
42 38 36 35 34 34 34 32 28 26 24 22 22 21 22 21 22 26 31 28 36 35 32 31 32 36 38 36 37 38 37 38 38 31 28 25 24 22 22 22 20 26 30
37 35 33 32 30 29 29 28 28 28 25 23 22 24 26 36 40 41 54 55 49 43 41 38 35 37 42 42 41 40 37 32 30 29 26 26 24 23 25 27 29 35 41
32 31 31 29 26 26 27 27 28 26 24 22 21 22 31 46 53 55 54 55 58 58 54 48 47 50 51 45 42 37 35 32 31 30 28 28 26 27 31 36 39 47 45
36 34 33 31 28 26 27 25 27 26 25 27 36 46 49 49 49 48 49 52 51 50 46 50 53 53 53 47 39 36 34 31 32 31 29 32 33 36 39 45 50 50 49
38 37 37 34 33 29 29 31 28 27 25 28 41 49 49 49 48 49 51 50 50 50 51 58 60 58 51 42 36 34 33 32 35 34 32 33 34 39 46 53 56 56 58
45 41 35 33 34 35 35 33 31 30 32 33 35 42 44 54 62 60 58 57 55 52 56 59 63 56 45 39 36 37 39 40 39 37 36 38 42 49 62 63 60 64 68
54 46 38 38 37 38 38 38 37 36 39 43 37 38 43 53 60 61 59 63 61 62 66 66 59 50 41 39 39 46 51 45 41 44 54 54 64 59 64 77 68 70 64
63 55 47 40 41 39 39 39 40 41 60 76 74 74 78 74 77 79 73 66 65 62 68 61 50 43 42 42 49 56 56 52 55 54 57 74 75 81 79 78 85 88 96
62 66 62 56 53 47 46 44 44 69 89 85 76 80 83 80 80 72 62 63 60 54 53 48 45 43 47 61 54 58 57 60 69 72 74 94 72 82 93 100 100 100 100
66 66 66 64 60 58 60 67 73 78 75 70 80 83 83 78 69 67 63 60 57 50 47 44 46 54 59 61 57 67 74 80 72 86 86 80 92 98 100 98 96 92 84
70 64 64 60 57 67 66 76 83 79 86 85 84 80 81 76 74 69 62 60 53 53 51 57 61 63 64 66 75 75 88 89 100 100 95 91 81 92 100 100 99 100 100
100 92 88 100 100 100 98 100 89 97 100 99 91 93 89 80 71 73 73 62 70 66 66 68 64 65 70 67 74 86 92 98 95 100 99 100 100 91 100 100 100 100 100
100 98 100 100 100 100 100 100 94 90 97 100 100 97 83 81 80 78 77 77 65 63 63 67 61 61 60 64 84 90 75 80 100 100 100 100 100 100 96 100 100 100 100
100 100 100 100 100 99 97 99 100 100 100 100 100 100 94 86 80 82 76 75 66 63 58 59 61 62 76 77 77 84 82 81 86 100 100 100 100 100 100 100 100 100 100
100 100 100 100 100 100 100 100 100 100 100 100 93 91 90 93 75 73 82 79 80 68 67 74 72 78 79 87 95 100 83 94 100 100 100 100 100 100 100 100 100 100 100
100 100 100 100 100 100 100 100 100 90 100 100 96 89 86 79 85 90 73 69 69 67 70 77 72 74 97 98 98 96 83 99 100 100 100 100 100 100 100 100 100 100 100
100 100 100 100 100 100 99 100 100 96 85 92 98 92 81 82 72 75 62 56 60 62 69 72 68 65 72 74 73 84 68 71 80 97 99 100 100 99 99 100 100 100 100

GFSSE_250_rhum_075.txt.gz
RH
31 28 29 33 34 41 60 38 62 75 100 100 85 73 69 76 68 69 79 99 82 61 42 28 31 22 17 13 11 11 12 11 10 11 11 12 13 13 14 14 16 17 18
32 29 24 27 34 35 37 34 31 37 48 76 84 100 89 83 96 88 80 92 77 53 30 24 21 17 12 11 12 14 12 12 12 14 15 16 16 17 18 18 19 19 19
35 30 23 20 24 28 28 28 26 24 26 58 64 94 97 99 99 91 75 57 54 35 26 20 16 13 12 13 14 13 13 13 14 16 18 19 20 20 20 20 21 23 24
36 32 24 20 22 24 25 26 24 24 28 35 53 79 84 79 80 69 60 54 44 29 21 18 15 14 15 15 14 13 15 17 18 19 20 20 22 23 25 26 29 29 24
35 32 25 22 25 30 35 40 43 46 48 54 58 67 66 64 57 48 34 26 22 22 19 17 17 17 16 14 14 16 18 20 21 23 26 30 31 32 33 35 30 26 24
37 35 31 26 27 34 44 44 50 58 63 62 62 60 52 44 32 27 27 28 26 24 21 21 18 15 14 15 16 18 22 24 27 30 33 34 32 31 34 35 31 26 22
54 44 42 42 41 43 47 46 55 54 49 43 38 35 31 28 27 26 24 24 23 22 20 17 15 16 17 18 23 28 30 35 35 36 38 35 34 34 30 27 24 23 22
60 60 53 52 51 53 56 59 58 43 33 29 28 28 28 27 26 25 23 21 19 17 18 20 21 27 34 33 34 33 36 39 44 41 38 36 33 31 29 27 26 24 22
52 57 56 53 53 50 45 52 57 37 28 26 25 24 23 22 21 21 20 21 21 25 34 36 43 44 42 42 42 41 43 45 46 43 38 35 32 28 26 24 26 28 24
43 52 56 53 52 48 41 39 40 43 34 30 27 26 24 24 23 24 24 24 29 30 32 45 46 53 56 53 50 47 45 48 44 43 36 32 29 28 26 25 26 26 29
50 53 52 53 53 47 43 37 35 35 34 33 30 30 28 26 25 23 22 21 26 40 45 45 49 50 48 46 43 39 40 42 46 42 36 31 28 28 30 30 28 28 34
58 57 51 50 49 44 39 36 33 32 32 32 30 30 27 25 24 28 35 39 42 45 46 48 48 50 48 47 45 40 44 48 48 39 36 32 29 32 36 34 37 34 40
50 46 48 40 41 42 37 34 33 32 30 30 30 29 27 26 27 28 34 44 47 46 47 54 56 54 52 45 45 46 50 51 43 37 34 32 34 38 36 37 42 46 53
53 47 50 48 43 40 38 35 35 34 35 35 34 34 32 29 29 30 31 34 39 40 44 54 59 60 59 52 48 49 50 46 38 35 32 35 37 38 40 42 46 60 62
98 68 61 59 49 42 42 38 37 38 37 37 35 38 39 37 37 36 42 44 45 57 70 74 70 68 58 51 49 49 44 38 32 34 38 42 43 42 48 56 63 75 72
92 88 68 65 63 58 53 50 48 49 48 48 46 40 40 40 42 46 71 88 86 76 74 72 72 63 54 50 50 44 39 34 38 41 48 45 49 53 59 68 70 76 93
74 71 67 64 66 60 56 56 62 60 58 51 47 42 41 41 44 56 94 85 72 71 70 74 60 57 51 42 37 35 40 42 46 49 54 51 58 56 60 78 90 83 94
72 62 60 62 63 64 66 61 60 67 62 56 52 48 47 50 62 76 82 74 73 73 79 64 58 49 45 44 39 42 49 52 48 53 64 64 63 76 76 72 89 92 93
86 70 65 65 66 66 68 68 66 64 60 56 55 55 58 64 63 66 60 69 86 85 74 62 53 49 49 44 54 50 61 56 61 61 63 69 78 88 91 76 81 100 99
90 88 77 70 74 70 73 78 74 64 66 66 67 67 62 59 56 71 86 97 90 82 72 64 60 58 56 57 57 62 61 63 63 68 71 73 81 91 96 94 90 89 100
93 92 91 91 76 74 77 77 76 74 70 70 69 80 78 80 89 94 100 94 86 79 80 85 73 65 73 71 66 65 65 66 71 69 67 77 89 97 100 92 100 100 100
100 100 99 86 88 85 79 78 76 75 85 94 99 100 93 99 100 100 100 91 88 83 78 84 80 83 78 74 70 67 67 71 67 68 67 86 100 100 100 100 100 100 100
100 100 100 96 92 96 94 88 87 95 100 100 100 100 100 100 100 100 100 100 96 89 84 77 81 89 84 75 75 72 58 69 68 71 74 94 98 99 100 100 100 99 100
100 100 100 100 100 100 100 100 100 100 100 100 100 100 100 100 100 100 100 100 94 88 82 83 97 91 76 77 70 70 66 68 58 62 59 75 78 76 84 96 89 100 100
100 100 100 100 98 95 98 98 100 100 100 100 100 100 86 100 100 98 94 94 90 85 84 96 92 84 77 66 55 57 66 55 56 52 49 52 61 68 83 80 79 88 99
100 100 100 100 99 95 95 100 100 100 100 100 98 100 98 83 92 88 76 73 72 69 82 79 74 70 65 56 50 50 56 56 73 79 89 91 94 98 100 100 100 100 100

GFSSE_250_rhum_078.txt.gz
RH
39 35 29 26 24 23 25 33 41 41 77 99 100 90 79 76 71 69 72 76 68 68 89 86 57 40 32 20 16 12 13 13 13 12 14 15 16 18 20 25 27 27 27
40 38 32 28 27 27 31 39 41 25 89 93 91 95 75 100 100 98 87 75 87 83 78 65 43 32 21 16 13 13 14 13 12 14 15 17 19 22 27 30 30 26 28
40 37 34 31 28 28 32 44 48 54 43 39 44 56 60 77 61 100 100 100 90 74 58 50 40 26 18 15 14 14 14 12 13 16 20 24 27 30 32 33 30 31 30
41 38 35 34 30 24 26 33 36 37 35 29 26 29 51 67 74 92 88 85 76 70 61 44 27 20 18 17 16 14 13 15 19 25 30 34 35 35 35 35 33 32 30
42 36 32 36 30 25 22 27 29 28 29 31 31 32 42 53 68 75 77 64 50 39 30 22 23 21 19 16 15 16 22 30 33 32 34 35 38 40 38 36 33 32 28
46 43 41 39 32 26 26 30 36 37 44 41 40 45 56 60 65 62 50 42 34 26 25 23 22 21 16 18 21 31 35 38 39 40 41 42 43 41 38 35 32 28 24
47 50 47 40 35 27 32 41 48 55 54 59 66 67 64 61 52 37 31 27 25 23 22 20 19 20 26 33 30 38 43 42 44 43 40 42 42 38 38 36 30 27 25
61 61 60 45 42 34 36 48 48 49 66 66 56 46 39 35 33 29 27 26 25 21 20 21 22 26 30 40 39 42 43 45 45 42 40 38 38 40 40 35 32 26 29
76 72 72 58 50 53 52 53 56 59 60 57 41 30 28 27 27 24 22 22 22 22 23 23 24 33 44 44 44 47 49 45 46 44 40 38 38 38 38 35 30 26 31
88 86 84 69 71 67 60 57 59 58 61 58 42 31 29 28 27 26 27 26 26 25 22 21 40 47 46 46 50 53 50 51 51 40 38 35 37 39 35 30 27 28 32
84 93 89 78 72 72 64 57 55 47 44 47 46 42 38 35 34 32 31 28 25 23 23 31 43 47 45 44 42 51 52 56 46 40 38 38 39 38 30 27 30 34 38
72 87 88 85 75 68 65 56 55 50 44 40 38 37 37 36 34 33 31 27 26 24 26 31 31 34 38 41 59 60 61 50 47 44 42 39 34 30 27 27 36 37 39
75 88 98 89 81 65 62 57 55 53 46 42 38 33 31 30 29 27 26 27 27 30 30 33 38 48 54 68 65 61 56 53 46 45 40 35 28 28 30 35 37 43 49
72 70 81 89 81 72 71 65 57 52 45 40 38 35 32 29 30 31 32 33 34 34 35 38 45 61 71 66 61 53 56 51 45 40 38 36 33 35 38 40 46 53 60
78 86 86 95 94 84 79 70 60 53 47 43 38 37 36 33 36 38 40 42 40 39 40 40 43 61 70 64 56 58 56 50 41 38 35 39 44 48 49 55 62 63 64
70 76 95 100 99 89 86 78 71 63 52 47 44 46 52 50 50 52 49 45 42 41 41 47 52 55 52 58 57 55 50 44 39 40 43 46 51 56 54 61 61 71 70
80 86 88 91 97 90 81 75 72 71 72 62 59 57 57 59 63 61 53 52 50 49 54 59 53 56 75 67 66 56 49 47 49 51 54 60 56 56 63 65 66 69 68
74 71 80 92 100 100 100 98 93 81 85 80 77 66 66 69 68 64 60 60 64 65 65 60 68 92 80 68 59 51 49 54 56 58 64 60 62 64 72 71 74 69 75
81 93 80 86 92 98 96 95 97 93 84 76 72 69 71 74 70 68 69 75 75 68 63 76 100 87 73 72 66 69 67 66 64 63 70 72 74 68 57 60 77 85 85
72 86 98 94 94 94 93 94 89 80 75 75 76 78 79 75 80 83 83 80 77 77 96 100 100 93 97 83 84 86 78 71 69 73 75 80 70 61 52 65 84 84 92
100 77 82 97 100 99 100 97 93 89 84 86 84 83 86 81 88 91 85 88 88 100 100 100 99 100 98 92 90 84 83 73 78 73 89 75 61 51 54 71 81 78 83
100 100 99 97 100 100 100 100 100 97 95 92 90 87 88 88 85 91 96 93 99 100 96 94 100 100 94 93 88 89 79 87 96 83 70 64 52 52 59 68 68 67 80
94 100 100 97 81 83 92 99 100 100 100 100 99 98 97 100 98 94 99 99 100 94 99 97 90 100 100 98 95 81 83 85 83 68 63 50 44 46 47 53 66 90 97
100 100 100 100 100 89 82 85 91 100 100 100 100 100 100 100 100 100 100 100 100 100 97 100 100 100 100 91 86 93 86 77 72 58 49 46 45 46 55 91 100 100 100
100 100 100 100 100 100 100 100 92 91 99 100 100 100 100 100 100 100 100 100 100 95 99 100 100 97 96 79 98 85 87 67 54 46 46 47 53 56 54 44 50 59 73
100 100 100 100 100 100 100 100 100 100 95 88 86 86 89 92 93 95 92 94 98 100 100 100 100 94 97 98 88 85 70 54 45 40 40 53 50 28 26 25 28 33 54

GFSSE_250_rhum_081.txt.gz
RH
45 58 55 49 38 30 27 29 27 35 38 50 77 76 88 100 92 79 96 86 76 70 80 61 61 72 60 43 32 17 15 14 13 13 12 14 21 28 31 31 33 32 31
36 49 53 45 38 30 24 22 21 31 29 39 61 78 99 98 100 100 85 100 100 100 90 95 77 62 48 34 23 18 16 15 14 14 19 24 30 33 33 34 34 33 35
38 39 47 44 35 31 27 24 22 24 27 30 35 51 100 81 70 63 67 72 66 99 97 88 72 61 45 28 20 18 17 14 16 22 26 30 35 38 36 32 34 38 39
38 40 43 40 37 33 29 26 25 28 36 50 50 34 51 40 46 44 62 67 77 80 88 77 57 36 26 23 21 19 15 18 20 26 34 39 41 39 34 35 38 40 38
43 45 44 42 39 36 32 28 26 28 37 46 50 51 39 29 33 38 65 62 76 79 60 45 35 25 24 22 19 18 21 23 29 39 42 44 41 36 36 36 37 36 39
51 49 46 42 39 36 35 31 26 23 31 34 34 32 34 40 41 41 47 60 61 47 32 31 26 24 21 18 20 22 24 34 41 48 49 45 45 39 38 38 36 38 35
60 56 50 46 41 38 37 34 30 32 33 34 39 44 48 50 52 53 58 54 46 35 29 25 21 19 20 22 23 27 35 42 46 50 55 51 50 43 39 38 37 32 30
62 62 57 51 47 42 41 38 39 37 38 43 49 48 57 60 59 54 49 43 33 25 22 20 21 25 24 21 31 38 44 44 42 52 54 52 48 42 39 40 36 29 24
75 70 70 61 58 55 48 42 39 41 48 52 61 66 64 54 41 34 30 27 24 23 25 26 26 24 22 28 32 38 39 39 50 58 53 52 49 44 39 38 34 32 29
72 75 80 71 71 72 56 52 45 39 44 59 68 67 56 39 30 28 27 26 28 29 30 29 27 26 25 25 29 31 44 61 60 56 54 50 48 45 37 34 33 33 32
66 82 85 84 83 83 72 57 55 55 56 60 63 63 62 47 35 34 34 35 36 34 34 31 28 27 29 33 34 36 47 57 65 58 51 48 43 38 36 33 34 38 38
65 74 84 91 93 94 82 71 69 63 63 61 56 49 48 47 44 40 38 37 36 34 33 30 30 34 38 38 39 41 45 55 54 49 51 45 40 37 34 37 42 46 46
69 78 84 91 95 96 93 79 74 69 65 61 57 52 45 42 41 38 36 35 33 31 33 33 35 40 41 39 40 46 52 51 46 56 45 43 37 38 39 46 53 53 49
71 70 79 87 92 96 97 95 83 75 67 69 65 56 50 45 42 38 34 34 32 31 34 37 44 44 44 40 47 52 56 54 56 50 45 39 41 42 52 54 58 53 57
86 84 77 77 82 100 97 100 99 86 75 72 75 65 56 48 44 40 37 35 34 39 44 51 51 48 47 49 52 58 63 57 54 53 41 44 45 50 61 64 57 56 63
99 98 92 75 83 82 99 100 100 100 93 86 85 76 67 60 56 54 47 42 43 52 57 57 55 51 49 56 61 64 60 61 58 55 51 48 50 65 66 63 59 67 69
74 96 99 91 83 88 90 100 100 100 100 99 98 91 81 78 75 71 56 55 63 64 61 60 58 58 62 66 63 67 60 64 63 56 55 65 74 76 69 63 68 76 62
88 99 100 100 89 84 92 95 100 100 100 100 98 94 88 81 78 78 80 78 76 73 72 68 71 75 74 71 82 66 71 85 71 60 68 76 78 75 64 74 85 65 52
90 96 100 100 100 100 98 100 100 100 100 100 100 97 95 95 96 91 92 86 76 75 74 78 82 86 79 90 80 81 80 69 71 78 75 88 79 76 80 87 72 58 46
80 82 93 96 100 100 100 100 100 100 100 100 100 100 99 100 97 90 81 78 78 82 84 89 87 82 91 87 80 84 82 88 84 95 93 83 83 82 96 75 61 46 45
97 94 85 100 100 100 100 100 100 100 100 100 100 100 100 100 98 94 86 84 83 85 86 88 99 100 96 81 89 84 92 93 96 91 89 84 82 99 83 62 49 42 43
94 100 100 100 100 100 99 100 98 98 100 100 100 100 100 100 95 91 94 93 85 93 96 100 100 100 100 99 98 89 94 99 93 90 84 87 98 79 64 54 44 45 56
100 100 100 100 100 100 100 96 96 99 100 100 100 100 100 100 100 100 100 100 100 100 100 100 100 100 100 100 100 87 84 92 96 86 78 93 80 64 54 42 49 51 47
100 100 100 98 100 100 100 100 100 100 100 100 100 100 100 100 100 100 100 100 100 100 100 100 100 95 95 98 89 87 89 87 82 83 100 84 65 56 42 49 37 27 22
100 100 100 100 89 93 100 100 100 100 100 100 100 100 100 100 100 100 100 100 100 100 100 100 100 100 99 91 94 96 84 87 89 87 84 68 56 43 37 31 20 19 18
96 100 100 100 100 98 98 97 100 100 100 100 100 100 100 100 100 100 100 100 100 100 100 100 100 100 99 100 100 98 93 89 94 87 69 54 38 31 31 26 30 29 32

GFSSE_250_rhum_084.txt.gz
RH
38 38 44 43 42 51 50 42 50 46 54 58 66 71 61 67 78 71 80 86 96 99 92 72 71 86 81 69 52 36 24 20 18 15 15 16 18 23 28 33 30 31 31
32 41 38 45 44 44 47 40 37 38 34 41 30 33 43 71 74 84 69 76 83 61 55 54 91 88 80 64 53 34 23 20 18 16 18 24 26 30 41 41 36 33 34
31 35 40 40 57 44 42 39 35 30 27 26 24 29 29 58 53 100 92 70 66 59 54 59 71 78 70 46 32 25 23 21 18 21 25 30 42 46 48 45 38 34 36
30 26 34 38 43 52 46 39 36 31 28 26 25 26 28 33 33 73 61 57 54 51 64 70 80 73 51 45 30 23 20 20 21 26 32 37 42 53 50 48 41 37 35
33 32 35 36 39 43 46 41 34 31 28 27 28 30 36 39 51 54 41 36 42 53 65 66 59 44 36 26 23 20 20 21 27 35 37 38 44 52 50 46 42 41 35
40 44 41 41 38 39 43 40 37 32 28 26 27 32 41 52 48 44 38 42 47 55 63 50 42 28 30 21 21 24 21 29 40 38 37 40 54 48 51 45 44 39 34
52 57 56 45 46 45 45 42 38 36 33 29 24 32 40 38 37 39 42 56 59 65 51 40 30 26 22 24 26 22 24 29 30 30 36 45 53 55 49 43 40 32 32
62 63 63 52 51 47 47 44 39 37 34 31 34 38 41 43 47 49 60 65 58 49 42 31 24 25 27 27 25 23 24 25 26 34 40 44 52 48 46 39 35 29 30
71 69 68 57 62 52 51 44 41 36 37 38 39 46 54 58 59 65 60 50 38 32 28 26 27 30 30 29 27 28 28 29 34 38 42 48 45 46 40 36 29 31 33
69 77 76 75 69 66 57 50 44 42 40 40 46 55 67 66 68 64 47 33 30 28 30 32 34 35 33 30 29 31 31 34 36 43 45 44 45 41 37 31 33 36 40
71 80 87 84 76 73 67 61 51 49 44 41 48 60 64 64 66 59 46 36 34 34 36 37 37 35 33 31 30 32 33 37 38 45 48 43 47 39 34 37 35 42 50
71 77 81 78 82 81 74 69 63 58 57 52 47 53 58 67 65 64 58 50 44 40 38 38 38 36 35 34 34 35 40 43 42 49 47 48 44 37 34 42 41 50 62
72 70 80 88 88 87 80 81 74 78 70 61 64 64 60 60 56 51 47 45 43 41 39 38 38 35 34 40 39 45 47 49 46 53 54 48 41 36 40 44 53 63 64
70 72 75 86 93 92 85 82 80 85 86 71 75 71 67 67 63 59 56 55 48 44 43 40 38 38 41 44 52 56 60 58 60 61 52 46 42 44 49 54 69 65 74
74 67 72 78 89 93 96 90 84 87 96 94 82 75 70 69 64 62 59 60 57 50 48 46 43 43 41 52 58 62 66 70 65 62 50 48 49 56 64 71 67 74 72
100 97 79 76 84 90 92 93 92 93 98 100 99 93 81 74 69 70 67 67 66 59 60 58 56 50 56 61 62 70 72 68 70 56 54 53 57 70 81 76 78 81 76
100 100 100 90 83 82 89 92 92 92 96 95 100 97 98 97 95 90 89 85 74 67 73 72 70 75 74 67 68 73 72 74 60 59 66 66 77 82 85 81 83 74 68
100 100 100 100 100 100 87 93 92 88 88 96 100 100 99 100 100 100 95 85 80 83 77 78 86 82 72 70 72 78 76 65 72 78 78 88 87 89 79 75 76 70 69
94 100 100 100 100 100 100 100 100 100 94 99 98 95 94 100 98 95 88 88 97 99 96 92 88 82 80 78 82 80 76 82 82 83 81 90 86 76 74 79 76 72 70
90 73 100 100 100 100 100 100 100 100 100 100 100 100 100 100 100 100 100 100 100 100 100 95 94 86 80 80 80 80 89 91 90 88 88 85 80 75 77 81 77 72 71
100 70 74 97 100 100 100 100 100 100 100 100 100 100 100 100 100 100 100 100 100 100 99 98 95 85 86 86 84 90 94 99 95 86 93 89 86 85 85 77 79 74 68
100 100 74 72 90 100 100 100 100 100 100 100 100 100 100 100 100 100 100 100 96 99 100 86 87 86 87 80 90 100 100 100 100 97 100 93 87 83 81 79 74 68 57
100 100 97 90 67 92 100 100 100 100 100 100 100 100 100 100 100 100 100 100 100 98 94 92 82 93 100 100 100 100 100 100 100 100 98 88 81 82 77 74 69 60 44
100 100 100 98 100 96 89 99 100 100 100 100 100 100 100 100 100 100 100 98 95 96 94 100 100 100 100 100 100 100 99 93 99 96 100 91 89 86 82 74 61 48 38
100 100 100 100 100 100 97 98 100 100 100 100 100 100 100 100 100 100 100 100 100 100 100 100 100 100 100 100 100 100 100 97 100 96 89 99 95 94 84 75 59 45 34
95 100 100 100 100 100 100 100 100 96 93 97 97 98 100 100 100 100 100 100 100 100 100 100 100 100 100 100 100 100 98 100 98 94 98 100 94 93 79 60 47 46 40

GFSSE_250_rhum_087.txt.gz
RH
32 30 28 28 26 27 42 54 58 58 46 54 53 49 60 72 64 68 68 74 80 69 85 87 66 52 60 83 74 65 48 32 25 21 20 21 22 20 29 36 41 38 35
30 31 33 31 28 27 34 47 50 58 49 53 62 49 53 57 49 48 58 87 100 78 68 64 52 52 58 68 71 52 37 28 24 22 20 26 21 28 34 38 33 39 36
30 28 28 34 34 33 35 41 45 54 54 45 40 46 34 39 38 28 41 80 97 91 72 60 46 56 55 75 66 56 46 25 21 21 23 26 30 32 33 42 42 41 37
30 28 27 31 41 41 43 42 34 39 39 40 36 30 29 27 23 26 40 39 48 54 48 51 56 68 68 63 58 39 22 23 21 24 23 23 29 32 36 41 45 40 35
33 32 30 31 34 43 44 48 42 38 37 39 37 32 28 27 25 29 33 41 45 51 38 49 55 64 48 40 28 23 26 24 20 22 23 24 26 30 40 42 43 38 32
34 32 32 28 32 37 45 42 39 48 45 38 32 32 29 30 33 41 50 52 52 46 41 54 52 55 40 30 23 24 25 23 23 23 24 27 35 30 43 41 40 36 33
49 41 42 38 39 42 41 46 40 40 44 39 35 30 28 26 34 45 47 48 50 47 52 58 65 44 30 24 26 27 26 25 25 27 28 32 33 33 40 41 40 35 34
54 49 53 53 48 52 46 46 43 42 41 38 36 34 31 29 35 46 49 53 58 62 66 59 48 33 27 27 28 29 28 28 27 27 30 30 33 34 42 41 38 36 36
50 55 61 62 56 58 55 51 46 44 42 40 38 36 35 40 43 53 59 64 70 60 46 38 31 28 31 33 34 33 31 29 27 29 34 32 33 35 39 44 40 41 39
42 60 69 74 68 66 62 59 51 48 46 42 41 40 44 45 48 63 70 76 68 46 34 32 31 34 36 35 35 32 30 28 29 34 34 36 35 40 44 46 43 44 44
53 61 74 72 78 74 72 65 58 55 48 46 42 44 44 50 62 77 79 67 56 47 42 37 37 40 39 35 35 33 32 30 33 38 38 43 42 44 50 47 47 46 50
78 57 76 69 73 75 75 70 72 61 56 53 45 47 47 51 60 76 72 66 61 57 51 46 44 40 38 36 35 35 34 34 38 44 45 52 45 49 54 51 50 53 56
97 64 76 84 76 77 80 77 77 72 66 63 54 54 52 53 55 63 68 68 62 61 53 48 45 43 41 40 41 42 39 38 44 51 52 53 52 52 50 52 58 64 71
100 92 75 81 83 79 82 85 85 84 79 79 74 66 58 56 51 54 58 65 62 56 57 57 56 52 49 48 47 45 43 44 58 60 61 62 58 52 56 59 67 75 77
100 100 79 71 88 81 79 84 93 93 91 86 87 90 82 70 68 70 69 71 72 68 63 66 62 61 56 56 55 55 50 58 66 63 69 64 58 56 61 71 80 82 78
100 100 100 85 78 86 81 81 85 94 96 94 87 93 94 94 87 82 79 79 80 72 69 72 64 64 61 59 60 65 72 75 70 72 70 61 58 57 68 76 89 78 82
100 94 100 100 89 84 92 82 80 87 95 98 96 92 90 92 92 92 86 84 87 82 71 70 70 60 58 79 88 84 86 82 83 74 65 65 61 65 74 89 84 81 76
100 100 100 100 100 100 83 85 84 85 88 92 93 93 91 89 96 95 89 89 89 95 85 80 70 84 92 88 88 92 87 84 80 74 68 72 70 87 92 88 82 80 68
100 99 100 99 99 99 100 100 91 87 86 93 97 94 94 94 92 92 98 100 95 87 96 97 91 100 100 100 91 91 89 92 79 78 71 84 93 91 98 85 79 68 64
98 100 100 90 84 83 96 100 100 100 89 87 91 95 98 100 95 90 95 99 100 100 100 100 100 100 100 99 99 95 99 95 83 79 87 89 83 86 78 76 73 70 71
97 100 100 99 78 92 100 100 100 100 100 100 100 100 100 100 100 98 100 100 100 100 100 100 100 100 100 99 100 100 94 85 99 85 86 86 86 80 79 81 80 78 77
99 100 100 100 100 72 85 98 100 100 100 100 100 100 100 100 100 100 100 100 100 100 100 100 100 100 99 100 99 94 100 96 87 88 89 85 82 88 90 86 86 86 81
90 94 100 100 100 100 87 95 99 100 100 100 100 100 100 100 100 100 100 100 100 100 100 100 100 100 100 100 100 89 88 96 100 100 100 97 90 96 93 94 97 88 78
54 94 100 100 100 98 97 85 100 100 100 100 100 100 100 100 100 100 100 100 100 100 100 100 100 100 100 99 92 84 87 88 91 100 100 99 98 100 100 99 98 84 80
17 42 98 100 100 100 100 76 80 100 100 96 100 100 100 100 100 100 100 100 100 100 100 100 100 100 90 97 97 91 94 95 100 96 100 100 100 100 100 100 98 88 79
20 18 34 96 99 100 92 100 83 100 97 100 100 100 100 100 100 100 100 100 100 100 100 100 100 98 100 100 100 100 100 100 100 100 100 100 100 100 100 100 99 87 74

GFSSE_250_rhum_090.txt.gz
RH
31 32 32 31 33 41 50 49 42 53 63 58 49 40 32 32 43 44 58 62 65 66 82 84 82 70 58 53 60 63 70 58 36 28 24 22 21 19 23 23 21 28 33
29 32 32 30 28 34 42 45 36 32 52 58 56 48 44 46 45 51 50 51 57 56 99 86 89 72 64 55 66 71 74 50 46 31 22 22 20 19 21 24 23 34 35
28 29 30 31 30 28 31 38 26 28 40 52 56 54 42 46 54 44 39 38 37 43 58 78 61 59 61 53 70 65 60 54 28 24 23 22 20 20 22 27 30 36 35
33 31 30 30 31 30 29 31 27 29 30 47 49 55 54 45 42 32 29 29 33 44 46 49 44 45 53 57 66 51 41 27 23 24 22 21 22 26 26 29 33 33 35
40 38 32 31 30 30 30 37 35 37 45 37 37 40 42 40 38 35 29 28 34 34 54 45 50 49 57 61 48 38 28 25 25 24 23 25 27 27 27 29 33 34 38
47 38 37 31 33 34 30 36 42 43 45 46 32 32 36 36 34 31 31 30 34 46 48 51 50 57 59 60 44 35 25 26 26 24 25 26 27 28 30 29 34 35 42
61 38 41 40 38 40 35 34 36 41 46 41 39 41 41 37 32 30 28 38 46 48 48 50 57 58 65 59 42 26 27 30 30 28 28 26 27 30 33 33 33 41 42
80 45 40 43 40 46 43 39 36 37 40 38 39 40 42 36 32 30 28 37 42 50 59 64 63 63 57 46 32 28 31 32 32 30 28 28 30 36 37 39 38 44 43
88 76 41 48 42 48 51 46 41 40 36 40 40 39 40 37 35 33 37 44 48 60 66 70 55 44 37 30 28 32 36 35 34 32 32 31 33 40 41 40 45 44 42
100 95 65 49 55 53 56 54 52 42 41 42 43 44 41 39 40 42 45 54 58 70 74 66 51 36 36 36 38 40 38 37 35 34 36 34 34 42 43 45 48 48 41
100 100 91 51 58 57 59 59 58 49 47 50 46 45 43 43 48 49 55 61 68 77 69 62 51 43 41 39 41 40 39 38 36 38 37 35 37 45 52 49 53 48 48
100 100 89 72 48 60 63 64 61 59 63 60 51 50 46 46 50 49 60 70 73 75 64 59 58 54 50 48 46 44 42 42 42 40 39 40 46 59 60 53 55 56 54
100 100 100 90 63 62 74 74 69 63 73 70 64 58 51 49 46 52 58 62 74 78 72 66 62 59 58 52 50 48 50 52 49 50 52 51 60 66 60 59 60 63 63
100 98 100 100 80 61 71 79 80 80 77 78 84 73 68 56 50 53 58 63 70 74 68 67 63 60 55 55 53 55 53 53 59 62 62 62 74 71 61 69 69 64 65
100 99 100 95 100 77 68 82 81 80 82 85 92 93 84 73 60 60 63 66 63 62 62 65 67 68 70 69 67 58 54 60 68 74 62 72 78 69 68 70 64 74 67
90 100 100 95 93 94 68 75 80 80 80 85 92 96 93 88 83 80 79 76 67 67 71 77 76 80 79 78 69 61 66 84 85 72 84 86 79 73 77 68 68 65 71
87 100 100 100 94 95 94 68 76 87 80 83 86 90 96 97 95 95 96 97 94 89 92 95 90 93 89 88 71 81 84 100 85 97 93 81 79 76 71 69 68 67 70
79 92 100 100 100 99 100 99 78 76 90 82 83 88 89 92 94 98 98 95 94 94 100 100 100 100 100 84 99 100 100 99 100 97 90 83 76 77 70 68 69 73 72
80 75 99 100 100 100 100 99 100 100 90 88 89 85 86 87 89 90 93 97 97 100 98 96 94 89 95 100 100 100 100 100 99 99 83 78 79 74 71 67 65 73 81
72 79 77 100 100 100 100 89 94 100 100 100 99 91 83 88 96 98 95 100 100 99 90 96 96 100 100 100 100 100 100 100 100 87 92 83 73 71 68 68 71 80 77
58 85 77 76 94 100 100 100 98 100 100 100 100 100 100 99 90 84 89 98 100 99 99 100 100 100 100 100 100 100 100 100 90 91 89 72 70 74 71 74 81 76 86
49 61 85 77 93 100 100 100 99 100 98 100 100 100 100 100 100 100 100 100 100 100 100 100 100 100 100 100 100 100 100 100 100 90 86 75 78 76 82 83 87 85 81
22 33 73 90 83 100 100 99 85 100 91 100 88 98 100 100 100 100 100 100 100 100 100 100 100 100 100 100 100 100 100 100 98 100 94 83 84 87 86 89 88 96 87
17 18 34 85 92 99 100 100 100 100 100 100 100 90 100 100 100 100 100 100 100 100 100 100 100 100 100 100 100 100 100 100 100 100 100 100 97 96 100 99 100 95 100
17 16 23 69 94 100 100 100 100 100 100 100 100 100 100 100 100 100 100 100 100 100 100 100 100 100 97 100 100 100 100 100 96 100 100 100 99 100 100 100 100 100 96
19 19 18 44 91 99 100 100 100 100 100 82 97 100 98 100 100 100 100 100 100 100 100 100 100 100 100 100 100 100 100 100 100 100 100 100 100 100 100 100 100 99 88

GFSSE_250_rhum_093.txt.gz
RH
33 30 29 34 38 39 38 54 67 67 56 54 57 61 54 47 33 31 33 31 44 45 48 53 68 87 79 80 70 64 65 74 82 47 32 31 28 26 22 20 24 25 25
34 32 26 26 33 32 33 32 50 52 52 47 46 56 62 58 49 34 38 36 50 43 42 52 49 72 85 65 65 63 67 73 49 45 42 24 24 22 22 24 26 28 26
34 32 30 27 28 31 30 30 31 44 46 48 45 40 55 59 58 44 44 47 51 41 38 42 41 41 39 50 55 65 66 56 39 36 26 24 24 24 27 25 26 29 28
37 33 31 28 31 30 27 29 28 29 39 45 33 31 47 52 55 57 50 44 39 38 31 36 38 40 46 51 61 64 59 42 34 28 25 25 25 26 26 26 28 28 30
61 46 39 34 30 31 27 28 28 27 28 34 26 27 29 49 54 52 53 44 38 35 32 37 39 46 47 51 61 63 51 39 31 27 26 28 29 28 28 29 29 32 34
82 73 56 36 32 30 29 28 28 29 27 26 26 27 31 30 31 30 34 35 33 33 34 37 39 39 48 52 59 61 52 39 33 29 30 32 31 30 31 29 32 36 37
86 79 71 48 35 31 31 31 28 27 28 30 27 30 34 34 34 34 37 36 33 30 33 38 38 43 47 57 64 63 52 40 30 31 36 33 31 30 32 30 32 35 39
88 79 74 66 48 35 33 32 30 29 29 32 31 34 34 33 36 36 39 33 30 30 33 40 43 52 59 63 60 49 41 32 34 37 37 35 32 34 34 32 36 37 44
93 88 86 81 70 41 34 36 36 34 35 31 32 32 34 32 32 33 35 34 33 34 38 46 49 55 65 52 43 34 35 38 39 39 38 37 36 38 37 39 42 47 52
88 91 100 97 84 61 36 38 39 39 39 37 34 33 31 30 36 37 36 37 40 41 45 52 52 66 64 53 41 39 40 40 41 42 41 40 41 42 46 46 50 52 53
78 83 100 100 100 93 47 40 41 42 46 46 42 38 34 36 41 41 39 39 46 46 52 63 71 69 63 57 49 44 44 46 49 47 47 48 45 47 50 63 64 62 60
89 73 91 95 100 100 79 47 44 45 48 52 51 49 44 42 46 44 43 43 48 50 56 66 69 64 63 58 58 57 56 56 57 55 55 51 54 59 64 71 73 70 60
100 90 68 68 99 100 99 70 48 53 59 63 61 62 60 59 51 48 48 46 49 54 55 62 68 71 69 67 66 63 64 65 60 58 54 53 69 97 80 90 82 67 62
82 90 75 54 78 100 100 92 61 56 65 72 73 74 69 67 59 57 54 53 49 52 57 59 67 74 74 69 68 68 68 67 64 58 55 70 86 94 74 98 86 68 60
66 70 71 50 53 96 100 100 84 61 65 72 76 79 77 76 75 71 67 65 58 58 60 62 62 61 64 62 64 69 72 74 76 69 66 100 100 84 92 100 85 65 61
68 84 76 56 44 70 100 100 100 77 66 76 79 82 85 80 87 89 86 81 72 64 67 71 74 72 68 72 81 85 86 81 83 65 98 100 100 88 100 94 76 60 60
85 90 74 72 56 48 89 98 100 90 69 68 74 79 83 88 88 93 97 95 91 86 91 92 93 96 96 96 96 98 100 97 66 94 100 98 92 100 98 83 69 60 60
77 84 79 86 71 62 58 84 98 100 96 78 69 75 76 82 93 92 92 95 92 94 99 100 100 99 99 100 100 90 76 86 100 97 100 87 100 100 94 83 72 62 63
79 86 95 89 80 71 64 74 88 100 100 99 86 81 82 80 80 88 95 97 96 92 93 100 100 100 100 100 96 92 99 100 95 100 100 100 98 95 93 80 69 68 66
57 82 87 93 98 77 63 71 84 93 100 100 100 99 93 82 76 80 84 90 93 99 100 98 98 100 100 100 99 100 100 99 98 99 100 100 98 87 77 69 69 66 65
31 69 86 100 94 94 82 69 85 100 100 100 100 100 100 100 100 100 100 87 86 88 84 82 82 78 98 100 100 100 99 100 100 100 96 90 78 84 67 69 74 71 78
16 26 63 81 91 84 81 90 81 98 100 100 100 100 100 88 86 100 100 100 100 100 100 100 100 100 100 100 100 100 100 100 100 97 87 91 86 85 84 78 76 78 75
16 16 43 66 81 86 71 85 98 96 100 100 100 100 100 100 99 97 100 100 100 100 100 100 100 100 100 100 100 100 100 100 100 88 95 100 94 93 84 85 80 75 68
18 16 20 45 57 62 84 92 96 100 100 100 100 100 100 100 100 100 100 100 98 100 100 100 91 89 91 100 100 100 100 100 100 100 100 100 100 97 87 96 84 78 80
21 20 18 18 20 28 76 89 100 100 100 100 100 100 100 100 100 100 100 100 95 97 100 100 94 100 99 89 73 87 100 100 100 100 100 100 100 100 100 96 96 89 88
22 21 19 19 18 18 24 77 100 100 100 100 100 100 100 100 100 99 100 100 100 100 88 88 100 99 100 100 100 100 100 100 100 100 100 100 100 100 100 100 89 92 95

GFSSE_250_rhum_096.txt.gz
RH
31 29 27 26 32 43 46 47 50 66 78 76 60 57 60 60 62 57 50 40 32 31 33 35 43 44 54 43 56 53 53 63 80 70 50 45 38 34 24 22 23 23 24
30 27 30 29 27 36 37 41 44 41 52 72 73 63 53 50 52 58 59 55 41 35 41 48 45 38 34 35 36 42 53 66 66 59 40 33 33 26 23 24 24 23 24
31 28 30 30 31 30 32 35 36 40 38 38 56 55 52 49 49 43 55 58 57 49 43 40 39 40 34 35 36 47 55 62 60 47 36 31 27 25 26 26 25 25 25
46 40 38 33 31 28 28 29 31 35 31 31 32 48 46 46 44 39 46 53 54 54 55 50 41 36 34 38 45 49 54 65 61 43 35 30 29 28 30 30 28 26 27
51 46 44 42 35 30 28 27 29 30 30 29 29 32 38 42 34 32 40 52 55 52 40 37 34 28 31 42 42 49 58 66 55 47 35 34 31 32 34 32 29 29 28
58 55 49 44 38 33 29 27 28 30 28 28 28 26 27 32 28 27 31 35 31 31 33 33 29 27 32 40 41 49 65 63 61 52 43 33 32 35 34 32 31 31 32
50 59 57 53 54 51 40 29 28 29 28 27 27 27 26 26 25 29 27 28 33 32 36 33 28 32 37 39 43 61 63 64 55 43 35 36 38 38 36 36 34 36 35
60 61 64 66 70 71 64 50 31 29 29 27 26 27 27 26 25 29 31 34 34 34 35 31 29 31 37 43 48 63 57 45 36 38 40 41 42 40 39 39 41 44 45
76 72 69 78 71 75 75 66 46 32 30 30 28 28 28 30 29 28 33 33 35 32 32 30 31 33 39 48 51 57 48 46 41 42 42 42 46 49 48 47 52 55 62
91 80 72 86 81 77 78 73 71 45 33 33 31 32 30 34 34 32 33 32 35 32 32 32 35 36 42 50 57 62 54 50 43 43 46 53 57 54 51 51 59 85 73
94 93 86 86 94 90 93 88 74 64 41 34 36 37 34 34 35 35 36 30 35 35 36 36 41 42 43 53 62 59 62 58 57 57 59 64 64 56 54 58 63 94 71
100 95 94 95 100 100 100 97 88 77 57 36 38 42 42 40 41 41 39 34 41 42 40 40 43 44 47 55 61 58 65 64 66 66 65 66 59 60 58 61 100 100 83
100 100 96 96 95 97 96 100 93 89 78 56 42 45 51 51 45 48 47 44 47 47 46 48 53 52 56 60 65 65 72 74 72 68 68 65 64 66 66 90 100 98 80
100 100 96 92 92 93 90 96 100 100 93 84 59 48 55 61 58 58 56 59 58 54 54 54 59 63 65 70 69 76 75 75 70 62 64 70 79 93 78 100 95 73 93
87 78 88 93 88 88 85 89 99 100 100 97 82 56 53 56 64 67 64 65 66 65 65 66 62 65 78 71 70 73 65 66 68 81 83 98 93 86 100 98 93 95 98
72 68 70 69 64 64 74 94 81 100 100 100 99 82 62 57 61 66 69 70 80 78 80 81 78 70 65 68 73 78 82 86 83 91 97 64 88 100 100 100 100 85 81
76 77 85 72 62 55 67 84 97 100 100 100 100 99 82 64 58 63 73 78 80 88 89 96 98 97 92 96 100 93 85 87 99 84 69 97 98 100 98 99 90 91 76
87 97 95 82 78 68 56 62 80 76 94 100 100 100 96 78 68 64 73 79 91 95 95 94 97 96 98 100 97 91 95 96 83 76 94 100 100 90 100 100 86 63 60
65 72 83 93 90 78 68 60 72 78 57 71 100 100 100 93 80 74 75 77 81 85 91 96 97 92 89 90 94 96 94 87 91 90 100 99 89 99 100 95 82 67 69
50 62 78 81 95 100 99 72 64 70 63 54 70 100 100 100 100 98 91 86 83 82 81 80 77 71 75 77 79 86 76 78 91 88 90 96 89 100 90 79 71 84 85
58 54 66 77 81 87 84 76 60 68 81 89 97 100 100 100 100 100 100 100 100 100 100 100 100 100 100 100 100 100 100 100 93 97 96 79 95 94 86 73 85 92 95
39 50 51 53 60 73 81 89 71 57 58 77 100 100 100 100 100 100 100 100 90 80 80 97 99 100 100 100 96 91 94 86 90 76 81 84 77 84 74 76 90 99 100
17 23 18 25 27 41 59 66 76 71 67 72 90 92 100 100 99 99 100 100 100 100 94 87 83 76 75 88 95 87 85 84 84 81 79 81 83 84 87 95 92 94 100
18 17 21 30 17 22 29 39 79 86 81 72 88 100 100 100 100 100 100 100 100 99 99 100 84 81 82 76 86 73 76 74 66 88 99 89 82 99 95 82 89 97 98
20 18 18 31 21 16 16 16 18 90 100 85 82 100 90 100 100 100 100 100 100 100 100 100 100 100 86 80 69 70 77 91 97 86 99 96 92 88 88 94 97 99 100
25 20 22 19 25 26 19 19 18 23 79 89 80 95 99 89 100 100 100 100 100 100 100 100 100 100 100 98 69 62 81 75 86 86 76 79 82 95 100 100 100 100 100

GFSSE_250_rhum_102.txt.gz
RH
50 61 66 50 42 35 30 55 84 58 68 75 60 56 64 62 58 52 44 51 54 50 47 44 44 50 51 52 49 53 42 35 32 36 43 45 55 56 44 39 35 34 31
52 62 56 48 38 28 25 31 63 65 64 74 63 52 54 73 72 66 55 56 53 52 51 46 42 48 55 54 49 40 34 30 33 38 46 44 56 57 46 39 43 36 33
58 60 61 57 44 29 26 28 29 36 39 45 62 51 47 51 50 55 54 59 54 50 46 41 39 42 51 52 40 33 31 29 38 36 46 48 59 57 52 48 45 37 36
83 60 64 67 52 37 30 31 29 28 27 27 40 51 45 44 44 44 37 36 45 46 44 38 37 38 45 34 29 33 31 29 36 36 42 53 56 61 58 49 40 37 36
71 60 79 76 53 45 33 30 31 28 28 26 30 36 40 38 38 39 34 32 32 32 34 34 34 33 31 30 31 35 29 31 37 36 44 49 58 57 46 41 39 38 37
73 66 77 71 51 49 34 32 32 30 28 30 29 31 35 34 32 33 31 30 28 26 30 32 33 34 33 30 30 29 27 32 37 38 48 47 54 48 43 43 41 40 40
67 66 70 65 55 50 41 38 35 32 31 30 29 30 31 33 30 30 28 28 27 27 27 28 31 32 31 31 31 28 29 32 35 40 49 52 48 47 49 46 42 46 53
52 52 53 53 52 54 62 63 54 41 43 45 40 34 30 30 29 29 29 28 28 27 28 27 28 30 27 30 31 30 30 36 38 45 52 52 53 52 53 54 54 55 54
53 58 55 67 66 62 65 61 54 54 51 46 42 36 35 32 31 31 34 31 30 28 29 30 29 31 32 32 37 36 36 42 42 48 58 70 60 55 59 64 62 60 58
55 65 63 73 87 76 68 63 66 57 56 56 54 55 54 42 34 31 32 31 32 32 32 36 35 37 39 35 39 43 41 47 51 56 64 76 67 59 62 68 69 61 61
58 85 100 97 83 88 75 76 74 67 71 72 69 73 68 62 48 42 33 30 32 33 34 38 41 40 46 41 43 48 47 55 64 73 65 69 72 66 71 70 60 65 71
99 97 100 100 98 100 100 86 78 75 87 90 88 84 78 69 66 66 51 38 31 32 38 39 38 42 46 44 44 52 52 63 65 73 73 66 68 69 69 66 69 74 87
100 100 100 100 100 100 100 100 84 81 87 88 86 86 84 79 76 72 73 57 46 38 34 36 37 40 47 49 54 56 61 70 72 75 75 65 65 66 71 73 75 94 93
100 100 100 100 100 100 100 100 100 93 92 96 92 93 98 86 74 74 69 74 67 56 48 43 45 47 51 54 55 62 69 72 76 78 77 66 68 79 88 88 95 85 74
100 100 100 100 100 100 100 100 100 100 100 100 100 99 99 100 92 77 70 74 82 72 65 56 56 52 50 54 56 60 71 77 78 80 80 76 77 93 94 77 62 64 61
86 95 100 100 100 100 100 100 100 100 100 100 100 100 100 100 100 98 98 95 91 92 79 77 70 67 68 61 59 70 76 80 82 80 72 66 74 64 57 58 66 56 61
85 84 100 100 94 100 100 100 100 100 100 100 100 100 100 100 100 100 100 100 100 100 99 94 83 79 76 74 75 72 78 78 75 63 64 69 83 89 92 88 75 73 70
85 86 96 90 72 90 100 100 100 100 100 100 100 100 100 100 100 97 94 98 100 99 100 100 100 92 83 80 78 76 78 77 72 74 75 91 100 100 78 67 69 75 77
58 84 100 100 91 91 100 100 100 100 100 100 100 100 100 100 100 89 91 91 87 99 100 100 100 100 100 100 98 96 95 85 79 78 87 100 81 56 50 49 52 65 69
77 68 88 100 100 100 100 100 100 100 99 100 100 100 98 97 100 100 99 93 100 100 100 100 100 100 100 100 100 100 97 76 72 67 74 63 70 72 62 71 70 70 66
71 92 64 57 82 99 96 100 100 100 99 95 100 100 100 100 100 100 97 80 96 100 97 100 100 100 100 100 100 100 96 82 64 58 63 73 78 89 89 88 95 71 58
81 73 84 74 81 100 100 95 93 94 100 91 85 94 98 97 100 100 94 87 87 85 100 100 100 100 100 100 95 87 95 100 100 92 86 100 100 98 100 94 72 58 54
47 89 64 79 75 77 87 100 98 85 99 100 100 100 100 97 100 100 100 100 100 100 100 100 100 100 100 100 98 87 77 84 77 90 98 94 75 68 73 59 51 46 56
53 41 66 56 40 54 80 97 100 100 93 86 100 100 100 100 100 100 100 100 100 100 100 100 100 100 99 80 82 83 100 99 94 84 80 64 56 50 58 45 50 64 67
60 57 48 49 46 34 49 72 79 82 84 90 91 73 89 100 100 100 100 100 100 100 100 100 100 100 99 94 100 100 84 66 56 60 54 48 56 75 70 76 100 100 100
55 66 64 53 58 50 35 49 57 52 52 50 60 89 100 100 100 100 100 100 100 100 100 100 100 100 100 100 100 97 100 99 100 88 100 100 100 100 100 99 100 99 100

GFSSE_250_rhum_105.txt.gz
RH
48 47 50 66 70 73 72 75 77 70 84 80 55 68 69 57 54 49 51 57 48 45 50 49 50 46 42 40 43 49 46 34 32 29 28 34 40 45 53 51 48 48 48
51 62 61 74 77 79 72 77 77 50 41 84 70 61 74 62 54 53 62 58 52 50 52 50 45 44 38 39 39 42 36 30 32 29 29 30 39 40 49 51 56 54 45
59 52 53 57 71 75 71 50 39 31 25 36 74 61 71 68 56 51 53 52 51 42 41 45 45 44 38 37 35 32 30 30 32 26 31 32 35 40 45 53 54 46 40
69 52 54 61 69 75 77 64 51 35 26 26 32 46 47 42 59 50 47 46 45 43 38 37 34 35 34 35 35 33 32 32 28 28 33 33 36 40 47 53 47 42 42
82 64 58 59 69 85 79 73 56 43 33 27 26 26 26 25 35 50 45 39 40 37 35 31 28 29 32 34 33 31 32 31 28 30 34 34 43 47 49 50 47 48 49
100 98 83 85 87 82 70 80 54 51 43 30 27 29 27 25 25 30 35 35 33 32 32 29 28 30 28 30 32 28 31 35 29 32 36 38 49 55 54 51 52 53 57
100 100 100 98 99 80 85 74 67 47 46 34 30 30 28 28 28 30 33 33 33 31 27 28 27 28 27 27 29 28 30 36 36 34 41 43 50 57 72 65 55 55 60
99 100 100 100 91 83 72 77 63 51 52 40 36 31 30 31 30 28 27 26 27 29 28 28 28 28 29 27 30 35 38 39 44 36 42 49 54 59 69 73 64 62 64
87 100 100 97 87 87 86 78 67 54 58 57 54 40 39 39 34 30 28 27 28 29 30 30 30 29 32 32 35 39 42 36 45 44 43 52 63 65 65 69 72 66 60
100 100 100 100 91 97 91 96 79 59 65 71 62 55 48 44 38 43 42 34 31 31 31 34 34 32 35 37 40 39 45 39 45 49 46 52 61 71 66 62 66 61 64
100 98 100 100 96 98 84 77 79 76 79 79 67 64 54 52 50 59 58 55 46 38 34 31 32 35 36 42 41 38 44 40 42 50 50 57 60 70 75 68 63 60 64
99 81 58 100 100 91 78 80 98 87 85 79 78 76 70 66 74 78 70 63 57 61 56 48 41 36 34 35 36 38 39 40 48 52 59 65 68 70 68 61 59 61 68
99 48 100 100 100 99 89 83 88 100 94 87 80 76 79 83 79 76 69 63 62 60 62 58 59 53 49 41 40 40 42 40 44 45 56 64 66 65 63 56 56 62 60
100 100 98 81 100 100 100 100 100 100 100 100 93 83 78 78 77 71 72 68 66 68 66 68 64 65 65 61 59 58 60 58 54 49 49 58 59 57 58 57 53 65 64
100 95 54 60 82 96 100 100 100 100 100 100 100 98 90 87 84 84 83 90 78 78 76 80 79 75 77 73 75 72 69 67 64 60 57 57 55 59 58 57 83 76 68
100 100 100 100 77 72 100 100 100 100 100 100 100 100 100 100 100 99 100 100 100 97 88 98 100 94 96 88 86 83 78 74 74 69 68 60 60 54 57 70 79 61 60
100 100 100 85 77 90 100 99 99 100 100 100 100 100 100 100 100 100 100 92 100 100 100 96 100 100 99 100 100 91 90 90 88 85 80 73 64 67 71 74 87 75 62
98 100 95 98 78 100 100 100 100 100 100 99 100 100 100 100 100 100 100 100 98 94 93 100 98 100 100 100 100 100 100 100 100 100 88 82 85 95 83 73 67 68 73
100 100 100 100 100 93 97 100 100 100 100 100 100 100 100 100 100 100 100 100 100 100 100 100 100 100 100 100 100 100 100 100 100 100 97 62 62 67 71 62 64 70 82
100 100 100 100 100 100 100 100 100 100 100 100 100 100 100 100 100 100 100 100 100 99 100 100 100 100 100 100 100 100 100 99 96 59 55 52 46 46 47 48 60 80 90
100 100 100 100 100 100 100 100 100 100 100 100 100 100 100 100 100 100 100 100 100 100 99 100 100 100 100 100 90 93 90 81 75 71 77 76 77 92 100 100 96 100 100
100 100 100 98 100 100 100 100 100 100 100 98 100 100 89 98 100 100 100 100 100 97 97 98 100 100 100 100 99 90 88 94 97 94 99 93 92 86 88 81 68 91 78
92 92 93 87 89 100 100 100 100 100 100 100 100 100 100 100 100 100 100 99 100 100 100 100 100 100 100 100 100 100 100 93 90 97 90 89 88 73 91 86 62 64 61
96 100 100 99 100 100 100 92 100 100 100 100 100 100 90 78 79 98 100 100 100 100 100 100 100 100 100 100 100 95 78 65 62 70 68 58 61 60 67 76 74 60 63
86 77 93 100 82 97 90 87 100 100 100 100 98 100 94 96 73 88 100 100 100 100 100 100 100 100 100 100 100 100 100 96 81 76 76 81 78 86 89 98 100 100 100
72 81 71 78 66 82 76 78 91 98 100 100 100 100 85 93 100 100 100 100 100 100 95 84 100 100 99 79 100 100 100 100 100 100 100 100 100 100 100 100 100 100 100

GFSSE_250_rhum_108.txt.gz
RH
57 40 54 69 79 95 97 81 71 74 87 86 87 86 65 64 68 56 50 45 44 45 44 42 42 46 45 42 38 36 37 34 31 32 32 29 32 34 34 36 42 50 49
54 52 58 53 58 77 87 79 67 65 72 82 83 77 78 62 58 60 55 51 48 51 46 46 41 43 40 42 38 36 37 33 32 32 29 30 32 33 37 45 46 50 48
61 62 66 58 58 52 56 66 67 65 67 85 79 41 46 77 68 71 60 54 49 48 50 49 48 42 37 31 30 32 34 32 30 30 28 29 32 33 40 47 49 51 48
63 72 68 59 59 60 61 65 69 66 57 59 44 29 27 36 63 61 57 55 52 48 44 43 40 39 36 29 29 30 30 29 28 31 30 28 34 36 43 48 55 53 52
78 65 76 71 61 64 67 70 67 57 64 61 49 32 28 27 27 29 32 31 44 49 41 38 35 33 31 28 29 29 29 29 27 32 33 32 32 38 45 48 55 58 60
95 90 74 75 66 56 54 60 61 57 63 77 52 39 33 26 30 26 25 26 29 32 34 36 33 31 28 28 29 27 29 31 32 34 40 36 34 37 46 54 52 54 59
86 95 98 100 87 67 56 54 58 64 64 63 63 51 36 29 29 29 28 27 26 30 33 32 30 29 28 28 28 29 29 32 34 36 35 38 39 40 47 55 56 56 56
76 89 96 97 95 84 72 64 63 66 58 54 65 64 48 33 32 29 30 28 27 27 25 26 27 30 32 31 30 31 32 34 37 36 35 40 43 45 51 57 62 60 56
71 82 96 100 100 96 85 86 90 92 70 67 68 57 56 42 48 35 35 33 31 29 26 26 26 28 29 30 32 34 34 35 36 39 40 39 50 48 51 58 60 66 57
60 73 88 99 100 100 100 100 100 100 99 79 65 57 59 63 61 48 40 39 40 44 39 31 29 28 28 28 30 31 33 35 35 36 35 36 45 50 52 56 57 55 48
76 73 87 90 95 100 100 100 100 100 97 86 80 66 66 68 65 51 42 40 44 49 52 47 48 46 45 44 40 39 36 36 37 37 35 35 39 42 48 57 52 49 46
76 85 100 100 99 100 100 100 100 94 97 88 93 77 73 70 65 58 51 48 49 55 52 51 48 47 49 49 51 52 53 53 51 53 53 52 50 43 41 44 45 45 48
94 94 100 100 100 100 96 100 100 98 87 88 80 90 82 69 66 59 57 56 62 59 54 59 60 56 58 57 60 55 54 56 57 58 59 59 55 51 50 48 46 46 48
88 100 100 100 100 100 100 96 96 100 100 86 89 100 93 82 77 70 69 62 61 63 64 64 72 66 66 66 68 65 62 59 59 58 62 57 57 57 54 49 53 55 52
92 100 100 100 96 83 84 88 70 98 100 88 94 100 100 100 100 92 78 77 76 75 80 87 95 84 84 87 80 77 77 74 70 70 62 60 61 60 56 54 64 74 68
100 100 100 100 86 99 92 77 89 100 100 100 100 100 100 100 100 100 100 100 100 99 100 100 94 90 90 90 84 85 79 90 82 75 76 81 84 82 66 67 71 49 49
100 100 100 100 100 99 47 56 100 100 100 100 100 100 100 100 100 100 100 100 100 100 91 88 93 96 88 87 98 100 94 88 86 83 86 95 98 64 52 37 53 45 42
100 100 100 99 92 71 56 29 39 45 58 100 100 100 100 100 100 100 99 99 100 100 100 100 100 100 87 87 97 97 100 100 100 98 99 76 63 61 60 59 60 55 52
100 100 100 97 83 63 64 56 45 44 53 61 74 100 100 100 99 100 100 98 100 100 96 100 100 100 95 100 100 100 100 100 99 95 98 99 92 86 87 76 69 65 64
100 100 100 100 100 84 67 70 70 71 78 70 81 96 97 100 99 100 100 100 100 100 100 100 100 100 99 100 100 100 100 100 100 88 90 88 82 75 68 72 73 83 74
100 100 100 100 100 100 100 100 100 100 100 100 98 100 100 100 100 100 100 100 100 100 100 100 100 100 87 80 94 100 100 100 100 94 80 72 80 78 69 69 74 83 74
100 100 100 100 95 100 100 100 100 100 100 100 100 100 100 100 100 100 100 100 100 97 99 98 100 100 100 100 100 100 100 100 96 91 77 67 59 64 68 66 71 73 79
100 100 100 100 100 90 100 100 100 100 100 100 100 100 99 99 100 100 100 100 100 94 100 100 100 100 100 100 100 100 100 100 92 86 76 58 53 58 58 67 63 79 94
100 100 100 79 90 98 100 97 100 100 100 100 100 100 100 100 100 92 75 72 84 95 100 100 100 100 100 100 97 97 91 91 75 67 54 64 68 66 64 71 80 81 93
100 100 96 100 100 100 94 100 100 100 99 100 100 100 81 100 100 95 86 94 100 100 100 100 100 100 100 78 73 88 86 86 87 63 86 93 83 81 94 96 97 100 100
96 100 100 100 100 100 100 99 100 100 100 100 100 100 100 97 74 100 100 100 100 100 100 100 100 99 79 76 68 100 100 100 100 100 100 100 100 100 100 100 100 100 100

GFSSE_250_rhum_111.txt.gz
RH
75 71 64 48 50 70 90 100 83 75 80 87 84 83 97 90 69 52 52 57 48 46 41 40 41 41 41 42 37 35 33 32 33 29 29 27 23 23 28 32 37 43 48
70 85 81 61 47 73 86 92 92 80 72 75 76 71 71 88 88 71 59 57 58 53 48 45 46 48 47 44 37 33 30 30 30 28 27 27 24 24 27 30 36 42 45
75 78 83 74 59 73 91 84 82 74 71 74 68 68 72 88 70 69 76 69 70 63 55 48 44 43 43 40 39 36 29 30 28 28 26 27 26 28 28 30 37 42 46
65 70 79 74 66 55 65 74 75 66 64 60 62 64 71 79 42 24 34 66 60 61 51 50 49 45 39 34 32 29 28 28 27 27 27 28 31 32 34 33 38 44 44
60 71 88 73 65 58 60 62 54 50 50 52 52 56 54 55 35 27 24 27 30 32 29 35 39 40 36 34 32 30 29 26 27 28 29 28 30 34 35 38 38 40 41
75 76 95 79 67 63 67 62 56 52 51 47 46 43 41 49 39 35 27 25 25 24 24 25 26 34 35 32 28 27 28 27 26 27 28 28 30 31 38 38 41 41 47
84 79 100 94 78 62 62 60 57 54 51 42 43 42 52 56 49 40 29 28 26 26 26 24 25 25 25 24 27 27 28 29 28 27 29 30 31 30 32 39 37 42 49
83 86 94 98 93 77 67 69 67 62 58 51 41 47 58 50 54 47 32 31 28 28 26 26 24 24 24 25 25 26 27 27 28 30 31 32 31 32 31 34 32 36 40
90 91 87 97 100 95 85 77 73 69 64 60 57 57 50 52 50 48 37 44 42 32 33 33 33 29 28 29 29 30 34 32 32 30 32 33 30 29 32 37 38 36 36
87 93 86 89 96 100 99 99 93 91 74 74 79 82 73 60 53 52 50 55 47 39 32 36 47 46 43 43 47 44 40 42 44 41 42 42 45 45 44 46 45 42 39
89 83 87 87 93 97 99 100 100 100 86 86 98 96 85 75 68 68 56 57 51 41 36 39 47 48 47 43 43 44 43 44 45 42 40 40 40 41 42 42 44 43 43
100 82 78 91 91 98 99 100 100 100 100 100 100 95 87 85 76 74 61 59 54 52 47 47 54 52 48 50 53 54 51 51 46 44 45 44 43 40 43 42 42 42 47
100 100 84 68 88 100 100 100 100 100 100 100 100 93 78 80 77 67 65 61 58 56 52 56 62 61 58 59 60 57 50 51 54 53 48 47 44 43 42 43 47 38 42
82 90 100 99 87 100 100 100 100 100 100 100 100 100 89 78 76 85 70 66 69 70 64 57 62 68 74 84 75 67 67 76 78 68 62 62 55 53 54 46 40 42 40
98 98 100 100 100 93 100 100 100 100 100 97 99 100 93 75 83 100 100 93 98 96 90 82 80 87 84 87 98 79 62 65 82 92 90 82 79 67 62 58 53 60 59
100 100 100 100 100 100 100 100 100 100 100 100 94 91 82 90 95 100 100 100 100 100 100 100 100 84 86 79 76 76 81 80 67 69 74 71 71 88 84 84 77 76 67
100 100 100 100 100 100 100 100 100 100 100 93 83 84 87 96 100 85 86 88 82 95 100 96 99 100 100 100 100 100 94 80 84 86 90 76 77 87 70 74 72 69 75
98 100 100 100 100 100 100 100 100 100 97 88 62 62 100 100 100 100 96 99 97 99 100 81 90 92 95 92 98 96 83 78 85 86 82 94 79 76 67 61 63 51 50
100 100 100 100 97 100 100 100 100 89 100 74 54 83 100 100 80 100 100 100 100 100 100 100 100 100 100 100 100 100 100 100 100 89 82 89 73 85 71 61 58 50 54
100 100 100 100 100 98 100 100 88 82 74 49 37 54 100 69 57 63 80 89 99 100 100 100 100 100 100 96 100 100 100 100 100 91 86 83 80 70 64 60 55 52 54
100 100 100 100 100 100 100 93 75 63 60 59 60 58 58 67 92 100 100 100 100 100 100 100 100 100 100 100 100 100 100 100 100 100 96 80 73 59 61 49 48 47 48
100 100 99 100 100 91 89 71 59 64 68 74 96 100 100 100 100 100 100 100 100 100 100 100 100 100 100 100 100 100 100 100 100 100 91 82 80 66 56 58 46 51 58
100 99 100 100 100 63 65 98 98 100 100 100 100 100 100 100 98 97 100 100 92 88 82 77 94 100 100 100 100 100 99 93 96 100 90 83 62 53 61 51 65 75 87
100 100 99 90 100 100 100 100 100 94 83 92 81 92 100 100 100 99 100 96 86 70 73 96 87 86 84 89 76 71 61 57 84 91 73 66 65 58 52 49 83 91 100
100 100 100 100 100 100 100 100 100 100 100 100 100 77 82 99 76 50 60 78 64 66 75 77 100 90 67 61 50 41 48 61 57 75 79 89 75 72 80 88 96 100 100
86 100 100 100 100 100 100 100 100 100 100 100 100 100 100 100 100 100 100 100 100 100 100 97 100 100 99 81 70 78 83 75 80 75 93 100 100 100 100 100 100 100 91

GFSSE_250_rhum_114.txt.gz
RH
83 69 63 63 56 48 39 45 90 72 81 90 78 79 94 90 96 92 80 60 54 54 55 52 46 44 43 44 44 43 40 39 32 30 28 28 26 26 26 26 26 28 32
90 82 73 69 68 62 49 41 49 78 79 68 78 86 81 74 78 78 100 83 68 62 58 59 54 50 44 42 41 39 36 34 30 30 28 27 27 27 26 28 30 30 33
98 92 82 72 70 72 62 47 47 55 71 74 75 63 74 73 67 67 77 75 70 71 68 66 62 56 53 51 43 36 33 32 29 28 27 27 26 27 28 29 30 33 39
94 98 87 83 77 80 76 58 55 64 64 54 66 68 70 68 60 65 74 45 25 26 61 57 60 44 41 43 39 37 34 30 29 28 26 26 26 27 29 28 29 35 39
94 100 93 89 85 90 84 70 56 66 78 56 50 56 58 51 50 59 54 49 26 23 24 24 23 21 27 31 34 35 31 29 28 28 28 27 29 30 28 28 28 34 35
89 99 100 99 92 91 92 82 69 57 76 46 40 46 44 42 41 38 43 35 32 26 24 22 22 23 24 26 27 26 28 27 26 27 27 28 28 28 26 26 28 34 36
77 91 100 100 100 96 95 90 76 66 60 50 37 35 37 39 36 38 48 40 34 28 26 24 23 23 25 25 25 24 26 26 26 26 26 26 29 28 28 28 34 37 40
74 82 92 100 100 100 98 94 83 72 61 59 51 44 41 37 33 38 42 44 40 31 27 28 27 29 28 29 28 31 34 36 36 35 36 34 34 34 35 35 35 35 37
65 73 86 92 100 100 100 96 90 82 74 67 67 61 51 43 44 44 47 46 43 38 40 34 36 37 38 39 40 41 40 37 36 37 37 36 36 35 36 35 36 38 38
59 74 83 96 100 96 100 97 93 88 79 72 69 67 58 54 58 47 50 54 51 49 52 40 36 33 35 40 40 40 40 39 43 44 43 42 42 42 42 40 38 38 38
65 70 84 93 99 100 100 100 100 96 87 83 82 79 79 73 77 67 70 62 64 58 53 46 41 41 43 47 46 44 45 47 50 47 46 46 48 45 40 40 41 40 38
59 55 83 84 95 92 98 100 100 100 97 95 98 99 100 84 100 92 75 69 74 69 54 54 50 47 50 54 50 48 50 48 50 49 51 52 55 50 51 52 53 52 49
48 69 77 75 88 99 91 97 98 100 100 100 100 96 100 96 98 93 74 72 72 56 58 56 54 54 51 52 50 59 60 55 52 52 54 53 56 61 66 68 63 57 69
99 99 99 88 67 96 96 98 98 100 100 100 100 100 100 100 100 97 87 84 76 79 72 61 62 68 63 60 60 74 64 67 59 63 62 47 53 56 59 55 59 64 57
100 100 100 100 98 73 81 100 98 100 100 100 100 100 100 100 100 100 100 75 74 97 97 95 94 90 68 76 81 61 67 68 81 86 88 62 48 48 54 61 65 71 68
97 100 99 100 100 100 90 88 76 91 100 100 100 100 94 97 100 100 100 94 85 100 100 100 100 98 99 100 97 100 100 100 99 96 84 68 71 69 64 61 66 74 73
100 100 100 90 100 100 100 100 100 95 100 100 100 100 100 100 93 97 94 85 97 96 82 74 80 76 82 100 66 81 98 99 100 75 78 99 92 99 89 89 74 70 54
100 100 98 81 91 100 100 100 99 100 100 100 100 100 100 100 97 79 84 85 100 100 98 86 98 100 100 100 94 99 100 100 100 100 100 95 100 100 89 73 71 62 57
100 100 100 100 77 100 100 81 94 100 100 100 100 100 100 100 93 75 75 97 100 100 100 99 100 100 100 100 100 100 100 100 92 71 86 90 100 77 82 76 76 70 62
98 100 100 100 100 100 100 74 83 100 100 100 100 100 100 100 90 60 69 100 100 96 86 96 100 100 100 100 98 100 100 70 75 84 93 91 96 55 58 73 78 69 60
95 100 100 100 100 100 59 71 100 100 100 100 100 94 92 90 84 74 58 56 71 88 100 100 100 100 100 100 100 94 86 70 90 95 77 61 48 51 64 75 74 64 57
100 100 100 97 100 94 53 73 100 100 100 84 74 54 44 50 56 57 69 82 86 98 92 100 100 96 83 83 96 71 78 70 70 61 65 53 44 55 66 64 70 58 51
100 100 100 100 100 98 76 49 79 78 74 58 48 88 93 81 98 100 100 93 93 100 95 79 71 70 71 73 72 64 89 70 81 62 45 40 42 48 55 52 53 43 44
100 100 100 100 100 100 100 69 44 58 86 96 92 94 100 100 100 100 100 100 100 87 89 69 65 73 77 76 67 58 62 53 42 35 30 38 48 40 41 46 45 49 53
100 100 100 100 100 100 82 57 51 82 100 100 100 100 93 100 100 100 100 100 92 65 67 62 63 68 63 52 58 71 36 32 30 30 32 43 43 50 49 66 70 72 87
100 100 100 100 100 91 100 85 91 100 100 100 100 83 100 100 100 82 86 100 100 100 100 100 100 90 73 58 42 55 50 42 43 56 63 69 94 98 94 89 84 97 93

GFSSE_250_rhum_120.txt.gz
RH
61 52 66 66 65 58 53 50 52 68 78 64 59 79 97 100 99 100 93 75 89 88 95 72 62 60 64 58 55 60 56 44 40 41 38 31 28 27 26 27 27 24 26
63 44 58 65 64 66 68 56 54 48 85 90 60 66 70 91 99 100 87 81 75 75 69 94 88 73 60 63 67 62 55 34 34 35 30 24 26 25 26 26 24 24 30
62 60 43 60 63 68 72 68 58 57 50 57 83 59 83 78 75 71 69 81 80 76 64 67 53 33 24 22 30 25 21 23 25 29 24 24 24 23 25 28 30 33 34
85 50 56 47 61 68 81 75 66 62 59 52 47 57 51 64 63 62 69 74 72 70 56 55 47 34 23 20 19 21 22 23 24 24 23 24 25 28 30 34 34 33 33
99 92 52 48 52 64 86 89 78 69 64 61 56 47 39 44 48 51 64 62 66 59 47 42 37 28 24 22 21 20 21 22 23 23 28 31 30 35 37 36 37 38 36
45 44 57 43 46 56 75 92 87 75 72 70 61 58 52 39 35 37 38 50 54 43 38 36 35 33 28 24 23 22 21 24 27 30 32 32 36 38 41 42 40 40 43
33 60 91 62 47 53 66 81 92 84 78 78 70 67 66 55 45 36 35 38 39 38 39 42 41 36 33 28 27 29 28 29 36 39 36 39 40 37 40 38 38 35 36
23 69 69 38 39 44 62 85 86 89 79 82 79 71 74 67 57 49 38 37 36 36 34 37 43 40 37 39 36 36 37 38 38 38 39 40 41 43 39 38 35 35 36
16 14 19 22 28 41 52 82 100 94 82 76 85 83 74 71 63 60 52 46 46 43 42 42 47 47 45 44 40 36 34 39 43 42 40 44 48 43 40 35 37 41 50
16 13 13 14 16 26 45 53 97 100 98 79 81 85 79 78 73 68 61 49 50 54 49 51 56 54 53 48 41 36 38 42 47 48 42 55 52 47 47 56 52 53 58
18 24 12 13 15 30 35 58 60 95 100 93 81 77 82 79 75 76 64 50 52 54 52 50 61 64 59 51 47 43 46 47 52 51 57 62 51 64 62 91 83 64 73
76 51 24 14 12 17 56 62 64 70 100 100 93 81 84 80 69 73 70 54 51 55 69 64 59 64 61 48 46 49 51 56 54 60 59 63 67 99 97 99 79 73 100
80 69 39 20 13 27 46 94 85 68 76 100 100 100 84 79 84 74 68 64 65 69 80 74 69 68 58 54 55 62 64 69 67 68 90 87 77 76 88 100 100 100 100
34 65 56 34 20 87 98 89 100 96 74 91 100 100 100 97 86 77 69 65 71 79 87 74 73 80 81 62 66 70 94 100 100 83 77 70 76 85 98 100 100 100 100
11 37 29 28 94 100 100 86 85 100 92 78 90 100 100 99 93 90 91 82 68 67 72 100 100 100 99 80 74 100 96 86 89 80 98 97 95 99 100 100 100 94 70
10 20 37 45 100 100 99 93 94 100 100 82 72 84 99 100 94 84 88 99 97 88 74 86 100 100 100 100 78 65 64 67 98 99 84 100 100 100 100 100 64 55 50
9 18 33 20 98 100 100 100 97 100 100 100 99 100 86 90 97 98 98 97 100 100 100 89 74 84 86 80 79 73 72 99 100 72 80 94 96 87 70 62 57 49 46
10 17 24 37 65 100 100 96 100 100 100 100 100 100 93 86 89 100 100 100 100 100 100 100 100 100 97 84 82 80 77 84 80 90 95 87 71 66 67 55 74 52 39
10 13 19 39 100 100 100 100 91 100 99 100 100 100 100 92 84 92 88 90 96 100 98 100 100 100 100 99 89 78 81 100 96 93 84 84 66 56 51 44 36 36 39
10 15 32 58 100 100 91 100 100 100 100 95 100 100 100 100 99 97 100 100 100 100 100 100 100 100 100 100 100 100 99 99 86 80 74 56 46 41 35 32 32 36 42
11 15 55 84 100 100 96 100 100 82 98 100 100 100 100 100 100 100 100 95 100 100 100 100 100 100 100 100 100 100 100 92 87 65 56 46 37 32 30 30 28 28 36
12 22 49 100 100 100 100 100 100 100 100 100 100 100 100 100 100 100 92 94 96 100 100 100 100 99 98 96 96 96 98 83 64 51 42 33 34 34 37 32 27 36 28
13 61 100 100 100 100 100 100 100 100 100 100 100 100 100 100 100 100 98 76 77 100 100 100 99 100 100 100 100 82 74 62 49 38 36 31 29 30 32 29 29 30 30
14 100 100 100 96 100 100 94 100 100 100 100 100 100 100 96 92 81 68 49 54 100 100 100 100 100 100 100 100 80 66 51 52 38 38 26 22 23 26 26 39 38 31
15 83 98 100 100 100 100 98 73 100 100 100 100 100 99 96 89 64 68 44 79 100 100 100 100 100 100 100 95 98 69 59 46 32 33 30 30 22 22 32 36 29 28
19 100 100 100 100 100 100 100 99 100 99 100 100 100 95 100 96 72 49 36 96 100 100 100 100 100 100 100 100 95 80 57 77 45 44 38 35 26 23 32 27 21 19

GFSSE_250_rhum_123.txt.gz
RH
64 69 61 55 54 60 57 50 49 48 44 88 79 47 88 99 98 84 84 95 88 90 90 79 70 83 80 64 47 37 40 44 32 22 26 28 25 24 23 26 32 35 32
50 72 72 71 60 58 57 57 55 48 47 55 71 51 61 81 100 100 100 100 96 74 67 73 62 61 50 42 27 20 19 19 19 22 24 23 23 23 29 34 37 36 36
40 53 60 62 70 66 56 56 60 56 54 51 76 97 68 58 85 98 94 92 81 70 68 66 66 54 51 34 23 19 17 19 19 22 21 24 28 32 37 37 37 37 36
26 19 53 54 61 71 69 60 65 63 63 56 54 77 92 76 73 84 71 72 65 64 74 63 60 49 41 32 26 22 20 20 20 22 25 30 33 35 37 39 37 37 36
27 18 19 51 66 64 67 67 63 66 66 63 56 57 51 55 57 59 63 61 56 67 67 56 48 41 34 31 28 24 21 23 23 24 30 31 33 36 37 37 34 32 32
23 22 18 24 57 66 62 67 62 67 70 69 68 60 59 56 49 44 40 40 40 49 48 48 45 38 34 33 30 27 24 27 29 29 33 34 33 36 42 38 37 35 36
18 21 20 22 59 100 96 67 66 64 75 79 73 70 66 67 62 54 51 42 39 41 40 39 36 36 39 37 32 29 31 31 35 37 35 35 36 40 44 40 37 38 44
22 25 21 18 74 74 96 78 71 62 68 84 83 76 74 71 66 59 62 57 55 46 47 43 36 38 39 42 40 38 31 34 33 38 41 42 39 48 47 44 42 43 63
43 26 17 18 19 69 49 86 67 70 61 83 93 86 82 72 76 66 66 60 61 56 50 51 47 48 50 48 47 43 39 32 35 38 41 45 44 49 46 51 62 80 83
58 82 19 16 17 20 29 62 93 80 67 67 91 96 91 81 79 78 63 60 64 59 50 54 55 53 54 59 54 50 44 40 40 45 47 48 45 50 50 84 84 97 90
76 79 98 27 16 15 25 86 100 81 68 69 90 96 98 95 81 75 71 68 66 62 52 53 54 54 60 64 61 51 46 47 46 47 52 46 46 49 60 76 68 92 98
26 96 92 99 43 16 14 31 61 64 76 83 91 99 100 100 95 80 82 79 67 68 60 56 64 67 70 66 75 60 62 60 59 62 60 56 53 60 62 67 67 87 100
25 47 91 97 100 62 20 16 17 19 58 91 91 100 100 100 98 93 84 73 69 73 66 65 85 82 69 68 73 86 63 66 76 79 79 63 69 78 61 71 98 79 59
22 13 69 74 98 100 57 21 14 16 30 62 94 90 99 100 100 100 95 88 76 76 78 64 74 86 89 93 100 100 88 79 88 99 92 70 71 92 83 100 73 66 99
33 19 43 63 75 100 96 50 21 19 18 35 69 96 94 100 100 100 100 98 95 94 96 86 68 62 82 96 100 100 100 85 86 71 62 64 87 96 67 78 69 74 62
36 19 11 59 74 98 100 49 18 30 40 49 60 94 98 99 97 100 100 98 94 100 98 96 89 93 89 96 90 85 92 81 74 66 58 64 89 72 64 76 80 65 52
32 16 17 21 90 83 52 56 100 85 100 92 92 100 100 100 94 84 93 100 100 100 100 93 99 100 100 100 100 100 100 100 90 70 80 81 88 73 60 83 94 70 45
21 17 8 10 38 66 34 100 100 100 100 96 80 100 100 100 100 91 96 99 100 100 100 100 100 100 100 100 100 99 98 100 100 88 100 100 96 100 100 86 69 49 36
12 8 6 9 39 62 100 100 100 100 94 100 100 100 100 100 100 100 100 100 100 100 100 100 100 96 95 99 100 97 97 100 100 100 100 100 100 100 91 70 52 38 29
8 7 5 7 27 92 87 100 98 100 76 71 75 97 100 100 100 100 100 100 100 100 100 100 100 100 100 100 100 100 100 100 100 100 100 100 99 98 82 60 42 30 26
6 5 4 7 18 98 100 100 91 100 100 100 100 100 100 100 100 100 100 100 100 100 100 100 100 90 76 89 100 100 99 100 100 100 98 100 89 74 59 42 30 20 17
4 4 5 7 14 80 100 100 99 89 100 99 100 98 100 100 100 100 100 100 100 100 100 100 88 83 87 82 80 100 100 100 96 92 100 89 72 61 47 35 25 19 15
2 4 4 8 11 71 100 100 100 100 100 100 100 96 98 100 100 100 100 100 100 100 96 100 94 88 83 91 97 100 100 100 96 94 80 72 65 52 41 30 23 19 16
3 3 6 12 12 20 66 100 100 99 100 100 100 100 94 100 100 100 100 100 100 98 100 100 100 85 69 88 100 100 100 100 95 75 73 58 55 43 34 29 23 17 16
4 6 10 12 14 21 72 100 100 100 100 100 84 100 100 100 100 100 100 100 100 100 100 92 70 61 66 100 100 100 100 100 90 72 67 54 51 52 38 31 23 19 20
4 7 9 12 17 31 93 100 100 100 100 94 98 100 100 100 100 100 100 100 98 100 100 75 64 59 89 100 100 100 100 100 85 66 61 58 59 50 42 33 25 22 26

GFSSE_250_rhum_126.txt.gz
RH
43 56 65 70 66 52 48 46 44 44 44 64 48 58 42 68 100 100 88 85 96 95 85 82 72 61 57 54 45 34 22 18 17 18 20 22 22 25 32 35 32 33 33
34 54 58 65 78 64 58 55 53 52 47 51 48 80 66 44 91 100 100 100 100 100 95 78 64 55 61 49 44 34 23 18 18 18 20 22 29 34 31 35 36 32 31
22 34 52 47 95 82 66 58 59 60 56 49 49 48 76 43 64 96 100 100 100 100 98 76 61 59 54 49 40 31 27 22 18 20 24 29 32 33 34 36 34 31 31
22 20 33 31 63 95 95 78 56 66 62 59 52 52 60 62 46 56 95 100 100 91 86 72 59 58 53 46 36 31 27 24 22 24 26 31 31 34 33 36 36 35 33
21 18 18 25 33 59 90 94 77 66 63 62 56 59 56 72 80 58 55 61 86 76 74 63 60 47 48 43 34 32 29 26 24 28 31 34 37 34 38 42 39 37 40
18 18 17 18 22 32 47 75 82 78 73 62 60 66 67 57 57 54 55 48 49 46 41 50 46 43 41 35 36 35 32 29 28 29 34 36 39 39 39 45 41 42 42
18 17 17 16 20 25 27 39 68 75 84 73 64 64 66 68 66 59 58 53 51 50 47 47 43 43 36 33 37 36 36 37 32 31 36 35 37 39 37 41 43 46 43
33 16 15 15 16 23 27 28 40 77 81 76 70 68 65 70 76 70 66 59 53 60 57 53 47 53 45 46 47 48 41 40 39 31 35 36 43 42 38 41 43 49 48
37 22 22 14 15 16 24 21 27 51 79 76 71 71 69 70 79 77 74 67 50 54 62 64 56 56 57 55 55 57 48 48 43 41 38 39 41 44 41 46 54 55 53
54 61 43 39 22 15 19 17 39 57 97 90 77 73 69 72 70 79 79 77 72 61 62 64 62 57 59 58 56 60 54 48 43 45 51 49 48 46 47 49 55 60 57
50 77 82 74 90 64 26 20 20 87 100 100 91 75 75 81 72 72 82 82 74 70 69 70 68 58 56 58 59 63 62 54 47 52 53 56 58 56 53 67 66 55 88
23 34 87 87 78 100 94 29 18 30 70 96 94 87 86 84 76 68 81 87 86 71 62 76 75 68 70 76 74 68 65 69 68 57 70 95 82 84 71 68 75 72 91
44 28 42 61 86 82 100 99 22 19 32 63 72 87 96 97 85 83 82 85 85 91 72 80 82 73 73 87 75 67 65 95 90 88 82 91 85 70 63 66 78 72 60
59 58 29 61 80 84 96 100 93 19 18 32 100 93 100 100 91 91 85 78 78 91 90 88 83 92 76 76 78 74 91 100 100 100 95 72 57 52 59 54 60 63 65
51 57 40 25 46 43 93 100 100 100 31 19 43 97 100 100 100 87 95 97 93 98 100 100 100 99 95 86 73 69 68 86 93 100 100 95 97 67 73 69 61 74 81
50 57 52 35 22 27 88 100 100 100 99 24 18 31 97 90 94 91 83 100 98 95 100 100 99 98 100 91 96 100 100 100 98 100 100 84 86 96 87 77 88 97 93
39 48 54 56 41 21 65 95 91 87 93 40 20 16 24 54 72 89 94 100 100 100 100 100 94 97 100 99 99 100 100 99 100 100 82 97 100 100 82 86 100 100 96
35 39 45 52 46 26 29 96 91 77 74 75 36 20 20 25 50 67 84 100 100 100 100 100 93 84 100 100 100 100 99 88 98 100 100 100 100 99 71 100 100 100 98
26 35 39 44 46 29 22 87 90 78 65 54 44 27 29 37 42 64 86 97 100 100 100 100 100 100 100 100 100 100 100 100 97 95 100 94 98 96 88 100 100 98 69
20 24 31 30 32 18 24 29 48 63 50 56 25 37 100 100 98 99 97 100 100 100 100 100 100 100 100 100 100 100 100 78 75 73 92 100 98 100 100 100 97 78 62
11 16 22 22 23 14 12 21 72 64 78 57 39 82 97 100 87 64 100 100 100 100 100 100 100 100 100 100 100 100 100 75 75 87 91 90 100 100 91 88 73 67 53
7 12 13 15 12 11 8 24 76 64 100 88 72 78 86 100 98 100 100 100 100 100 100 100 100 100 100 100 100 100 82 71 91 95 100 100 100 100 100 79 67 59 50
5 8 10 11 12 8 7 10 20 39 100 72 97 99 100 100 100 100 100 100 100 100 100 100 100 100 100 100 100 88 76 82 100 100 100 100 98 86 74 69 61 49 46
3 5 6 6 5 6 6 6 16 52 85 98 100 100 100 100 100 100 100 100 100 100 100 100 100 100 100 100 79 80 97 79 97 95 100 100 99 85 75 74 52 42 42
2 3 4 4 4 4 4 6 20 86 90 100 100 100 100 100 100 100 100 100 100 100 100 100 100 97 96 84 100 100 98 78 80 100 100 100 98 78 76 68 57 48 41
2 3 4 3 3 3 4 6 28 100 96 100 100 100 98 100 100 100 97 100 100 100 100 100 94 100 100 100 100 100 80 74 100 100 100 100 95 91 90 76 62 63 45

GFSSE_250_rhum_129.txt.gz
RH
57 55 53 59 59 61 52 44 46 47 49 43 45 60 56 47 45 68 62 86 80 76 94 83 70 70 63 54 50 44 41 32 25 19 19 22 25 28 30 34 34 30 30
53 44 51 47 58 63 68 58 44 43 46 45 46 59 62 58 49 53 93 99 87 92 100 100 78 72 59 53 48 42 38 31 25 21 19 23 29 29 34 36 33 34 33
38 30 40 47 51 66 71 75 77 55 46 48 50 51 54 63 72 50 72 100 100 100 100 100 89 75 53 44 44 43 38 30 26 23 23 28 31 34 34 34 37 37 34
20 22 27 32 40 50 61 65 85 79 60 51 53 51 55 53 68 56 47 77 100 100 98 94 84 65 45 39 39 44 34 31 28 26 27 35 38 36 32 36 36 37 39
17 16 19 24 24 37 53 64 71 100 82 64 54 56 55 56 61 56 62 61 59 67 75 75 51 42 40 41 42 35 34 35 31 31 31 35 35 34 33 36 36 38 38
18 15 15 19 23 22 36 41 49 88 96 91 64 57 56 58 58 60 72 77 72 58 53 48 45 42 39 38 36 33 36 39 39 39 36 35 37 40 38 38 38 44 42
20 14 14 13 17 20 21 28 38 61 81 93 88 67 57 58 61 68 63 63 59 60 55 55 59 48 42 40 41 39 42 40 42 43 40 35 35 40 41 44 42 46 47
91 26 16 14 15 17 18 19 25 49 65 81 83 75 67 63 64 64 65 68 69 69 60 60 62 59 50 48 47 48 46 45 46 46 44 39 40 45 48 47 44 49 61
68 97 41 20 21 17 27 17 17 23 45 47 65 77 74 69 62 59 61 68 75 76 72 56 65 67 61 55 54 54 54 51 49 47 45 44 46 48 49 50 53 60 59
34 72 99 100 65 28 24 30 18 19 26 28 41 82 84 73 70 62 60 67 70 79 77 65 68 61 67 57 54 56 52 58 60 50 46 47 50 55 59 55 66 57 53
18 46 68 85 98 82 26 59 40 50 28 25 32 44 85 82 80 67 64 61 70 73 77 70 73 72 73 64 63 58 56 68 66 62 63 58 66 91 80 70 64 58 57
29 19 60 75 75 100 91 58 56 57 70 28 27 38 87 96 98 80 74 61 62 64 74 80 78 70 84 74 70 74 69 69 66 76 82 88 84 97 82 71 63 65 61
68 29 23 39 78 83 92 94 89 82 71 78 34 57 74 100 99 98 86 74 65 61 64 79 89 86 64 83 77 76 69 66 71 94 100 100 100 100 92 67 72 80 74
55 60 50 25 50 79 84 89 96 88 93 59 62 42 87 100 100 100 89 85 76 69 67 77 84 80 81 71 88 82 75 63 64 64 87 95 100 100 70 72 77 98 78
53 53 67 61 32 60 77 85 91 100 100 100 75 33 25 82 100 97 89 91 91 80 78 73 75 78 91 97 89 96 86 75 77 100 100 100 92 100 97 98 98 99 89
39 42 53 58 54 30 35 87 86 89 92 100 100 45 22 29 73 85 94 93 95 98 92 82 81 85 95 98 92 82 99 86 84 95 87 88 100 100 95 92 87 86 93
23 35 42 48 52 47 31 34 96 93 100 79 100 65 23 23 23 82 93 94 97 100 100 96 95 87 82 87 92 83 80 87 91 86 93 97 100 89 90 78 61 74 98
22 24 36 42 46 57 36 34 75 62 85 91 66 71 46 38 22 39 81 86 99 96 100 89 97 100 97 96 100 100 100 91 90 97 88 100 98 77 78 71 72 83 100
17 26 24 31 40 49 46 48 46 31 37 73 92 59 63 73 64 24 21 50 74 100 100 100 100 100 100 100 100 100 100 100 100 100 100 100 93 81 94 96 90 100 100
11 16 18 18 28 32 43 42 33 26 18 33 100 69 66 57 47 26 18 20 31 74 97 95 100 100 100 100 100 100 100 97 100 100 100 100 88 73 81 79 92 100 100
8 12 13 16 23 27 33 39 40 52 20 34 100 100 94 58 33 32 18 19 21 34 64 81 100 100 100 100 100 100 100 100 100 98 100 91 80 80 88 61 79 100 100
7 8 12 11 18 26 25 35 41 40 34 29 86 100 93 77 57 50 29 22 29 37 63 76 98 100 100 100 100 100 100 100 100 100 100 81 75 86 96 70 78 95 94
8 5 6 8 10 16 17 27 31 36 33 18 23 84 99 73 65 65 44 57 80 95 96 100 100 100 100 100 100 100 100 100 100 100 96 82 72 100 100 86 74 82 87
4 4 4 4 5 9 10 15 21 22 28 19 17 78 61 97 73 70 99 99 100 100 100 100 100 100 100 100 100 100 100 80 65 87 87 69 97 100 98 80 79 88 66
3 3 3 3 4 4 6 8 12 14 17 17 20 44 64 100 83 78 100 100 84 100 100 100 100 100 100 100 100 100 100 97 89 79 56 83 100 100 94 73 74 68 66
2 2 2 2 3 4 4 4 8 11 11 9 19 26 81 100 78 94 100 96 100 91 100 100 100 100 100 100 100 96 90 100 92 95 92 94 100 96 86 74 80 80 83